﻿<?xml version="1.0" encoding="utf-8"?><gpx creator="Garmin Desktop App" version="1.1" xsi:schemaLocation="http://www.topografix.com/GPX/1/1 http://www.topografix.com/GPX/1/1/gpx.xsd http://www.garmin.com/xmlschemas/WaypointExtension/v1 http://www8.garmin.com/xmlschemas/WaypointExtensionv1.xsd http://www.garmin.com/xmlschemas/TrackPointExtension/v1 http://www.garmin.com/xmlschemas/TrackPointExtensionv1.xsd http://www.garmin.com/xmlschemas/GpxExtensions/v3 http://www8.garmin.com/xmlschemas/GpxExtensionsv3.xsd http://www.garmin.com/xmlschemas/ActivityExtension/v1 http://www8.garmin.com/xmlschemas/ActivityExtensionv1.xsd http://www.garmin.com/xmlschemas/AdventuresExtensions/v1 http://www8.garmin.com/xmlschemas/AdventuresExtensionv1.xsd http://www.garmin.com/xmlschemas/PressureExtension/v1 http://www.garmin.com/xmlschemas/PressureExtensionv1.xsd http://www.garmin.com/xmlschemas/TripExtensions/v1 http://www.garmin.com/xmlschemas/TripExtensionsv1.xsd http://www.garmin.com/xmlschemas/TripMetaDataExtensions/v1 http://www.garmin.com/xmlschemas/TripMetaDataExtensionsv1.xsd http://www.garmin.com/xmlschemas/ViaPointTransportationModeExtensions/v1 http://www.garmin.com/xmlschemas/ViaPointTransportationModeExtensionsv1.xsd http://www.garmin.com/xmlschemas/CreationTimeExtensions/v1 http://www.garmin.com/xmlschemas/CreationTimeExtensionsv1.xsd" xmlns="http://www.topografix.com/GPX/1/1" xmlns:xsi="http://www.w3.org/2001/XMLSchema-instance" xmlns:wptx1="http://www.garmin.com/xmlschemas/WaypointExtension/v1" xmlns:gpxtrx="http://www.garmin.com/xmlschemas/GpxExtensions/v3" xmlns:gpxtpx="http://www.garmin.com/xmlschemas/TrackPointExtension/v1" xmlns:gpxx="http://www.garmin.com/xmlschemas/GpxExtensions/v3" xmlns:trp="http://www.garmin.com/xmlschemas/TripExtensions/v1" xmlns:adv="http://www.garmin.com/xmlschemas/AdventuresExtensions/v1" xmlns:prs="http://www.garmin.com/xmlschemas/PressureExtension/v1" xmlns:tmd="http://www.garmin.com/xmlschemas/TripMetaDataExtensions/v1" xmlns:vptm="http://www.garmin.com/xmlschemas/ViaPointTransportationModeExtensions/v1" xmlns:ctx="http://www.garmin.com/xmlschemas/CreationTimeExtension/v1">

  <metadata>
    <link href="http://www.garmin.com">
      <text>Garmin International</text>
    </link>
    <time>2014-04-14T14:27:27Z</time>
    <bounds maxlat="44.225453892722726" maxlon="9.617443224415183" minlat="44.167531505227089" minlon="9.517749454826117" />
  </metadata>

  <trk>
    <name>deiva levanto2014-04-13</name>
    <extensions>
      <gpxx:TrackExtension>
        <gpxx:DisplayColor>Yellow</gpxx:DisplayColor>
      </gpxx:TrackExtension>
    </extensions>
    <trkseg>
      <trkpt lat="44.225402008742094" lon="9.533133851364255">
        <ele>28.98</ele>
        <time>2014-04-13T08:10:58Z</time>
      </trkpt>
      <trkpt lat="44.225419359281659" lon="9.533130414783955">
        <ele>29.940000000000001</ele>
        <time>2014-04-13T08:11:31Z</time>
      </trkpt>
      <trkpt lat="44.225422963500023" lon="9.533131755888462">
        <ele>28.5</ele>
        <time>2014-04-13T08:11:39Z</time>
      </trkpt>
      <trkpt lat="44.225429585203528" lon="9.533126726746559">
        <ele>28.5</ele>
        <time>2014-04-13T08:11:57Z</time>
      </trkpt>
      <trkpt lat="44.225442577153444" lon="9.533124044537544">
        <ele>28.5</ele>
        <time>2014-04-13T08:12:21Z</time>
      </trkpt>
      <trkpt lat="44.225439559668303" lon="9.533148854970932">
        <ele>28.5</ele>
        <time>2014-04-13T08:12:51Z</time>
      </trkpt>
      <trkpt lat="44.22541256994009" lon="9.533096384257078">
        <ele>28.5</ele>
        <time>2014-04-13T08:13:31Z</time>
      </trkpt>
      <trkpt lat="44.225421706214547" lon="9.533084481954575">
        <ele>28.02</ele>
        <time>2014-04-13T08:13:49Z</time>
      </trkpt>
      <trkpt lat="44.225422963500023" lon="9.533078027889133">
        <ele>29.460000000000001</ele>
        <time>2014-04-13T08:14:02Z</time>
      </trkpt>
      <trkpt lat="44.225436458364129" lon="9.533093282952905">
        <ele>29.460000000000001</ele>
        <time>2014-04-13T08:14:13Z</time>
      </trkpt>
      <trkpt lat="44.225438805297017" lon="9.533086493611336">
        <ele>28.98</ele>
        <time>2014-04-13T08:14:31Z</time>
      </trkpt>
      <trkpt lat="44.225446851924062" lon="9.53308716416359">
        <ele>28.98</ele>
        <time>2014-04-13T08:14:42Z</time>
      </trkpt>
      <trkpt lat="44.225449953228235" lon="9.533080374822021">
        <ele>28.98</ele>
        <time>2014-04-13T08:15:01Z</time>
      </trkpt>
      <trkpt lat="44.225453892722726" lon="9.533072747290134">
        <ele>28.98</ele>
        <time>2014-04-13T08:15:21Z</time>
      </trkpt>
      <trkpt lat="44.225443750619888" lon="9.533123709261417">
        <ele>28.98</ele>
        <time>2014-04-13T08:15:37Z</time>
      </trkpt>
      <trkpt lat="44.225426567718387" lon="9.533123876899481">
        <ele>28.98</ele>
        <time>2014-04-13T08:16:00Z</time>
      </trkpt>
      <trkpt lat="44.225419526919723" lon="9.533123793080449">
        <ele>28.98</ele>
        <time>2014-04-13T08:16:13Z</time>
      </trkpt>
      <trkpt lat="44.225402427837253" lon="9.533106107264757">
        <ele>28.98</ele>
        <time>2014-04-13T08:16:38Z</time>
      </trkpt>
      <trkpt lat="44.2253861669451" lon="9.533135946840048">
        <ele>28.98</ele>
        <time>2014-04-13T08:17:02Z</time>
      </trkpt>
      <trkpt lat="44.225347526371479" lon="9.533153548836708">
        <ele>28.98</ele>
        <time>2014-04-13T08:17:19Z</time>
      </trkpt>
      <trkpt lat="44.225358422845602" lon="9.533133683726192">
        <ele>28.98</ele>
        <time>2014-04-13T08:17:33Z</time>
      </trkpt>
      <trkpt lat="44.225366218015552" lon="9.533123541623354">
        <ele>28.98</ele>
        <time>2014-04-13T08:17:52Z</time>
      </trkpt>
      <trkpt lat="44.225387424230576" lon="9.533133180812001">
        <ele>28.98</ele>
        <time>2014-04-13T08:18:06Z</time>
      </trkpt>
      <trkpt lat="44.225380970165133" lon="9.533132677897811">
        <ele>28.5</ele>
        <time>2014-04-13T08:18:17Z</time>
      </trkpt>
      <trkpt lat="44.225400248542428" lon="9.533121529966593">
        <ele>28.5</ele>
        <time>2014-04-13T08:18:43Z</time>
      </trkpt>
      <trkpt lat="44.225365715101361" lon="9.533106861636043">
        <ele>28.5</ele>
        <time>2014-04-13T08:19:05Z</time>
      </trkpt>
      <trkpt lat="44.225367810577154" lon="9.53301977366209">
        <ele>28.5</ele>
        <time>2014-04-13T08:19:17Z</time>
      </trkpt>
      <trkpt lat="44.225359512493014" lon="9.532888680696487">
        <ele>28.5</ele>
        <time>2014-04-13T08:19:27Z</time>
      </trkpt>
      <trkpt lat="44.225362949073315" lon="9.532808465883136">
        <ele>28.5</ele>
        <time>2014-04-13T08:19:32Z</time>
      </trkpt>
      <trkpt lat="44.225377198308706" lon="9.532704530283809">
        <ele>28.5</ele>
        <time>2014-04-13T08:19:40Z</time>
      </trkpt>
      <trkpt lat="44.225410055369139" lon="9.532681228592992">
        <ele>28.5</ele>
        <time>2014-04-13T08:19:53Z</time>
      </trkpt>
      <trkpt lat="44.225401924923062" lon="9.532696316018701">
        <ele>28.02</ele>
        <time>2014-04-13T08:20:14Z</time>
      </trkpt>
      <trkpt lat="44.225415419787169" lon="9.53269774094224">
        <ele>28.02</ele>
        <time>2014-04-13T08:20:42Z</time>
      </trkpt>
      <trkpt lat="44.225409887731075" lon="9.532676450908184">
        <ele>28.02</ele>
        <time>2014-04-13T08:20:59Z</time>
      </trkpt>
      <trkpt lat="44.225399997085333" lon="9.532678043469787">
        <ele>28.02</ele>
        <time>2014-04-13T08:21:17Z</time>
      </trkpt>
      <trkpt lat="44.225387256592512" lon="9.532676618546248">
        <ele>28.02</ele>
        <time>2014-04-13T08:21:40Z</time>
      </trkpt>
      <trkpt lat="44.225416509434581" lon="9.532692711800337">
        <ele>28.02</ele>
        <time>2014-04-13T08:22:09Z</time>
      </trkpt>
      <trkpt lat="44.225376527756453" lon="9.53270654194057">
        <ele>28.02</ele>
        <time>2014-04-13T08:22:19Z</time>
      </trkpt>
      <trkpt lat="44.225275609642267" lon="9.532727915793657">
        <ele>28.02</ele>
        <time>2014-04-13T08:22:29Z</time>
      </trkpt>
      <trkpt lat="44.22522883862257" lon="9.532729424536228">
        <ele>28.02</ele>
        <time>2014-04-13T08:22:33Z</time>
      </trkpt>
      <trkpt lat="44.225203860551119" lon="9.5327153429389">
        <ele>28.02</ele>
        <time>2014-04-13T08:22:45Z</time>
      </trkpt>
      <trkpt lat="44.225197155028582" lon="9.532705871388316">
        <ele>28.02</ele>
        <time>2014-04-13T08:22:56Z</time>
      </trkpt>
      <trkpt lat="44.225188437849283" lon="9.532708469778299">
        <ele>28.02</ele>
        <time>2014-04-13T08:23:08Z</time>
      </trkpt>
      <trkpt lat="44.225180391222239" lon="9.532711403444409">
        <ele>28.02</ele>
        <time>2014-04-13T08:23:19Z</time>
      </trkpt>
      <trkpt lat="44.225189862772822" lon="9.53270654194057">
        <ele>28.02</ele>
        <time>2014-04-13T08:23:30Z</time>
      </trkpt>
      <trkpt lat="44.225205117836595" lon="9.532692544162273">
        <ele>28.02</ele>
        <time>2014-04-13T08:23:44Z</time>
      </trkpt>
      <trkpt lat="44.225192125886679" lon="9.532695058733225">
        <ele>28.02</ele>
        <time>2014-04-13T08:23:52Z</time>
      </trkpt>
      <trkpt lat="44.22519220970571" lon="9.532680474221706">
        <ele>28.02</ele>
        <time>2014-04-13T08:24:01Z</time>
      </trkpt>
      <trkpt lat="44.225194221362472" lon="9.532683324068785">
        <ele>28.02</ele>
        <time>2014-04-13T08:24:11Z</time>
      </trkpt>
      <trkpt lat="44.22519757412374" lon="9.532676870003343">
        <ele>28.5</ele>
        <time>2014-04-13T08:24:25Z</time>
      </trkpt>
      <trkpt lat="44.225185001268983" lon="9.532682318240404">
        <ele>28.5</ele>
        <time>2014-04-13T08:24:49Z</time>
      </trkpt>
      <trkpt lat="44.225166393443942" lon="9.532686928287149">
        <ele>28.5</ele>
        <time>2014-04-13T08:25:05Z</time>
      </trkpt>
      <trkpt lat="44.225174272432923" lon="9.532683910802007">
        <ele>28.5</ele>
        <time>2014-04-13T08:25:21Z</time>
      </trkpt>
      <trkpt lat="44.225164465606213" lon="9.532643845304847">
        <ele>28.5</ele>
        <time>2014-04-13T08:25:24Z</time>
      </trkpt>
      <trkpt lat="44.225127082318068" lon="9.532564803957939">
        <ele>28.5</ele>
        <time>2014-04-13T08:25:30Z</time>
      </trkpt>
      <trkpt lat="44.225131357088685" lon="9.532359195873141">
        <ele>28.5</ele>
        <time>2014-04-13T08:25:43Z</time>
      </trkpt>
      <trkpt lat="44.225124567747116" lon="9.532309658825398">
        <ele>28.5</ele>
        <time>2014-04-13T08:25:47Z</time>
      </trkpt>
      <trkpt lat="44.225135548040271" lon="9.532223157584667">
        <ele>27.050000000000001</ele>
        <time>2014-04-13T08:25:51Z</time>
      </trkpt>
      <trkpt lat="44.225138314068317" lon="9.532196754589677">
        <ele>27.050000000000001</ele>
        <time>2014-04-13T08:25:52Z</time>
      </trkpt>
      <trkpt lat="44.22513940371573" lon="9.532171608880162">
        <ele>27.050000000000001</ele>
        <time>2014-04-13T08:25:53Z</time>
      </trkpt>
      <trkpt lat="44.225138397887349" lon="9.532087789848447">
        <ele>27.050000000000001</ele>
        <time>2014-04-13T08:26:00Z</time>
      </trkpt>
      <trkpt lat="44.225138397887349" lon="9.532062979415059">
        <ele>27.050000000000001</ele>
        <time>2014-04-13T08:26:01Z</time>
      </trkpt>
      <trkpt lat="44.225141247734427" lon="9.532035570591688">
        <ele>27.050000000000001</ele>
        <time>2014-04-13T08:26:02Z</time>
      </trkpt>
      <trkpt lat="44.225144935771823" lon="9.532009083777666">
        <ele>27.050000000000001</ele>
        <time>2014-04-13T08:26:03Z</time>
      </trkpt>
      <trkpt lat="44.22514627687633" lon="9.531981004402041">
        <ele>27.050000000000001</ele>
        <time>2014-04-13T08:26:04Z</time>
      </trkpt>
      <trkpt lat="44.22515457496047" lon="9.531773300841451">
        <ele>27.050000000000001</ele>
        <time>2014-04-13T08:26:17Z</time>
      </trkpt>
      <trkpt lat="44.22517460770905" lon="9.531455039978027">
        <ele>26.57</ele>
        <time>2014-04-13T08:26:36Z</time>
      </trkpt>
      <trkpt lat="44.22519807703793" lon="9.531040973961353">
        <ele>25.609999999999999</ele>
        <time>2014-04-13T08:26:59Z</time>
      </trkpt>
      <trkpt lat="44.225190030410886" lon="9.530594302341342">
        <ele>24.649999999999999</ele>
        <time>2014-04-13T08:27:21Z</time>
      </trkpt>
      <trkpt lat="44.225190449506044" lon="9.530368326231837">
        <ele>24.649999999999999</ele>
        <time>2014-04-13T08:27:35Z</time>
      </trkpt>
      <trkpt lat="44.225174523890018" lon="9.530048975721002">
        <ele>24.170000000000002</ele>
        <time>2014-04-13T08:27:52Z</time>
      </trkpt>
      <trkpt lat="44.225135128945112" lon="9.529779581353068">
        <ele>23.690000000000001</ele>
        <time>2014-04-13T08:28:08Z</time>
      </trkpt>
      <trkpt lat="44.225043263286352" lon="9.529421674087644">
        <ele>22.73</ele>
        <time>2014-04-13T08:28:27Z</time>
      </trkpt>
      <trkpt lat="44.224963048473001" lon="9.529088828712702">
        <ele>22.25</ele>
        <time>2014-04-13T08:28:45Z</time>
      </trkpt>
      <trkpt lat="44.224925329908729" lon="9.528915826231241">
        <ele>22.25</ele>
        <time>2014-04-13T08:28:55Z</time>
      </trkpt>
      <trkpt lat="44.224923066794872" lon="9.528891183435917">
        <ele>22.25</ele>
        <time>2014-04-13T08:28:56Z</time>
      </trkpt>
      <trkpt lat="44.224856933578849" lon="9.528702171519399">
        <ele>21.77</ele>
        <time>2014-04-13T08:29:09Z</time>
      </trkpt>
      <trkpt lat="44.224813263863325" lon="9.528422299772501">
        <ele>21.77</ele>
        <time>2014-04-13T08:29:24Z</time>
      </trkpt>
      <trkpt lat="44.224725253880024" lon="9.528165142983198">
        <ele>21.77</ele>
        <time>2014-04-13T08:29:42Z</time>
      </trkpt>
      <trkpt lat="44.224711759015918" lon="9.52808459289372">
        <ele>21.77</ele>
        <time>2014-04-13T08:29:46Z</time>
      </trkpt>
      <trkpt lat="44.224648308008909" lon="9.527827939018607">
        <ele>21.77</ele>
        <time>2014-04-13T08:30:02Z</time>
      </trkpt>
      <trkpt lat="44.224582258611917" lon="9.527533147484064">
        <ele>21.289999999999999</ele>
        <time>2014-04-13T08:30:18Z</time>
      </trkpt>
      <trkpt lat="44.224498104304075" lon="9.527264172211289">
        <ele>20.809999999999999</ele>
        <time>2014-04-13T08:30:36Z</time>
      </trkpt>
      <trkpt lat="44.224402885884047" lon="9.526944486424327">
        <ele>19.84</ele>
        <time>2014-04-13T08:30:54Z</time>
      </trkpt>
      <trkpt lat="44.22433658502996" lon="9.526701578870416">
        <ele>19.359999999999999</ele>
        <time>2014-04-13T08:31:11Z</time>
      </trkpt>
      <trkpt lat="44.224271457642317" lon="9.526508124545217">
        <ele>19.359999999999999</ele>
        <time>2014-04-13T08:31:23Z</time>
      </trkpt>
      <trkpt lat="44.224255029112101" lon="9.526385497301817">
        <ele>19.359999999999999</ele>
        <time>2014-04-13T08:31:30Z</time>
      </trkpt>
      <trkpt lat="44.224197445437312" lon="9.526116773486137">
        <ele>18.879999999999999</ele>
        <time>2014-04-13T08:31:46Z</time>
      </trkpt>
      <trkpt lat="44.224190404638648" lon="9.526092382147908">
        <ele>18.879999999999999</ele>
        <time>2014-04-13T08:31:48Z</time>
      </trkpt>
      <trkpt lat="44.224186046048999" lon="9.526074109598994">
        <ele>18.879999999999999</ele>
        <time>2014-04-13T08:31:49Z</time>
      </trkpt>
      <trkpt lat="44.224182358011603" lon="9.526054915040731">
        <ele>18.879999999999999</ele>
        <time>2014-04-13T08:31:50Z</time>
      </trkpt>
      <trkpt lat="44.224097784608603" lon="9.525755010545254">
        <ele>18.399999999999999</ele>
        <time>2014-04-13T08:32:08Z</time>
      </trkpt>
      <trkpt lat="44.224034165963531" lon="9.525582930073142">
        <ele>17.920000000000002</ele>
        <time>2014-04-13T08:32:20Z</time>
      </trkpt>
      <trkpt lat="44.223920842632651" lon="9.525284115225077">
        <ele>17.920000000000002</ele>
        <time>2014-04-13T08:32:36Z</time>
      </trkpt>
      <trkpt lat="44.223779020830989" lon="9.525026204064488">
        <ele>16.960000000000001</ele>
        <time>2014-04-13T08:32:55Z</time>
      </trkpt>
      <trkpt lat="44.223621692508459" lon="9.524830402806401">
        <ele>16.48</ele>
        <time>2014-04-13T08:33:11Z</time>
      </trkpt>
      <trkpt lat="44.223606940358877" lon="9.524812214076519">
        <ele>16.48</ele>
        <time>2014-04-13T08:33:12Z</time>
      </trkpt>
      <trkpt lat="44.223351627588272" lon="9.524629404768348">
        <ele>16</ele>
        <time>2014-04-13T08:33:33Z</time>
      </trkpt>
      <trkpt lat="44.223140990361571" lon="9.524427317082882">
        <ele>15.52</ele>
        <time>2014-04-13T08:33:54Z</time>
      </trkpt>
      <trkpt lat="44.222968658432364" lon="9.524264959618449">
        <ele>15.039999999999999</ele>
        <time>2014-04-13T08:34:09Z</time>
      </trkpt>
      <trkpt lat="44.222957426682115" lon="9.524248782545328">
        <ele>15.039999999999999</ele>
        <time>2014-04-13T08:34:10Z</time>
      </trkpt>
      <trkpt lat="44.22294401563704" lon="9.524230677634478">
        <ele>15.039999999999999</ele>
        <time>2014-04-13T08:34:11Z</time>
      </trkpt>
      <trkpt lat="44.222930353134871" lon="9.524218859151006">
        <ele>15.039999999999999</ele>
        <time>2014-04-13T08:34:12Z</time>
      </trkpt>
      <trkpt lat="44.222918953746557" lon="9.524212069809437">
        <ele>15.039999999999999</ele>
        <time>2014-04-13T08:34:13Z</time>
      </trkpt>
      <trkpt lat="44.222747795283794" lon="9.524107547476888">
        <ele>15.039999999999999</ele>
        <time>2014-04-13T08:34:29Z</time>
      </trkpt>
      <trkpt lat="44.222569512203336" lon="9.523996487259865">
        <ele>14.56</ele>
        <time>2014-04-13T08:34:46Z</time>
      </trkpt>
      <trkpt lat="44.222401790320873" lon="9.523842427879572">
        <ele>14.56</ele>
        <time>2014-04-13T08:35:00Z</time>
      </trkpt>
      <trkpt lat="44.222245635464787" lon="9.523722566664219">
        <ele>14.08</ele>
        <time>2014-04-13T08:35:14Z</time>
      </trkpt>
      <trkpt lat="44.222079757601023" lon="9.523546798154712">
        <ele>14.08</ele>
        <time>2014-04-13T08:35:27Z</time>
      </trkpt>
      <trkpt lat="44.222042206674814" lon="9.523528274148703">
        <ele>16</ele>
        <time>2014-04-13T08:35:32Z</time>
      </trkpt>
      <trkpt lat="44.222019407898188" lon="9.523498937487602">
        <ele>13.6</ele>
        <time>2014-04-13T08:35:34Z</time>
      </trkpt>
      <trkpt lat="44.221912622451782" lon="9.523429200053215">
        <ele>13.119999999999999</ele>
        <time>2014-04-13T08:35:46Z</time>
      </trkpt>
      <trkpt lat="44.221897115930915" lon="9.523424925282598">
        <ele>13.119999999999999</ele>
        <time>2014-04-13T08:35:47Z</time>
      </trkpt>
      <trkpt lat="44.221880435943604" lon="9.523412687703967">
        <ele>13.119999999999999</ele>
        <time>2014-04-13T08:35:48Z</time>
      </trkpt>
      <trkpt lat="44.221863588318229" lon="9.523394582793117">
        <ele>13.119999999999999</ele>
        <time>2014-04-13T08:35:49Z</time>
      </trkpt>
      <trkpt lat="44.221847746521235" lon="9.523374633863568">
        <ele>13.119999999999999</ele>
        <time>2014-04-13T08:35:50Z</time>
      </trkpt>
      <trkpt lat="44.221675498411059" lon="9.523258376866579">
        <ele>13.119999999999999</ele>
        <time>2014-04-13T08:36:03Z</time>
      </trkpt>
      <trkpt lat="44.221553206443787" lon="9.5231675170362">
        <ele>13.119999999999999</ele>
        <time>2014-04-13T08:36:17Z</time>
      </trkpt>
      <trkpt lat="44.221495538949966" lon="9.523104904219508">
        <ele>13.119999999999999</ele>
        <time>2014-04-13T08:36:31Z</time>
      </trkpt>
      <trkpt lat="44.221381964161992" lon="9.523021001368761">
        <ele>13.119999999999999</ele>
        <time>2014-04-13T08:36:49Z</time>
      </trkpt>
      <trkpt lat="44.221240477636456" lon="9.522925699129701">
        <ele>12.15</ele>
        <time>2014-04-13T08:37:07Z</time>
      </trkpt>
      <trkpt lat="44.221181888133287" lon="9.522843305021524">
        <ele>12.15</ele>
        <time>2014-04-13T08:37:17Z</time>
      </trkpt>
      <trkpt lat="44.221175601705909" lon="9.522829055786133">
        <ele>12.15</ele>
        <time>2014-04-13T08:37:18Z</time>
      </trkpt>
      <trkpt lat="44.221035875380039" lon="9.522726880386472">
        <ele>12.15</ele>
        <time>2014-04-13T08:37:33Z</time>
      </trkpt>
      <trkpt lat="44.220890868455172" lon="9.522622358053923">
        <ele>11.67</ele>
        <time>2014-04-13T08:37:47Z</time>
      </trkpt>
      <trkpt lat="44.220724571496248" lon="9.522492354735732">
        <ele>11.19</ele>
        <time>2014-04-13T08:38:03Z</time>
      </trkpt>
      <trkpt lat="44.22054092399776" lon="9.522363189607859">
        <ele>10.710000000000001</ele>
        <time>2014-04-13T08:38:23Z</time>
      </trkpt>
      <trkpt lat="44.220348307862878" lon="9.522204017266631">
        <ele>9.75</ele>
        <time>2014-04-13T08:38:43Z</time>
      </trkpt>
      <trkpt lat="44.220086960121989" lon="9.522028164938092">
        <ele>9.27</ele>
        <time>2014-04-13T08:39:09Z</time>
      </trkpt>
      <trkpt lat="44.219828797504306" lon="9.521803697571158">
        <ele>9.27</ele>
        <time>2014-04-13T08:39:31Z</time>
      </trkpt>
      <trkpt lat="44.21970340423286" lon="9.521715939044952">
        <ele>8.789999999999999</ele>
        <time>2014-04-13T08:39:44Z</time>
      </trkpt>
      <trkpt lat="44.219693010672927" lon="9.521703282371163">
        <ele>8.789999999999999</ele>
        <time>2014-04-13T08:39:45Z</time>
      </trkpt>
      <trkpt lat="44.21948941424489" lon="9.521502368152142">
        <ele>8.310000000000001</ele>
        <time>2014-04-13T08:40:04Z</time>
      </trkpt>
      <trkpt lat="44.219345496967435" lon="9.521373957395554">
        <ele>8.310000000000001</ele>
        <time>2014-04-13T08:40:18Z</time>
      </trkpt>
      <trkpt lat="44.219184145331383" lon="9.521232806146145">
        <ele>8.310000000000001</ele>
        <time>2014-04-13T08:40:35Z</time>
      </trkpt>
      <trkpt lat="44.218973172828555" lon="9.52108939178288">
        <ele>7.83</ele>
        <time>2014-04-13T08:40:54Z</time>
      </trkpt>
      <trkpt lat="44.218892371281981" lon="9.521029461175203">
        <ele>7.83</ele>
        <time>2014-04-13T08:41:02Z</time>
      </trkpt>
      <trkpt lat="44.218749208375812" lon="9.520922172814608">
        <ele>6.87</ele>
        <time>2014-04-13T08:41:16Z</time>
      </trkpt>
      <trkpt lat="44.218597495928407" lon="9.52078496105969">
        <ele>7.35</ele>
        <time>2014-04-13T08:41:34Z</time>
      </trkpt>
      <trkpt lat="44.218528931960464" lon="9.520717654377222">
        <ele>7.35</ele>
        <time>2014-04-13T08:41:50Z</time>
      </trkpt>
      <trkpt lat="44.218474701046944" lon="9.520663591101766">
        <ele>7.35</ele>
        <time>2014-04-13T08:42:09Z</time>
      </trkpt>
      <trkpt lat="44.21839440241456" lon="9.520604917779565">
        <ele>7.35</ele>
        <time>2014-04-13T08:42:27Z</time>
      </trkpt>
      <trkpt lat="44.218213437125087" lon="9.520488409325481">
        <ele>6.87</ele>
        <time>2014-04-13T08:42:46Z</time>
      </trkpt>
      <trkpt lat="44.218187537044287" lon="9.520455719903112">
        <ele>6.39</ele>
        <time>2014-04-13T08:42:49Z</time>
      </trkpt>
      <trkpt lat="44.218179155141115" lon="9.520439123734832">
        <ele>6.87</ele>
        <time>2014-04-13T08:42:50Z</time>
      </trkpt>
      <trkpt lat="44.21816716901958" lon="9.520427053794265">
        <ele>6.39</ele>
        <time>2014-04-13T08:42:51Z</time>
      </trkpt>
      <trkpt lat="44.218155182898045" lon="9.520422527566552">
        <ele>6.87</ele>
        <time>2014-04-13T08:42:52Z</time>
      </trkpt>
      <trkpt lat="44.218073878437281" lon="9.520386317744851">
        <ele>6.39</ele>
        <time>2014-04-13T08:43:01Z</time>
      </trkpt>
      <trkpt lat="44.218061892315745" lon="9.520374163985252">
        <ele>6.39</ele>
        <time>2014-04-13T08:43:02Z</time>
      </trkpt>
      <trkpt lat="44.218010175973177" lon="9.520319933071733">
        <ele>6.39</ele>
        <time>2014-04-13T08:43:06Z</time>
      </trkpt>
      <trkpt lat="44.217997686937451" lon="9.520311299711466">
        <ele>6.39</ele>
        <time>2014-04-13T08:43:07Z</time>
      </trkpt>
      <trkpt lat="44.21798637136817" lon="9.520299816504121">
        <ele>6.39</ele>
        <time>2014-04-13T08:43:08Z</time>
      </trkpt>
      <trkpt lat="44.217868521809578" lon="9.52016880735755">
        <ele>5.91</ele>
        <time>2014-04-13T08:43:20Z</time>
      </trkpt>
      <trkpt lat="44.217732902616262" lon="9.520041486248374">
        <ele>5.42</ele>
        <time>2014-04-13T08:43:33Z</time>
      </trkpt>
      <trkpt lat="44.21769367530942" lon="9.519999157637358">
        <ele>5.42</ele>
        <time>2014-04-13T08:43:38Z</time>
      </trkpt>
      <trkpt lat="44.217681353911757" lon="9.519986500963569">
        <ele>5.42</ele>
        <time>2014-04-13T08:43:39Z</time>
      </trkpt>
      <trkpt lat="44.217670625075698" lon="9.519977197051048">
        <ele>5.42</ele>
        <time>2014-04-13T08:43:40Z</time>
      </trkpt>
      <trkpt lat="44.217659812420607" lon="9.519967306405306">
        <ele>5.42</ele>
        <time>2014-04-13T08:43:41Z</time>
      </trkpt>
      <trkpt lat="44.21746451407671" lon="9.519770247861743">
        <ele>4.46</ele>
        <time>2014-04-13T08:44:02Z</time>
      </trkpt>
      <trkpt lat="44.217344988137484" lon="9.519631862640381">
        <ele>3.5</ele>
        <time>2014-04-13T08:44:12Z</time>
      </trkpt>
      <trkpt lat="44.217299474403262" lon="9.519606800749898">
        <ele>3.5</ele>
        <time>2014-04-13T08:44:17Z</time>
      </trkpt>
      <trkpt lat="44.217287069186568" lon="9.519602945074439">
        <ele>3.5</ele>
        <time>2014-04-13T08:44:18Z</time>
      </trkpt>
      <trkpt lat="44.217273741960526" lon="9.51959908939898">
        <ele>3.5</ele>
        <time>2014-04-13T08:44:19Z</time>
      </trkpt>
      <trkpt lat="44.217258738353848" lon="9.519589617848396">
        <ele>3.5</ele>
        <time>2014-04-13T08:44:20Z</time>
      </trkpt>
      <trkpt lat="44.217243986204267" lon="9.519578134641051">
        <ele>3.5</ele>
        <time>2014-04-13T08:44:21Z</time>
      </trkpt>
      <trkpt lat="44.217228982597589" lon="9.519562963396311">
        <ele>3.5</ele>
        <time>2014-04-13T08:44:22Z</time>
      </trkpt>
      <trkpt lat="44.217214565724134" lon="9.519546283408999">
        <ele>3.02</ele>
        <time>2014-04-13T08:44:23Z</time>
      </trkpt>
      <trkpt lat="44.21708288602531" lon="9.519429272040725">
        <ele>2.54</ele>
        <time>2014-04-13T08:44:32Z</time>
      </trkpt>
      <trkpt lat="44.217066457495093" lon="9.519425919279456">
        <ele>2.54</ele>
        <time>2014-04-13T08:44:33Z</time>
      </trkpt>
      <trkpt lat="44.217049945145845" lon="9.5194270927459">
        <ele>2.06</ele>
        <time>2014-04-13T08:44:34Z</time>
      </trkpt>
      <trkpt lat="44.216999234631658" lon="9.519497836008668">
        <ele>2.54</ele>
        <time>2014-04-13T08:44:45Z</time>
      </trkpt>
      <trkpt lat="44.216901417821646" lon="9.519430613145232">
        <ele>2.54</ele>
        <time>2014-04-13T08:44:51Z</time>
      </trkpt>
      <trkpt lat="44.216861352324486" lon="9.519418878480792">
        <ele>2.54</ele>
        <time>2014-04-13T08:44:52Z</time>
      </trkpt>
      <trkpt lat="44.216714417561889" lon="9.519217209890485">
        <ele>2.54</ele>
        <time>2014-04-13T08:45:03Z</time>
      </trkpt>
      <trkpt lat="44.216704107820988" lon="9.519205894321203">
        <ele>2.54</ele>
        <time>2014-04-13T08:45:04Z</time>
      </trkpt>
      <trkpt lat="44.216650798916817" lon="9.519160967320204">
        <ele>2.54</ele>
        <time>2014-04-13T08:45:09Z</time>
      </trkpt>
      <trkpt lat="44.216634538024664" lon="9.519136575981975">
        <ele>2.54</ele>
        <time>2014-04-13T08:45:11Z</time>
      </trkpt>
      <trkpt lat="44.216627664864063" lon="9.519119141623378">
        <ele>2.54</ele>
        <time>2014-04-13T08:45:12Z</time>
      </trkpt>
      <trkpt lat="44.216621881350875" lon="9.519101874902844">
        <ele>2.54</ele>
        <time>2014-04-13T08:45:13Z</time>
      </trkpt>
      <trkpt lat="44.216617858037353" lon="9.519083937630057">
        <ele>2.54</ele>
        <time>2014-04-13T08:45:14Z</time>
      </trkpt>
      <trkpt lat="44.216612996533513" lon="9.519065748900175">
        <ele>2.54</ele>
        <time>2014-04-13T08:45:15Z</time>
      </trkpt>
      <trkpt lat="44.216603357344866" lon="9.518962232396007">
        <ele>2.54</ele>
        <time>2014-04-13T08:45:21Z</time>
      </trkpt>
      <trkpt lat="44.216601429507136" lon="9.518944211304188">
        <ele>2.54</ele>
        <time>2014-04-13T08:45:22Z</time>
      </trkpt>
      <trkpt lat="44.216599753126502" lon="9.5189228374511">
        <ele>2.54</ele>
        <time>2014-04-13T08:45:23Z</time>
      </trkpt>
      <trkpt lat="44.21659623272717" lon="9.518904564902186">
        <ele>2.54</ele>
        <time>2014-04-13T08:45:24Z</time>
      </trkpt>
      <trkpt lat="44.216561112552881" lon="9.51881043612957">
        <ele>2.54</ele>
        <time>2014-04-13T08:45:35Z</time>
      </trkpt>
      <trkpt lat="44.216532614082098" lon="9.518812447786331">
        <ele>2.54</ele>
        <time>2014-04-13T08:45:50Z</time>
      </trkpt>
      <trkpt lat="44.216533452272415" lon="9.518837761133909">
        <ele>2.54</ele>
        <time>2014-04-13T08:46:09Z</time>
      </trkpt>
      <trkpt lat="44.216534290462732" lon="9.518845891579986">
        <ele>2.54</ele>
        <time>2014-04-13T08:46:25Z</time>
      </trkpt>
      <trkpt lat="44.216521214693785" lon="9.518880089744926">
        <ele>2.54</ele>
        <time>2014-04-13T08:46:41Z</time>
      </trkpt>
      <trkpt lat="44.216519957408309" lon="9.518896350637078">
        <ele>2.54</ele>
        <time>2014-04-13T08:46:44Z</time>
      </trkpt>
      <trkpt lat="44.216517610475421" lon="9.518848489969969">
        <ele>2.54</ele>
        <time>2014-04-13T08:46:52Z</time>
      </trkpt>
      <trkpt lat="44.216522723436356" lon="9.518831474706531">
        <ele>2.54</ele>
        <time>2014-04-13T08:47:06Z</time>
      </trkpt>
      <trkpt lat="44.216526998206973" lon="9.518867768347263">
        <ele>2.54</ele>
        <time>2014-04-13T08:47:19Z</time>
      </trkpt>
      <trkpt lat="44.216511407867074" lon="9.518869696184993">
        <ele>3.02</ele>
        <time>2014-04-13T08:47:32Z</time>
      </trkpt>
      <trkpt lat="44.21649900265038" lon="9.518921915441752">
        <ele>3.02</ele>
        <time>2014-04-13T08:47:43Z</time>
      </trkpt>
      <trkpt lat="44.21650243923068" lon="9.518920155242086">
        <ele>3.02</ele>
        <time>2014-04-13T08:48:00Z</time>
      </trkpt>
      <trkpt lat="44.216461032629013" lon="9.519064910709858">
        <ele>3.02</ele>
        <time>2014-04-13T08:48:22Z</time>
      </trkpt>
      <trkpt lat="44.216504450887442" lon="9.519171947613359">
        <ele>3.02</ele>
        <time>2014-04-13T08:48:45Z</time>
      </trkpt>
      <trkpt lat="44.216497493907809" lon="9.519061977043748">
        <ele>3.5</ele>
        <time>2014-04-13T08:49:06Z</time>
      </trkpt>
      <trkpt lat="44.216500427573919" lon="9.51900833286345">
        <ele>3.5</ele>
        <time>2014-04-13T08:49:28Z</time>
      </trkpt>
      <trkpt lat="44.216552311554551" lon="9.518938343971968">
        <ele>3.5</ele>
        <time>2014-04-13T08:49:48Z</time>
      </trkpt>
      <trkpt lat="44.216562118381262" lon="9.518965249881148">
        <ele>3.5</ele>
        <time>2014-04-13T08:50:06Z</time>
      </trkpt>
      <trkpt lat="44.216552143916488" lon="9.518813705071807">
        <ele>3.5</ele>
        <time>2014-04-13T08:50:17Z</time>
      </trkpt>
      <trkpt lat="44.216504618525505" lon="9.518729215487838">
        <ele>3.98</ele>
        <time>2014-04-13T08:50:42Z</time>
      </trkpt>
      <trkpt lat="44.216510569676757" lon="9.51886466704309">
        <ele>3.98</ele>
        <time>2014-04-13T08:51:01Z</time>
      </trkpt>
      <trkpt lat="44.216542840003967" lon="9.518926860764623">
        <ele>3.98</ele>
        <time>2014-04-13T08:51:19Z</time>
      </trkpt>
      <trkpt lat="44.216494392603636" lon="9.518949491903186">
        <ele>3.98</ele>
        <time>2014-04-13T08:51:41Z</time>
      </trkpt>
      <trkpt lat="44.216532530263066" lon="9.518968937918544">
        <ele>3.98</ele>
        <time>2014-04-13T08:52:02Z</time>
      </trkpt>
      <trkpt lat="44.216469498351216" lon="9.518846310675144">
        <ele>3.98</ele>
        <time>2014-04-13T08:52:25Z</time>
      </trkpt>
      <trkpt lat="44.216410657390952" lon="9.519045129418373">
        <ele>3.98</ele>
        <time>2014-04-13T08:52:46Z</time>
      </trkpt>
      <trkpt lat="44.216390373185277" lon="9.519149400293827">
        <ele>3.98</ele>
        <time>2014-04-13T08:52:59Z</time>
      </trkpt>
      <trkpt lat="44.216445107012987" lon="9.51937235891819">
        <ele>3.98</ele>
        <time>2014-04-13T08:54:11Z</time>
      </trkpt>
      <trkpt lat="44.216422894969583" lon="9.518860727548599">
        <ele>3.98</ele>
        <time>2014-04-13T08:54:14Z</time>
      </trkpt>
      <trkpt lat="44.216482825577259" lon="9.518891824409366">
        <ele>3.98</ele>
        <time>2014-04-13T08:54:21Z</time>
      </trkpt>
      <trkpt lat="44.216463211923838" lon="9.518857207149267">
        <ele>3.98</ele>
        <time>2014-04-13T08:54:23Z</time>
      </trkpt>
      <trkpt lat="44.216445777565241" lon="9.518801467493177">
        <ele>3.98</ele>
        <time>2014-04-13T08:54:25Z</time>
      </trkpt>
      <trkpt lat="44.216440413147211" lon="9.518771711736918">
        <ele>3.98</ele>
        <time>2014-04-13T08:54:26Z</time>
      </trkpt>
      <trkpt lat="44.216432366520166" lon="9.518745644018054">
        <ele>3.98</ele>
        <time>2014-04-13T08:54:27Z</time>
      </trkpt>
      <trkpt lat="44.216425074264407" lon="9.518720498308539">
        <ele>3.98</ele>
        <time>2014-04-13T08:54:28Z</time>
      </trkpt>
      <trkpt lat="44.216419877484441" lon="9.518697950989008">
        <ele>3.98</ele>
        <time>2014-04-13T08:54:29Z</time>
      </trkpt>
      <trkpt lat="44.216354750096798" lon="9.518513549119234">
        <ele>3.02</ele>
        <time>2014-04-13T08:54:42Z</time>
      </trkpt>
      <trkpt lat="44.216339578852057" lon="9.518485218286514">
        <ele>3.02</ele>
        <time>2014-04-13T08:54:46Z</time>
      </trkpt>
      <trkpt lat="44.216309320181608" lon="9.518447751179338">
        <ele>3.02</ele>
        <time>2014-04-13T08:54:49Z</time>
      </trkpt>
      <trkpt lat="44.216293729841709" lon="9.518430735915899">
        <ele>3.02</ele>
        <time>2014-04-13T08:54:50Z</time>
      </trkpt>
      <trkpt lat="44.21616087667644" lon="9.518244741484523">
        <ele>2.06</ele>
        <time>2014-04-13T08:55:08Z</time>
      </trkpt>
      <trkpt lat="44.216119637712836" lon="9.518136950209737">
        <ele>2.06</ele>
        <time>2014-04-13T08:55:18Z</time>
      </trkpt>
      <trkpt lat="44.215992484241724" lon="9.517836039885879">
        <ele>1.58</ele>
        <time>2014-04-13T08:55:33Z</time>
      </trkpt>
      <trkpt lat="44.215976474806666" lon="9.517797064036131">
        <ele>1.58</ele>
        <time>2014-04-13T08:55:35Z</time>
      </trkpt>
      <trkpt lat="44.215962225571275" lon="9.517761776223779">
        <ele>1.58</ele>
        <time>2014-04-13T08:55:38Z</time>
      </trkpt>
      <trkpt lat="44.215952167287469" lon="9.517749454826117">
        <ele>1.58</ele>
        <time>2014-04-13T08:55:39Z</time>
      </trkpt>
      <trkpt lat="44.215864408761263" lon="9.517770074307919">
        <ele>1.58</ele>
        <time>2014-04-13T08:55:48Z</time>
      </trkpt>
      <trkpt lat="44.21574454754591" lon="9.517816342413425">
        <ele>1.58</ele>
        <time>2014-04-13T08:55:59Z</time>
      </trkpt>
      <trkpt lat="44.215733064338565" lon="9.517824137583375">
        <ele>1.58</ele>
        <time>2014-04-13T08:56:00Z</time>
      </trkpt>
      <trkpt lat="44.215565342456102" lon="9.518019016832113">
        <ele>1.58</ele>
        <time>2014-04-13T08:56:18Z</time>
      </trkpt>
      <trkpt lat="44.215534832328558" lon="9.518063189461827">
        <ele>1.58</ele>
        <time>2014-04-13T08:56:22Z</time>
      </trkpt>
      <trkpt lat="44.215522427111864" lon="9.518071822822094">
        <ele>1.58</ele>
        <time>2014-04-13T08:56:23Z</time>
      </trkpt>
      <trkpt lat="44.215511865913868" lon="9.518082719296217">
        <ele>1.58</ele>
        <time>2014-04-13T08:56:24Z</time>
      </trkpt>
      <trkpt lat="44.215501891449094" lon="9.518093867227435">
        <ele>1.58</ele>
        <time>2014-04-13T08:56:25Z</time>
      </trkpt>
      <trkpt lat="44.215490324422717" lon="9.518105434253812">
        <ele>1.58</ele>
        <time>2014-04-13T08:56:26Z</time>
      </trkpt>
      <trkpt lat="44.21547825448215" lon="9.518114738166332">
        <ele>1.58</ele>
        <time>2014-04-13T08:56:27Z</time>
      </trkpt>
      <trkpt lat="44.215442547574639" lon="9.518152289092541">
        <ele>1.58</ele>
        <time>2014-04-13T08:56:31Z</time>
      </trkpt>
      <trkpt lat="44.215407930314541" lon="9.518174668774009">
        <ele>1.58</ele>
        <time>2014-04-13T08:56:35Z</time>
      </trkpt>
      <trkpt lat="44.215394435450435" lon="9.518184894695878">
        <ele>1.58</ele>
        <time>2014-04-13T08:56:36Z</time>
      </trkpt>
      <trkpt lat="44.21538052149117" lon="9.518192522227764">
        <ele>1.58</ele>
        <time>2014-04-13T08:56:37Z</time>
      </trkpt>
      <trkpt lat="44.215366858989" lon="9.518194952979684">
        <ele>1.58</ele>
        <time>2014-04-13T08:56:38Z</time>
      </trkpt>
      <trkpt lat="44.215298043563962" lon="9.518213728442788">
        <ele>1.58</ele>
        <time>2014-04-13T08:56:48Z</time>
      </trkpt>
      <trkpt lat="44.215286141261458" lon="9.518208699300885">
        <ele>1.58</ele>
        <time>2014-04-13T08:56:49Z</time>
      </trkpt>
      <trkpt lat="44.21526376157999" lon="9.518191181123257">
        <ele>1.58</ele>
        <time>2014-04-13T08:56:51Z</time>
      </trkpt>
      <trkpt lat="44.215069720521569" lon="9.518073247745633">
        <ele>1.58</ele>
        <time>2014-04-13T08:57:06Z</time>
      </trkpt>
      <trkpt lat="44.214977100491524" lon="9.518027901649475">
        <ele>3.02</ele>
        <time>2014-04-13T08:57:16Z</time>
      </trkpt>
      <trkpt lat="44.214968970045447" lon="9.518043911084533">
        <ele>1.58</ele>
        <time>2014-04-13T08:57:21Z</time>
      </trkpt>
      <trkpt lat="44.214899986982346" lon="9.518181793391705">
        <ele>3.02</ele>
        <time>2014-04-13T08:57:37Z</time>
      </trkpt>
      <trkpt lat="44.214861178770661" lon="9.518308946862817">
        <ele>3.5</ele>
        <time>2014-04-13T08:57:52Z</time>
      </trkpt>
      <trkpt lat="44.214839553460479" lon="9.518367284908891">
        <ele>3.5</ele>
        <time>2014-04-13T08:57:57Z</time>
      </trkpt>
      <trkpt lat="44.214764786884189" lon="9.51860717497766">
        <ele>1.58</ele>
        <time>2014-04-13T08:58:14Z</time>
      </trkpt>
      <trkpt lat="44.214768474921584" lon="9.518615053966641">
        <ele>1.1</ele>
        <time>2014-04-13T08:58:15Z</time>
      </trkpt>
      <trkpt lat="44.214798314496875" lon="9.518633745610714">
        <ele>1.1</ele>
        <time>2014-04-13T08:58:18Z</time>
      </trkpt>
      <trkpt lat="44.214863106608391" lon="9.518719073385">
        <ele>0.62</ele>
        <time>2014-04-13T08:58:25Z</time>
      </trkpt>
      <trkpt lat="44.214882552623749" lon="9.518812783062458">
        <ele>0.14</ele>
        <time>2014-04-13T08:58:38Z</time>
      </trkpt>
      <trkpt lat="44.214917672798038" lon="9.518826110288501">
        <ele>0.14</ele>
        <time>2014-04-13T08:58:42Z</time>
      </trkpt>
      <trkpt lat="44.215206429362297" lon="9.519042782485485">
        <ele>0.62</ele>
        <time>2014-04-13T08:59:03Z</time>
      </trkpt>
      <trkpt lat="44.215388400480151" lon="9.519158955663443">
        <ele>0.62</ele>
        <time>2014-04-13T08:59:18Z</time>
      </trkpt>
      <trkpt lat="44.215547321364284" lon="9.519423237070441">
        <ele>0.62</ele>
        <time>2014-04-13T08:59:34Z</time>
      </trkpt>
      <trkpt lat="44.215517146512866" lon="9.51958978548646">
        <ele>2.06</ele>
        <time>2014-04-13T08:59:47Z</time>
      </trkpt>
      <trkpt lat="44.215490827336907" lon="9.519702857360244">
        <ele>2.54</ele>
        <time>2014-04-13T09:00:00Z</time>
      </trkpt>
      <trkpt lat="44.215520666912198" lon="9.519669162109494">
        <ele>3.5</ele>
        <time>2014-04-13T09:00:23Z</time>
      </trkpt>
      <trkpt lat="44.215495185926557" lon="9.519831603392959">
        <ele>3.5</ele>
        <time>2014-04-13T09:00:40Z</time>
      </trkpt>
      <trkpt lat="44.215493174269795" lon="9.519844427704811">
        <ele>3.5</ele>
        <time>2014-04-13T09:00:41Z</time>
      </trkpt>
      <trkpt lat="44.215490072965622" lon="9.519860772415996">
        <ele>3.5</ele>
        <time>2014-04-13T09:00:42Z</time>
      </trkpt>
      <trkpt lat="44.215461993589997" lon="9.519939478486776">
        <ele>3.98</ele>
        <time>2014-04-13T09:00:57Z</time>
      </trkpt>
      <trkpt lat="44.215417737141252" lon="9.520141649991274">
        <ele>4.46</ele>
        <time>2014-04-13T09:01:16Z</time>
      </trkpt>
      <trkpt lat="44.215300306677818" lon="9.520329488441348">
        <ele>7.35</ele>
        <time>2014-04-13T09:01:31Z</time>
      </trkpt>
      <trkpt lat="44.215241800993681" lon="9.52042437158525">
        <ele>8.310000000000001</ele>
        <time>2014-04-13T09:01:39Z</time>
      </trkpt>
      <trkpt lat="44.215032253414392" lon="9.520418252795935">
        <ele>8.310000000000001</ele>
        <time>2014-04-13T09:01:57Z</time>
      </trkpt>
      <trkpt lat="44.215041389688849" lon="9.52041951008141">
        <ele>7.35</ele>
        <time>2014-04-13T09:02:13Z</time>
      </trkpt>
      <trkpt lat="44.215039629489183" lon="9.520376091822982">
        <ele>7.35</ele>
        <time>2014-04-13T09:02:48Z</time>
      </trkpt>
      <trkpt lat="44.215052118524909" lon="9.520390005782247">
        <ele>7.35</ele>
        <time>2014-04-13T09:03:21Z</time>
      </trkpt>
      <trkpt lat="44.215091094374657" lon="9.520411211997271">
        <ele>7.35</ele>
        <time>2014-04-13T09:04:00Z</time>
      </trkpt>
      <trkpt lat="44.215054968371987" lon="9.520424120128155">
        <ele>7.83</ele>
        <time>2014-04-13T09:04:31Z</time>
      </trkpt>
      <trkpt lat="44.215039880946279" lon="9.52042386867106">
        <ele>8.310000000000001</ele>
        <time>2014-04-13T09:04:50Z</time>
      </trkpt>
      <trkpt lat="44.214969472959638" lon="9.520429903641343">
        <ele>9.75</ele>
        <time>2014-04-13T09:04:59Z</time>
      </trkpt>
      <trkpt lat="44.214949272572994" lon="9.520443566143513">
        <ele>8.310000000000001</ele>
        <time>2014-04-13T09:05:11Z</time>
      </trkpt>
      <trkpt lat="44.214922450482845" lon="9.520433340221643">
        <ele>9.75</ele>
        <time>2014-04-13T09:05:23Z</time>
      </trkpt>
      <trkpt lat="44.214909793809056" lon="9.520454546436667">
        <ele>9.75</ele>
        <time>2014-04-13T09:05:25Z</time>
      </trkpt>
      <trkpt lat="44.214858328923583" lon="9.520499054342508">
        <ele>9.75</ele>
        <time>2014-04-13T09:05:39Z</time>
      </trkpt>
      <trkpt lat="44.214852545410395" lon="9.52051623724401">
        <ele>10.23</ele>
        <time>2014-04-13T09:05:48Z</time>
      </trkpt>
      <trkpt lat="44.214829495176673" lon="9.520538281649351">
        <ele>12.630000000000001</ele>
        <time>2014-04-13T09:05:58Z</time>
      </trkpt>
      <trkpt lat="44.21479806303978" lon="9.520564433187246">
        <ele>15.039999999999999</ele>
        <time>2014-04-13T09:06:08Z</time>
      </trkpt>
      <trkpt lat="44.214805439114571" lon="9.520645318552852">
        <ele>17.440000000000001</ele>
        <time>2014-04-13T09:06:20Z</time>
      </trkpt>
      <trkpt lat="44.214741652831435" lon="9.520634086802602">
        <ele>20.32</ele>
        <time>2014-04-13T09:06:33Z</time>
      </trkpt>
      <trkpt lat="44.214722122997046" lon="9.520687060430646">
        <ele>23.690000000000001</ele>
        <time>2014-04-13T09:06:47Z</time>
      </trkpt>
      <trkpt lat="44.214698318392038" lon="9.520725281909108">
        <ele>25.609999999999999</ele>
        <time>2014-04-13T09:06:58Z</time>
      </trkpt>
      <trkpt lat="44.214653978124261" lon="9.520713882520795">
        <ele>28.5</ele>
        <time>2014-04-13T09:07:10Z</time>
      </trkpt>
      <trkpt lat="44.214488351717591" lon="9.520590081810951">
        <ele>31.379999999999999</ele>
        <time>2014-04-13T09:07:32Z</time>
      </trkpt>
      <trkpt lat="44.214326748624444" lon="9.520514057949185">
        <ele>33.780000000000001</ele>
        <time>2014-04-13T09:07:50Z</time>
      </trkpt>
      <trkpt lat="44.214302692562342" lon="9.520509531721473">
        <ele>34.740000000000002</ele>
        <time>2014-04-13T09:08:03Z</time>
      </trkpt>
      <trkpt lat="44.214343260973692" lon="9.520539287477732">
        <ele>34.740000000000002</ele>
        <time>2014-04-13T09:08:20Z</time>
      </trkpt>
      <trkpt lat="44.214404867962003" lon="9.520615478977561">
        <ele>37.630000000000003</ele>
        <time>2014-04-13T09:08:34Z</time>
      </trkpt>
      <trkpt lat="44.214320126920938" lon="9.520674152299762">
        <ele>40.509999999999998</ele>
        <time>2014-04-13T09:08:53Z</time>
      </trkpt>
      <trkpt lat="44.214295400306582" lon="9.520762749016285">
        <ele>43.880000000000003</ele>
        <time>2014-04-13T09:09:07Z</time>
      </trkpt>
      <trkpt lat="44.214295987039804" lon="9.520826283842325">
        <ele>47.240000000000002</ele>
        <time>2014-04-13T09:09:25Z</time>
      </trkpt>
      <trkpt lat="44.21423320658505" lon="9.520862745121121">
        <ele>48.68</ele>
        <time>2014-04-13T09:09:41Z</time>
      </trkpt>
      <trkpt lat="44.21424494124949" lon="9.520931644365192">
        <ele>51.090000000000003</ele>
        <time>2014-04-13T09:09:59Z</time>
      </trkpt>
      <trkpt lat="44.214203953742981" lon="9.520968608558178">
        <ele>53.009999999999998</ele>
        <time>2014-04-13T09:10:21Z</time>
      </trkpt>
      <trkpt lat="44.214202780276537" lon="9.521051924675703">
        <ele>56.369999999999997</ele>
        <time>2014-04-13T09:10:39Z</time>
      </trkpt>
      <trkpt lat="44.214235218241811" lon="9.521195255219936">
        <ele>59.740000000000002</ele>
        <time>2014-04-13T09:11:02Z</time>
      </trkpt>
      <trkpt lat="44.214189453050494" lon="9.521207995712757">
        <ele>61.18</ele>
        <time>2014-04-13T09:11:21Z</time>
      </trkpt>
      <trkpt lat="44.214144693687558" lon="9.521159213036299">
        <ele>62.619999999999997</ele>
        <time>2014-04-13T09:11:40Z</time>
      </trkpt>
      <trkpt lat="44.214112339541316" lon="9.521165331825614">
        <ele>63.579999999999998</ele>
        <time>2014-04-13T09:11:59Z</time>
      </trkpt>
      <trkpt lat="44.214062886312604" lon="9.521171702072024">
        <ele>65.989999999999995</ele>
        <time>2014-04-13T09:12:19Z</time>
      </trkpt>
      <trkpt lat="44.21405341476202" lon="9.521271027624607">
        <ele>67.909999999999997</ele>
        <time>2014-04-13T09:12:40Z</time>
      </trkpt>
      <trkpt lat="44.214088199660182" lon="9.521322324872017">
        <ele>69.829999999999998</ele>
        <time>2014-04-13T09:13:02Z</time>
      </trkpt>
      <trkpt lat="44.214017456397414" lon="9.521390134468675">
        <ele>73.200000000000003</ele>
        <time>2014-04-13T09:13:20Z</time>
      </trkpt>
      <trkpt lat="44.213976887986064" lon="9.521422320976853">
        <ele>74.159999999999997</ele>
        <time>2014-04-13T09:13:39Z</time>
      </trkpt>
      <trkpt lat="44.214010247960687" lon="9.521475797519088">
        <ele>76.079999999999998</ele>
        <time>2014-04-13T09:14:00Z</time>
      </trkpt>
      <trkpt lat="44.214041931554675" lon="9.521531537175179">
        <ele>79.450000000000003</ele>
        <time>2014-04-13T09:14:13Z</time>
      </trkpt>
      <trkpt lat="44.214067915454507" lon="9.521586773917079">
        <ele>79.930000000000007</ele>
        <time>2014-04-13T09:14:24Z</time>
      </trkpt>
      <trkpt lat="44.214089959859848" lon="9.521678471937776">
        <ele>82.329999999999998</ele>
        <time>2014-04-13T09:14:39Z</time>
      </trkpt>
      <trkpt lat="44.214043524116278" lon="9.521679142490029">
        <ele>84.25</ele>
        <time>2014-04-13T09:14:55Z</time>
      </trkpt>
      <trkpt lat="44.214019887149334" lon="9.521681405603886">
        <ele>85.209999999999994</ele>
        <time>2014-04-13T09:15:10Z</time>
      </trkpt>
      <trkpt lat="44.213990466669202" lon="9.521724237129092">
        <ele>86.180000000000007</ele>
        <time>2014-04-13T09:15:30Z</time>
      </trkpt>
      <trkpt lat="44.214010331779718" lon="9.521817108616233">
        <ele>88.579999999999998</ele>
        <time>2014-04-13T09:15:48Z</time>
      </trkpt>
      <trkpt lat="44.213965488597751" lon="9.521876536309719">
        <ele>91.459999999999994</ele>
        <time>2014-04-13T09:16:05Z</time>
      </trkpt>
      <trkpt lat="44.213912850245833" lon="9.521911488845944">
        <ele>92.420000000000002</ele>
        <time>2014-04-13T09:16:16Z</time>
      </trkpt>
      <trkpt lat="44.213897259905934" lon="9.521942920982838">
        <ele>93.390000000000001</ele>
        <time>2014-04-13T09:16:32Z</time>
      </trkpt>
      <trkpt lat="44.213901115581393" lon="9.522013999521732">
        <ele>93.870000000000005</ele>
        <time>2014-04-13T09:16:47Z</time>
      </trkpt>
      <trkpt lat="44.213920561596751" lon="9.522076612338424">
        <ele>96.75</ele>
        <time>2014-04-13T09:17:05Z</time>
      </trkpt>
      <trkpt lat="44.21393564902246" lon="9.522102093324065">
        <ele>96.75</ele>
        <time>2014-04-13T09:17:33Z</time>
      </trkpt>
      <trkpt lat="44.213953837752342" lon="9.522225810214877">
        <ele>99.629999999999995</ele>
        <time>2014-04-13T09:17:51Z</time>
      </trkpt>
      <trkpt lat="44.213986024260521" lon="9.522293787449598">
        <ele>102.04000000000001</ele>
        <time>2014-04-13T09:18:01Z</time>
      </trkpt>
      <trkpt lat="44.213976301252842" lon="9.522463018074632">
        <ele>104.92</ele>
        <time>2014-04-13T09:18:16Z</time>
      </trkpt>
      <trkpt lat="44.213991640135646" lon="9.522532671689987">
        <ele>106.84</ele>
        <time>2014-04-13T09:18:29Z</time>
      </trkpt>
      <trkpt lat="44.214017037302256" lon="9.522576676681638">
        <ele>107.81</ele>
        <time>2014-04-13T09:18:49Z</time>
      </trkpt>
      <trkpt lat="44.214073866605759" lon="9.522671811282635">
        <ele>111.17</ele>
        <time>2014-04-13T09:19:06Z</time>
      </trkpt>
      <trkpt lat="44.214084343984723" lon="9.522732580080628">
        <ele>114.05</ele>
        <time>2014-04-13T09:19:16Z</time>
      </trkpt>
      <trkpt lat="44.214104963466525" lon="9.522748170420528">
        <ele>114.05</ele>
        <time>2014-04-13T09:19:33Z</time>
      </trkpt>
      <trkpt lat="44.214105047285557" lon="9.522831737995148">
        <ele>115.01000000000001</ele>
        <time>2014-04-13T09:19:49Z</time>
      </trkpt>
      <trkpt lat="44.214084008708596" lon="9.522976661100984">
        <ele>118.38</ele>
        <time>2014-04-13T09:20:09Z</time>
      </trkpt>
      <trkpt lat="44.214097000658512" lon="9.523057462647557">
        <ele>119.34</ele>
        <time>2014-04-13T09:20:16Z</time>
      </trkpt>
      <trkpt lat="44.214121894910932" lon="9.523150082677603">
        <ele>121.26000000000001</ele>
        <time>2014-04-13T09:20:26Z</time>
      </trkpt>
      <trkpt lat="44.214105550199747" lon="9.523245804011822">
        <ele>124.15000000000001</ele>
        <time>2014-04-13T09:20:42Z</time>
      </trkpt>
      <trkpt lat="44.214106136932969" lon="9.523277739062905">
        <ele>124.63</ele>
        <time>2014-04-13T09:20:57Z</time>
      </trkpt>
      <trkpt lat="44.21412767842412" lon="9.523390391841531">
        <ele>127.03</ele>
        <time>2014-04-13T09:21:12Z</time>
      </trkpt>
      <trkpt lat="44.214186770841479" lon="9.523497093468905">
        <ele>128.94999999999999</ele>
        <time>2014-04-13T09:21:24Z</time>
      </trkpt>
      <trkpt lat="44.214220382273197" lon="9.523588288575411">
        <ele>131.36000000000001</ele>
        <time>2014-04-13T09:21:35Z</time>
      </trkpt>
      <trkpt lat="44.214226081967354" lon="9.523685518652201">
        <ele>134.72</ele>
        <time>2014-04-13T09:21:47Z</time>
      </trkpt>
      <trkpt lat="44.214260699227452" lon="9.523771097883582">
        <ele>136.16</ele>
        <time>2014-04-13T09:22:02Z</time>
      </trkpt>
      <trkpt lat="44.214323312044144" lon="9.523906633257866">
        <ele>139.53</ele>
        <time>2014-04-13T09:22:20Z</time>
      </trkpt>
      <trkpt lat="44.214365053921938" lon="9.523970251902938">
        <ele>140.97</ele>
        <time>2014-04-13T09:22:38Z</time>
      </trkpt>
      <trkpt lat="44.214406125247478" lon="9.524060189723969">
        <ele>142.88999999999999</ele>
        <time>2014-04-13T09:22:54Z</time>
      </trkpt>
      <trkpt lat="44.214433869346976" lon="9.524095393717289">
        <ele>145.78</ele>
        <time>2014-04-13T09:23:09Z</time>
      </trkpt>
      <trkpt lat="44.214463289827108" lon="9.524085251614451">
        <ele>146.25999999999999</ele>
        <time>2014-04-13T09:23:29Z</time>
      </trkpt>
      <trkpt lat="44.214467396959662" lon="9.524094304069877">
        <ele>146.25999999999999</ele>
        <time>2014-04-13T09:23:53Z</time>
      </trkpt>
      <trkpt lat="44.214483071118593" lon="9.524112325161696">
        <ele>146.74000000000001</ele>
        <time>2014-04-13T09:24:05Z</time>
      </trkpt>
      <trkpt lat="44.214485418051481" lon="9.524220200255513">
        <ele>148.66</ele>
        <time>2014-04-13T09:24:17Z</time>
      </trkpt>
      <trkpt lat="44.21450394205749" lon="9.524293458089232">
        <ele>150.09999999999999</ele>
        <time>2014-04-13T09:24:27Z</time>
      </trkpt>
      <trkpt lat="44.214573847129941" lon="9.524333439767361">
        <ele>152.50999999999999</ele>
        <time>2014-04-13T09:24:40Z</time>
      </trkpt>
      <trkpt lat="44.214569320902228" lon="9.524408457800746">
        <ele>153.94999999999999</ele>
        <time>2014-04-13T09:24:51Z</time>
      </trkpt>
      <trkpt lat="44.214604441076517" lon="9.524482302367687">
        <ele>157.31</ele>
        <time>2014-04-13T09:25:02Z</time>
      </trkpt>
      <trkpt lat="44.214636208489537" lon="9.52454692684114">
        <ele>159.24000000000001</ele>
        <time>2014-04-13T09:25:12Z</time>
      </trkpt>
      <trkpt lat="44.214654983952641" lon="9.524589087814093">
        <ele>159.24000000000001</ele>
        <time>2014-04-13T09:25:22Z</time>
      </trkpt>
      <trkpt lat="44.214645763859153" lon="9.524592189118266">
        <ele>159.24000000000001</ele>
        <time>2014-04-13T09:25:36Z</time>
      </trkpt>
      <trkpt lat="44.214653139933944" lon="9.524629320949316">
        <ele>160.19999999999999</ele>
        <time>2014-04-13T09:25:49Z</time>
      </trkpt>
      <trkpt lat="44.214664287865162" lon="9.524727305397391">
        <ele>162.59999999999999</ele>
        <time>2014-04-13T09:26:01Z</time>
      </trkpt>
      <trkpt lat="44.214667724445462" lon="9.52473845332861">
        <ele>162.59999999999999</ele>
        <time>2014-04-13T09:26:02Z</time>
      </trkpt>
      <trkpt lat="44.214678620919585" lon="9.524770136922598">
        <ele>163.08000000000001</ele>
        <time>2014-04-13T09:26:05Z</time>
      </trkpt>
      <trkpt lat="44.214691277593374" lon="9.524842556566">
        <ele>164.03999999999999</ele>
        <time>2014-04-13T09:26:11Z</time>
      </trkpt>
      <trkpt lat="44.21470426954329" lon="9.524863343685865">
        <ele>164.03999999999999</ele>
        <time>2014-04-13T09:26:13Z</time>
      </trkpt>
      <trkpt lat="44.214731594547629" lon="9.524935847148299">
        <ele>165.96000000000001</ele>
        <time>2014-04-13T09:26:28Z</time>
      </trkpt>
      <trkpt lat="44.214763026684523" lon="9.524999046698213">
        <ele>168.37</ele>
        <time>2014-04-13T09:26:42Z</time>
      </trkpt>
      <trkpt lat="44.214797141030431" lon="9.525066940113902">
        <ele>171.25</ele>
        <time>2014-04-13T09:26:58Z</time>
      </trkpt>
      <trkpt lat="44.214854976162314" lon="9.525119410827756">
        <ele>171.72999999999999</ele>
        <time>2014-04-13T09:27:21Z</time>
      </trkpt>
      <trkpt lat="44.214918594807386" lon="9.525119159370661">
        <ele>173.66</ele>
        <time>2014-04-13T09:27:39Z</time>
      </trkpt>
      <trkpt lat="44.214975088834763" lon="9.525182023644447">
        <ele>175.58000000000001</ele>
        <time>2014-04-13T09:27:57Z</time>
      </trkpt>
      <trkpt lat="44.214963521808386" lon="9.525243546813726">
        <ele>178.46000000000001</ele>
        <time>2014-04-13T09:28:16Z</time>
      </trkpt>
      <trkpt lat="44.214951284229755" lon="9.525283863767982">
        <ele>179.41999999999999</ele>
        <time>2014-04-13T09:28:32Z</time>
      </trkpt>
      <trkpt lat="44.21496712602675" lon="9.525390565395355">
        <ele>182.78999999999999</ele>
        <time>2014-04-13T09:28:46Z</time>
      </trkpt>
      <trkpt lat="44.215032169595361" lon="9.525482263416052">
        <ele>185.66999999999999</ele>
        <time>2014-04-13T09:29:01Z</time>
      </trkpt>
      <trkpt lat="44.215048933401704" lon="9.525618301704526">
        <ele>189.03999999999999</ele>
        <time>2014-04-13T09:29:19Z</time>
      </trkpt>
      <trkpt lat="44.215074079111218" lon="9.525731960311532">
        <ele>191.91999999999999</ele>
        <time>2014-04-13T09:29:34Z</time>
      </trkpt>
      <trkpt lat="44.215101068839431" lon="9.525826843455434">
        <ele>193.36000000000001</ele>
        <time>2014-04-13T09:29:49Z</time>
      </trkpt>
      <trkpt lat="44.215132333338261" lon="9.525859281420708">
        <ele>193.84</ele>
        <time>2014-04-13T09:29:55Z</time>
      </trkpt>
      <trkpt lat="44.215207351371646" lon="9.525858862325549">
        <ele>196.72999999999999</ele>
        <time>2014-04-13T09:30:09Z</time>
      </trkpt>
      <trkpt lat="44.215332074090838" lon="9.52594880014658">
        <ele>199.13</ele>
        <time>2014-04-13T09:30:33Z</time>
      </trkpt>
      <trkpt lat="44.215374737977982" lon="9.526018286123872">
        <ele>202.49000000000001</ele>
        <time>2014-04-13T09:30:53Z</time>
      </trkpt>
      <trkpt lat="44.215401224792004" lon="9.52610906213522">
        <ele>205.38</ele>
        <time>2014-04-13T09:31:09Z</time>
      </trkpt>
      <trkpt lat="44.215460903942585" lon="9.52619363553822">
        <ele>208.74000000000001</ele>
        <time>2014-04-13T09:31:27Z</time>
      </trkpt>
      <trkpt lat="44.215525109320879" lon="9.526271168142557">
        <ele>212.11000000000001</ele>
        <time>2014-04-13T09:31:45Z</time>
      </trkpt>
      <trkpt lat="44.215620076283813" lon="9.52636462636292">
        <ele>215.47</ele>
        <time>2014-04-13T09:32:02Z</time>
      </trkpt>
      <trkpt lat="44.215743709355593" lon="9.52641986310482">
        <ele>218.84</ele>
        <time>2014-04-13T09:32:26Z</time>
      </trkpt>
      <trkpt lat="44.215798527002335" lon="9.526506112888455">
        <ele>222.19999999999999</ele>
        <time>2014-04-13T09:32:48Z</time>
      </trkpt>
      <trkpt lat="44.215859295800328" lon="9.526612395420671">
        <ele>225.09</ele>
        <time>2014-04-13T09:33:08Z</time>
      </trkpt>
      <trkpt lat="44.215890057384968" lon="9.526617424562573">
        <ele>226.05000000000001</ele>
        <time>2014-04-13T09:33:14Z</time>
      </trkpt>
      <trkpt lat="44.215927608311176" lon="9.526719683781266">
        <ele>228.44999999999999</ele>
        <time>2014-04-13T09:33:27Z</time>
      </trkpt>
      <trkpt lat="44.215950407087803" lon="9.526845077052712">
        <ele>230.84999999999999</ele>
        <time>2014-04-13T09:33:42Z</time>
      </trkpt>
      <trkpt lat="44.215948982164264" lon="9.526880532503128">
        <ele>230.84999999999999</ele>
        <time>2014-04-13T09:33:48Z</time>
      </trkpt>
      <trkpt lat="44.215954095125198" lon="9.52701891772449">
        <ele>233.74000000000001</ele>
        <time>2014-04-13T09:34:03Z</time>
      </trkpt>
      <trkpt lat="44.21596348285675" lon="9.527029311284423">
        <ele>234.22</ele>
        <time>2014-04-13T09:34:05Z</time>
      </trkpt>
      <trkpt lat="44.216005895286798" lon="9.52710977755487">
        <ele>235.18000000000001</ele>
        <time>2014-04-13T09:34:18Z</time>
      </trkpt>
      <trkpt lat="44.21604068018496" lon="9.52722460962832">
        <ele>238.06</ele>
        <time>2014-04-13T09:34:31Z</time>
      </trkpt>
      <trkpt lat="44.216023748740554" lon="9.527386631816626">
        <ele>240.94999999999999</ele>
        <time>2014-04-13T09:34:47Z</time>
      </trkpt>
      <trkpt lat="44.216008326038718" lon="9.527589892968535">
        <ele>244.78999999999999</ele>
        <time>2014-04-13T09:35:08Z</time>
      </trkpt>
      <trkpt lat="44.21599768102169" lon="9.52769516967237">
        <ele>246.72</ele>
        <time>2014-04-13T09:35:27Z</time>
      </trkpt>
      <trkpt lat="44.215991646051407" lon="9.527804050594568">
        <ele>249.59999999999999</ele>
        <time>2014-04-13T09:35:44Z</time>
      </trkpt>
      <trkpt lat="44.215986784547567" lon="9.527971353381872">
        <ele>252.47999999999999</ele>
        <time>2014-04-13T09:36:08Z</time>
      </trkpt>
      <trkpt lat="44.216039003804326" lon="9.528022399172187">
        <ele>255.84999999999999</ele>
        <time>2014-04-13T09:36:32Z</time>
      </trkpt>
      <trkpt lat="44.216162553057075" lon="9.528079647570849">
        <ele>258.73000000000002</ele>
        <time>2014-04-13T09:36:54Z</time>
      </trkpt>
      <trkpt lat="44.216326167806983" lon="9.528281483799219">
        <ele>261.13999999999999</ele>
        <time>2014-04-13T09:37:15Z</time>
      </trkpt>
      <trkpt lat="44.216428259387612" lon="9.528460269793868">
        <ele>263.54000000000002</ele>
        <time>2014-04-13T09:37:36Z</time>
      </trkpt>
      <trkpt lat="44.216451309621334" lon="9.528599157929421">
        <ele>266.89999999999998</ele>
        <time>2014-04-13T09:37:56Z</time>
      </trkpt>
      <trkpt lat="44.216475449502468" lon="9.528639055788517">
        <ele>267.38</ele>
        <time>2014-04-13T09:38:03Z</time>
      </trkpt>
      <trkpt lat="44.216525573283434" lon="9.528788756579161">
        <ele>268.82999999999998</ele>
        <time>2014-04-13T09:38:19Z</time>
      </trkpt>
      <trkpt lat="44.216537643224001" lon="9.528995873406529">
        <ele>271.23000000000002</ele>
        <time>2014-04-13T09:38:40Z</time>
      </trkpt>
      <trkpt lat="44.216517945751548" lon="9.52910341322422">
        <ele>272.19</ele>
        <time>2014-04-13T09:38:59Z</time>
      </trkpt>
      <trkpt lat="44.21649313531816" lon="9.52922067604959">
        <ele>275.56</ele>
        <time>2014-04-13T09:39:16Z</time>
      </trkpt>
      <trkpt lat="44.216408813372254" lon="9.529337184503675">
        <ele>278.44</ele>
        <time>2014-04-13T09:39:33Z</time>
      </trkpt>
      <trkpt lat="44.216351397335529" lon="9.529483700171113">
        <ele>280.83999999999997</ele>
        <time>2014-04-13T09:39:50Z</time>
      </trkpt>
      <trkpt lat="44.216304877772927" lon="9.529627449810505">
        <ele>284.20999999999998</ele>
        <time>2014-04-13T09:40:07Z</time>
      </trkpt>
      <trkpt lat="44.216292891651392" lon="9.529820568859577">
        <ele>286.13</ele>
        <time>2014-04-13T09:40:28Z</time>
      </trkpt>
      <trkpt lat="44.216115279123187" lon="9.52980749309063">
        <ele>289.00999999999999</ele>
        <time>2014-04-13T09:40:49Z</time>
      </trkpt>
      <trkpt lat="44.215943869203329" lon="9.529764242470264">
        <ele>290.94</ele>
        <time>2014-04-13T09:41:08Z</time>
      </trkpt>
      <trkpt lat="44.215912437066436" lon="9.529772037640214">
        <ele>290.94</ele>
        <time>2014-04-13T09:41:12Z</time>
      </trkpt>
      <trkpt lat="44.21583054587245" lon="9.529785113409162">
        <ele>291.89999999999998</ele>
        <time>2014-04-13T09:41:21Z</time>
      </trkpt>
      <trkpt lat="44.215726694092155" lon="9.529828364029527">
        <ele>293.33999999999997</ele>
        <time>2014-04-13T09:41:36Z</time>
      </trkpt>
      <trkpt lat="44.215711858123541" lon="9.529818808659911">
        <ele>293.33999999999997</ele>
        <time>2014-04-13T09:41:39Z</time>
      </trkpt>
      <trkpt lat="44.215600797906518" lon="9.529770612716675">
        <ele>290.94</ele>
        <time>2014-04-13T09:41:53Z</time>
      </trkpt>
      <trkpt lat="44.215587889775634" lon="9.529805649071932">
        <ele>290.94</ele>
        <time>2014-04-13T09:42:08Z</time>
      </trkpt>
      <trkpt lat="44.215565007179976" lon="9.529796428978443">
        <ele>290.94</ele>
        <time>2014-04-13T09:42:23Z</time>
      </trkpt>
      <trkpt lat="44.215528210625052" lon="9.529818389564753">
        <ele>290.94</ele>
        <time>2014-04-13T09:42:38Z</time>
      </trkpt>
      <trkpt lat="44.215536927804351" lon="9.529812438413501">
        <ele>290.94</ele>
        <time>2014-04-13T09:42:57Z</time>
      </trkpt>
      <trkpt lat="44.21552611514926" lon="9.529834231361747">
        <ele>290.45999999999998</ele>
        <time>2014-04-13T09:43:18Z</time>
      </trkpt>
      <trkpt lat="44.215534832328558" lon="9.529837751761079">
        <ele>290.45999999999998</ele>
        <time>2014-04-13T09:43:41Z</time>
      </trkpt>
      <trkpt lat="44.215536508709192" lon="9.529823083430529">
        <ele>290.45999999999998</ele>
        <time>2014-04-13T09:43:56Z</time>
      </trkpt>
      <trkpt lat="44.215538017451763" lon="9.529822329059243">
        <ele>290.45999999999998</ele>
        <time>2014-04-13T09:44:14Z</time>
      </trkpt>
      <trkpt lat="44.215551847591996" lon="9.529834818094969">
        <ele>290.45999999999998</ele>
        <time>2014-04-13T09:44:28Z</time>
      </trkpt>
      <trkpt lat="44.215559056028724" lon="9.529823334887624">
        <ele>290.45999999999998</ele>
        <time>2014-04-13T09:44:48Z</time>
      </trkpt>
      <trkpt lat="44.215571042150259" lon="9.529811264947057">
        <ele>290.45999999999998</ele>
        <time>2014-04-13T09:45:02Z</time>
      </trkpt>
      <trkpt lat="44.215551679953933" lon="9.529809001833201">
        <ele>290.45999999999998</ele>
        <time>2014-04-13T09:45:16Z</time>
      </trkpt>
      <trkpt lat="44.215541202574968" lon="9.529821742326021">
        <ele>291.89999999999998</ele>
        <time>2014-04-13T09:45:38Z</time>
      </trkpt>
      <trkpt lat="44.215515805408359" lon="9.529845546931028">
        <ele>291.89999999999998</ele>
        <time>2014-04-13T09:46:04Z</time>
      </trkpt>
      <trkpt lat="44.215493509545922" lon="9.529854264110327">
        <ele>291.89999999999998</ele>
        <time>2014-04-13T09:46:06Z</time>
      </trkpt>
      <trkpt lat="44.215336684137583" lon="9.529883852228522">
        <ele>291.89999999999998</ele>
        <time>2014-04-13T09:46:21Z</time>
      </trkpt>
      <trkpt lat="44.215211374685168" lon="9.52992869541049">
        <ele>291.89999999999998</ele>
        <time>2014-04-13T09:46:34Z</time>
      </trkpt>
      <trkpt lat="44.215161334723234" lon="9.529958367347717">
        <ele>291.89999999999998</ele>
        <time>2014-04-13T09:46:42Z</time>
      </trkpt>
      <trkpt lat="44.215121688321233" lon="9.529971778392792">
        <ele>291.89999999999998</ele>
        <time>2014-04-13T09:46:46Z</time>
      </trkpt>
      <trkpt lat="44.215070558711886" lon="9.530004216358066">
        <ele>291.89999999999998</ele>
        <time>2014-04-13T09:47:02Z</time>
      </trkpt>
      <trkpt lat="44.214972322806716" lon="9.530040929093957">
        <ele>292.38</ele>
        <time>2014-04-13T09:47:22Z</time>
      </trkpt>
      <trkpt lat="44.214969975873828" lon="9.53002299182117">
        <ele>291.89999999999998</ele>
        <time>2014-04-13T09:47:35Z</time>
      </trkpt>
      <trkpt lat="44.214954888448119" lon="9.530019387602806">
        <ele>291.89999999999998</ele>
        <time>2014-04-13T09:47:47Z</time>
      </trkpt>
      <trkpt lat="44.214964276179671" lon="9.530029278248549">
        <ele>290.94</ele>
        <time>2014-04-13T09:48:08Z</time>
      </trkpt>
      <trkpt lat="44.214951200410724" lon="9.530020393431187">
        <ele>290.94</ele>
        <time>2014-04-13T09:48:25Z</time>
      </trkpt>
      <trkpt lat="44.214949524030089" lon="9.530037576332688">
        <ele>290.94</ele>
        <time>2014-04-13T09:48:44Z</time>
      </trkpt>
      <trkpt lat="44.214947680011392" lon="9.530037073418498">
        <ele>290.94</ele>
        <time>2014-04-13T09:49:01Z</time>
      </trkpt>
      <trkpt lat="44.214945584535599" lon="9.53001519665122">
        <ele>291.89999999999998</ele>
        <time>2014-04-13T09:49:18Z</time>
      </trkpt>
      <trkpt lat="44.21495103277266" lon="9.530007904395461">
        <ele>291.89999999999998</ele>
        <time>2014-04-13T09:49:33Z</time>
      </trkpt>
      <trkpt lat="44.214958744123578" lon="9.530017711222172">
        <ele>291.89999999999998</ele>
        <time>2014-04-13T09:49:53Z</time>
      </trkpt>
      <trkpt lat="44.214957989752293" lon="9.530019052326679">
        <ele>291.89999999999998</ele>
        <time>2014-04-13T09:50:16Z</time>
      </trkpt>
      <trkpt lat="44.214957570657134" lon="9.530010670423508">
        <ele>291.89999999999998</ele>
        <time>2014-04-13T09:50:32Z</time>
      </trkpt>
      <trkpt lat="44.214952876791358" lon="9.530020477250218">
        <ele>291.89999999999998</ele>
        <time>2014-04-13T09:50:55Z</time>
      </trkpt>
      <trkpt lat="44.21496570110321" lon="9.530011173337698">
        <ele>292.38</ele>
        <time>2014-04-13T09:51:16Z</time>
      </trkpt>
      <trkpt lat="44.214947763830423" lon="9.530018549412489">
        <ele>292.86000000000001</ele>
        <time>2014-04-13T09:51:46Z</time>
      </trkpt>
      <trkpt lat="44.214948602020741" lon="9.529991978779435">
        <ele>292.86000000000001</ele>
        <time>2014-04-13T09:52:18Z</time>
      </trkpt>
      <trkpt lat="44.214967796579003" lon="9.529986279085279">
        <ele>292.86000000000001</ele>
        <time>2014-04-13T09:52:39Z</time>
      </trkpt>
      <trkpt lat="44.214987996965647" lon="9.529998600482941">
        <ele>292.86000000000001</ele>
        <time>2014-04-13T09:53:01Z</time>
      </trkpt>
      <trkpt lat="44.214980872347951" lon="9.530008491128683">
        <ele>292.86000000000001</ele>
        <time>2014-04-13T09:53:28Z</time>
      </trkpt>
      <trkpt lat="44.214962935075164" lon="9.530001450330019">
        <ele>292.86000000000001</ele>
        <time>2014-04-13T09:53:48Z</time>
      </trkpt>
      <trkpt lat="44.214978525415063" lon="9.529966246336699">
        <ele>292.86000000000001</ele>
        <time>2014-04-13T09:53:56Z</time>
      </trkpt>
      <trkpt lat="44.215024877339602" lon="9.529970772564411">
        <ele>292.86000000000001</ele>
        <time>2014-04-13T09:54:10Z</time>
      </trkpt>
      <trkpt lat="44.215016579255462" lon="9.529990218579769">
        <ele>293.33999999999997</ele>
        <time>2014-04-13T09:54:32Z</time>
      </trkpt>
      <trkpt lat="44.214937370270491" lon="9.530036905780435">
        <ele>291.89999999999998</ele>
        <time>2014-04-13T09:54:53Z</time>
      </trkpt>
      <trkpt lat="44.214851707220078" lon="9.530085688456893">
        <ele>292.86000000000001</ele>
        <time>2014-04-13T09:55:10Z</time>
      </trkpt>
      <trkpt lat="44.214827651157975" lon="9.530081329867244">
        <ele>291.42000000000002</ele>
        <time>2014-04-13T09:55:14Z</time>
      </trkpt>
      <trkpt lat="44.214734025299549" lon="9.530111839994788">
        <ele>290.94</ele>
        <time>2014-04-13T09:55:32Z</time>
      </trkpt>
      <trkpt lat="44.214580217376351" lon="9.530148385092616">
        <ele>289.97000000000003</ele>
        <time>2014-04-13T09:55:52Z</time>
      </trkpt>
      <trkpt lat="44.214450716972351" lon="9.530184594914317">
        <ele>289.00999999999999</ele>
        <time>2014-04-13T09:56:08Z</time>
      </trkpt>
      <trkpt lat="44.214270003139973" lon="9.530225917696953">
        <ele>286.61000000000001</ele>
        <time>2014-04-13T09:56:27Z</time>
      </trkpt>
      <trkpt lat="44.214082332327962" lon="9.5302580203861">
        <ele>284.69</ele>
        <time>2014-04-13T09:56:45Z</time>
      </trkpt>
      <trkpt lat="44.214041596278548" lon="9.530260786414146">
        <ele>284.20999999999998</ele>
        <time>2014-04-13T09:57:04Z</time>
      </trkpt>
      <trkpt lat="44.214060707017779" lon="9.530253410339356">
        <ele>284.20999999999998</ele>
        <time>2014-04-13T09:57:35Z</time>
      </trkpt>
      <trkpt lat="44.214008320122957" lon="9.530230611562729">
        <ele>283.73000000000002</ele>
        <time>2014-04-13T09:57:41Z</time>
      </trkpt>
      <trkpt lat="44.213837664574385" lon="9.53014662489295">
        <ele>281.80000000000001</ele>
        <time>2014-04-13T09:57:57Z</time>
      </trkpt>
      <trkpt lat="44.213830623775721" lon="9.530148636549711">
        <ele>281.31999999999999</ele>
        <time>2014-04-13T09:58:14Z</time>
      </trkpt>
      <trkpt lat="44.213662566617131" lon="9.530088119208813">
        <ele>278.92000000000002</ele>
        <time>2014-04-13T09:58:29Z</time>
      </trkpt>
      <trkpt lat="44.213505573570728" lon="9.530027769505978">
        <ele>276.51999999999998</ele>
        <time>2014-04-13T09:58:40Z</time>
      </trkpt>
      <trkpt lat="44.213501047343016" lon="9.530029948800802">
        <ele>276.51999999999998</ele>
        <time>2014-04-13T09:58:41Z</time>
      </trkpt>
      <trkpt lat="44.213345730677247" lon="9.530168501660228">
        <ele>274.11000000000001</ele>
        <time>2014-04-13T09:58:55Z</time>
      </trkpt>
      <trkpt lat="44.213225785642862" lon="9.530305797234178">
        <ele>271.23000000000002</ele>
        <time>2014-04-13T09:59:07Z</time>
      </trkpt>
      <trkpt lat="44.213194688782096" lon="9.530187444761396">
        <ele>269.31</ele>
        <time>2014-04-13T09:59:17Z</time>
      </trkpt>
      <trkpt lat="44.213264593854547" lon="9.530034139752388">
        <ele>267.38</ele>
        <time>2014-04-13T09:59:29Z</time>
      </trkpt>
      <trkpt lat="44.21323349699378" lon="9.52988913282752">
        <ele>265.94</ele>
        <time>2014-04-13T09:59:36Z</time>
      </trkpt>
      <trkpt lat="44.213192258030176" lon="9.529857449233532">
        <ele>264.5</ele>
        <time>2014-04-13T09:59:40Z</time>
      </trkpt>
      <trkpt lat="44.213186809793115" lon="9.529864070937038">
        <ele>264.5</ele>
        <time>2014-04-13T09:59:41Z</time>
      </trkpt>
      <trkpt lat="44.213136518374085" lon="9.529818389564753">
        <ele>263.54000000000002</ele>
        <time>2014-04-13T09:59:46Z</time>
      </trkpt>
      <trkpt lat="44.21301213093102" lon="9.529669275507331">
        <ele>260.17000000000002</ele>
        <time>2014-04-13T09:59:57Z</time>
      </trkpt>
      <trkpt lat="44.21294323168695" lon="9.529436342418194">
        <ele>257.29000000000002</ele>
        <time>2014-04-13T10:00:10Z</time>
      </trkpt>
      <trkpt lat="44.212931161746383" lon="9.529331065714359">
        <ele>255.37</ele>
        <time>2014-04-13T10:00:16Z</time>
      </trkpt>
      <trkpt lat="44.212946332991123" lon="9.529111040756106">
        <ele>252</ele>
        <time>2014-04-13T10:00:30Z</time>
      </trkpt>
      <trkpt lat="44.212968125939369" lon="9.529037363827229">
        <ele>252</ele>
        <time>2014-04-13T10:00:43Z</time>
      </trkpt>
      <trkpt lat="44.212923282757401" lon="9.52905940823257">
        <ele>252</ele>
        <time>2014-04-13T10:01:01Z</time>
      </trkpt>
      <trkpt lat="44.212813898921013" lon="9.52911464497447">
        <ele>251.52000000000001</ele>
        <time>2014-04-13T10:01:12Z</time>
      </trkpt>
      <trkpt lat="44.212785148993134" lon="9.529278259724379">
        <ele>250.08000000000001</ele>
        <time>2014-04-13T10:01:23Z</time>
      </trkpt>
      <trkpt lat="44.21278883703053" lon="9.529305249452591">
        <ele>252.47999999999999</ele>
        <time>2014-04-13T10:01:25Z</time>
      </trkpt>
      <trkpt lat="44.212792608886957" lon="9.529348751530051">
        <ele>250.56</ele>
        <time>2014-04-13T10:01:28Z</time>
      </trkpt>
      <trkpt lat="44.212793698534369" lon="9.529522759839892">
        <ele>249.59999999999999</ele>
        <time>2014-04-13T10:01:40Z</time>
      </trkpt>
      <trkpt lat="44.212817251682281" lon="9.529583780094981">
        <ele>249.59999999999999</ele>
        <time>2014-04-13T10:02:01Z</time>
      </trkpt>
      <trkpt lat="44.21281767077744" lon="9.529909919947386">
        <ele>247.68000000000001</ele>
        <time>2014-04-13T10:02:20Z</time>
      </trkpt>
      <trkpt lat="44.212789088487625" lon="9.530141847208142">
        <ele>246.22999999999999</ele>
        <time>2014-04-13T10:02:34Z</time>
      </trkpt>
      <trkpt lat="44.212747681885958" lon="9.530336726456881">
        <ele>244.31</ele>
        <time>2014-04-13T10:02:48Z</time>
      </trkpt>
      <trkpt lat="44.212764864787459" lon="9.530435632914305">
        <ele>243.83000000000001</ele>
        <time>2014-04-13T10:03:11Z</time>
      </trkpt>
      <trkpt lat="44.212772324681282" lon="9.530435130000114">
        <ele>243.34999999999999</ele>
        <time>2014-04-13T10:03:34Z</time>
      </trkpt>
      <trkpt lat="44.212713902816176" lon="9.530565636232495">
        <ele>243.34999999999999</ele>
        <time>2014-04-13T10:04:00Z</time>
      </trkpt>
      <trkpt lat="44.21267350204289" lon="9.530802676454186">
        <ele>242.87</ele>
        <time>2014-04-13T10:04:13Z</time>
      </trkpt>
      <trkpt lat="44.212699988856912" lon="9.531084559857845">
        <ele>242.87</ele>
        <time>2014-04-13T10:04:31Z</time>
      </trkpt>
      <trkpt lat="44.212719099596143" lon="9.531111046671867">
        <ele>244.31</ele>
        <time>2014-04-13T10:04:33Z</time>
      </trkpt>
      <trkpt lat="44.212937280535698" lon="9.531183550134301">
        <ele>245.27000000000001</ele>
        <time>2014-04-13T10:04:53Z</time>
      </trkpt>
      <trkpt lat="44.213134758174419" lon="9.53123333863914">
        <ele>248.16</ele>
        <time>2014-04-13T10:05:10Z</time>
      </trkpt>
      <trkpt lat="44.213277753442526" lon="9.531370550394058">
        <ele>249.12</ele>
        <time>2014-04-13T10:05:22Z</time>
      </trkpt>
      <trkpt lat="44.213328966870904" lon="9.531739689409733">
        <ele>250.08000000000001</ele>
        <time>2014-04-13T10:05:42Z</time>
      </trkpt>
      <trkpt lat="44.213271886110306" lon="9.532159874215722">
        <ele>250.08000000000001</ele>
        <time>2014-04-13T10:06:05Z</time>
      </trkpt>
      <trkpt lat="44.2134103551507" lon="9.532372523099184">
        <ele>252</ele>
        <time>2014-04-13T10:06:23Z</time>
      </trkpt>
      <trkpt lat="44.213506663218141" lon="9.532628338783979">
        <ele>253.93000000000001</ele>
        <time>2014-04-13T10:06:44Z</time>
      </trkpt>
      <trkpt lat="44.213470621034503" lon="9.532962441444397">
        <ele>255.84999999999999</ele>
        <time>2014-04-13T10:07:04Z</time>
      </trkpt>
      <trkpt lat="44.213492413982749" lon="9.533294280990958">
        <ele>256.32999999999998</ele>
        <time>2014-04-13T10:07:25Z</time>
      </trkpt>
      <trkpt lat="44.213473135605454" lon="9.533334178850055">
        <ele>256.32999999999998</ele>
        <time>2014-04-13T10:07:42Z</time>
      </trkpt>
      <trkpt lat="44.213455449789762" lon="9.533427720889449">
        <ele>256.32999999999998</ele>
        <time>2014-04-13T10:07:50Z</time>
      </trkpt>
      <trkpt lat="44.213451007381082" lon="9.533566692844033">
        <ele>256.81</ele>
        <time>2014-04-13T10:08:05Z</time>
      </trkpt>
      <trkpt lat="44.213508423417807" lon="9.533837009221315">
        <ele>256.81</ele>
        <time>2014-04-13T10:08:19Z</time>
      </trkpt>
      <trkpt lat="44.213504400104284" lon="9.533875985071063">
        <ele>256.81</ele>
        <time>2014-04-13T10:08:21Z</time>
      </trkpt>
      <trkpt lat="44.213451342657208" lon="9.533965168520808">
        <ele>257.29000000000002</ele>
        <time>2014-04-13T10:08:27Z</time>
      </trkpt>
      <trkpt lat="44.213262749835849" lon="9.534167088568211">
        <ele>257.76999999999998</ele>
        <time>2014-04-13T10:08:45Z</time>
      </trkpt>
      <trkpt lat="44.213085640221834" lon="9.534394154325128">
        <ele>257.76999999999998</ele>
        <time>2014-04-13T10:09:02Z</time>
      </trkpt>
      <trkpt lat="44.213055213913321" lon="9.534426173195243">
        <ele>256.32999999999998</ele>
        <time>2014-04-13T10:09:07Z</time>
      </trkpt>
      <trkpt lat="44.212967036291957" lon="9.534541927278042">
        <ele>254.88999999999999</ele>
        <time>2014-04-13T10:09:23Z</time>
      </trkpt>
      <trkpt lat="44.212878774851561" lon="9.534711325541139">
        <ele>253.44</ele>
        <time>2014-04-13T10:09:32Z</time>
      </trkpt>
      <trkpt lat="44.212871650233865" lon="9.534753737971187">
        <ele>252.47999999999999</ele>
        <time>2014-04-13T10:09:36Z</time>
      </trkpt>
      <trkpt lat="44.212861591950059" lon="9.534830180928111">
        <ele>251.52000000000001</ele>
        <time>2014-04-13T10:09:40Z</time>
      </trkpt>
      <trkpt lat="44.212864777073264" lon="9.534993628039956">
        <ele>250.56</ele>
        <time>2014-04-13T10:09:51Z</time>
      </trkpt>
      <trkpt lat="44.212880283594131" lon="9.53527919948101">
        <ele>250.56</ele>
        <time>2014-04-13T10:10:08Z</time>
      </trkpt>
      <trkpt lat="44.212906351312995" lon="9.535365281626582">
        <ele>250.56</ele>
        <time>2014-04-13T10:10:14Z</time>
      </trkpt>
      <trkpt lat="44.213028391823173" lon="9.535451531410217">
        <ele>252.96000000000001</ele>
        <time>2014-04-13T10:10:29Z</time>
      </trkpt>
      <trkpt lat="44.213110702112317" lon="9.535493357107043">
        <ele>254.88999999999999</ele>
        <time>2014-04-13T10:10:40Z</time>
      </trkpt>
      <trkpt lat="44.213235592469573" lon="9.535623108968139">
        <ele>255.84999999999999</ele>
        <time>2014-04-13T10:10:55Z</time>
      </trkpt>
      <trkpt lat="44.213220085948706" lon="9.535730900242925">
        <ele>255.84999999999999</ele>
        <time>2014-04-13T10:11:00Z</time>
      </trkpt>
      <trkpt lat="44.213201645761728" lon="9.535790579393506">
        <ele>255.84999999999999</ele>
        <time>2014-04-13T10:11:06Z</time>
      </trkpt>
      <trkpt lat="44.213130483403802" lon="9.536013621836901">
        <ele>255.84999999999999</ele>
        <time>2014-04-13T10:11:18Z</time>
      </trkpt>
      <trkpt lat="44.213124699890614" lon="9.536034241318703">
        <ele>255.84999999999999</ele>
        <time>2014-04-13T10:11:19Z</time>
      </trkpt>
      <trkpt lat="44.213133081793785" lon="9.536263821646571">
        <ele>256.81</ele>
        <time>2014-04-13T10:11:31Z</time>
      </trkpt>
      <trkpt lat="44.213192760944366" lon="9.536452749744058">
        <ele>258.25</ele>
        <time>2014-04-13T10:11:42Z</time>
      </trkpt>
      <trkpt lat="44.213208267465234" lon="9.536483427509666">
        <ele>258.73000000000002</ele>
        <time>2014-04-13T10:11:45Z</time>
      </trkpt>
      <trkpt lat="44.213222935795784" lon="9.536506980657578">
        <ele>258.73000000000002</ele>
        <time>2014-04-13T10:11:47Z</time>
      </trkpt>
      <trkpt lat="44.213224863633513" lon="9.536527767777443">
        <ele>258.73000000000002</ele>
        <time>2014-04-13T10:11:48Z</time>
      </trkpt>
      <trkpt lat="44.213224360719323" lon="9.536553248763084">
        <ele>259.20999999999998</ele>
        <time>2014-04-13T10:11:49Z</time>
      </trkpt>
      <trkpt lat="44.213198209181428" lon="9.536649556830525">
        <ele>259.69</ele>
        <time>2014-04-13T10:11:56Z</time>
      </trkpt>
      <trkpt lat="44.213186725974083" lon="9.536659112200141">
        <ele>259.69</ele>
        <time>2014-04-13T10:11:57Z</time>
      </trkpt>
      <trkpt lat="44.213025709614158" lon="9.536762880161405">
        <ele>260.17000000000002</ele>
        <time>2014-04-13T10:12:11Z</time>
      </trkpt>
      <trkpt lat="44.212815575301647" lon="9.536868911236525">
        <ele>260.64999999999998</ele>
        <time>2014-04-13T10:12:27Z</time>
      </trkpt>
      <trkpt lat="44.212777521461248" lon="9.536929931491613">
        <ele>260.64999999999998</ele>
        <time>2014-04-13T10:12:40Z</time>
      </trkpt>
      <trkpt lat="44.212757488712668" lon="9.536933703348041">
        <ele>260.64999999999998</ele>
        <time>2014-04-13T10:12:45Z</time>
      </trkpt>
      <trkpt lat="44.212746592238545" lon="9.53694200143218">
        <ele>260.64999999999998</ele>
        <time>2014-04-13T10:12:46Z</time>
      </trkpt>
      <trkpt lat="44.212538804858923" lon="9.537027245387435">
        <ele>260.64999999999998</ele>
        <time>2014-04-13T10:13:02Z</time>
      </trkpt>
      <trkpt lat="44.21228994615376" lon="9.536936553195119">
        <ele>261.13999999999999</ele>
        <time>2014-04-13T10:13:22Z</time>
      </trkpt>
      <trkpt lat="44.212011331692338" lon="9.536999668926001">
        <ele>262.57999999999998</ele>
        <time>2014-04-13T10:13:45Z</time>
      </trkpt>
      <trkpt lat="44.211699524894357" lon="9.537118691951037">
        <ele>264.01999999999998</ele>
        <time>2014-04-13T10:14:11Z</time>
      </trkpt>
      <trkpt lat="44.211566587910056" lon="9.537146436050534">
        <ele>265.45999999999998</ele>
        <time>2014-04-13T10:14:21Z</time>
      </trkpt>
      <trkpt lat="44.211277328431606" lon="9.537029843777418">
        <ele>267.86000000000001</ele>
        <time>2014-04-13T10:14:44Z</time>
      </trkpt>
      <trkpt lat="44.211141457781196" lon="9.536992711946368">
        <ele>268.35000000000002</ele>
        <time>2014-04-13T10:14:56Z</time>
      </trkpt>
      <trkpt lat="44.211127627640963" lon="9.536992125213146">
        <ele>268.35000000000002</ele>
        <time>2014-04-13T10:14:57Z</time>
      </trkpt>
      <trkpt lat="44.211113378405571" lon="9.536988688632846">
        <ele>268.82999999999998</ele>
        <time>2014-04-13T10:14:58Z</time>
      </trkpt>
      <trkpt lat="44.211097117513418" lon="9.536986006423831">
        <ele>268.35000000000002</ele>
        <time>2014-04-13T10:14:59Z</time>
      </trkpt>
      <trkpt lat="44.211079683154821" lon="9.536986006423831">
        <ele>268.82999999999998</ele>
        <time>2014-04-13T10:15:00Z</time>
      </trkpt>
      <trkpt lat="44.211067361757159" lon="9.536984749138355">
        <ele>268.82999999999998</ele>
        <time>2014-04-13T10:15:01Z</time>
      </trkpt>
      <trkpt lat="44.210943812504411" lon="9.536973433569074">
        <ele>269.79000000000002</ele>
        <time>2014-04-13T10:15:13Z</time>
      </trkpt>
      <trkpt lat="44.210754213854671" lon="9.53694200143218">
        <ele>270.75</ele>
        <time>2014-04-13T10:15:29Z</time>
      </trkpt>
      <trkpt lat="44.210604596883059" lon="9.537010733038187">
        <ele>271.70999999999998</ele>
        <time>2014-04-13T10:15:44Z</time>
      </trkpt>
      <trkpt lat="44.210562519729137" lon="9.537110645323992">
        <ele>272.67000000000002</ele>
        <time>2014-04-13T10:15:57Z</time>
      </trkpt>
      <trkpt lat="44.210555898025632" lon="9.537139227613807">
        <ele>272.67000000000002</ele>
        <time>2014-04-13T10:16:15Z</time>
      </trkpt>
      <trkpt lat="44.210529830306768" lon="9.53723075799644">
        <ele>273.14999999999998</ele>
        <time>2014-04-13T10:16:36Z</time>
      </trkpt>
      <trkpt lat="44.210511473938823" lon="9.537255233153701">
        <ele>273.14999999999998</ele>
        <time>2014-04-13T10:16:38Z</time>
      </trkpt>
      <trkpt lat="44.210502924397588" lon="9.537445418536663">
        <ele>274.58999999999997</ele>
        <time>2014-04-13T10:16:51Z</time>
      </trkpt>
      <trkpt lat="44.210514910519123" lon="9.537673825398088">
        <ele>275.56</ele>
        <time>2014-04-13T10:17:08Z</time>
      </trkpt>
      <trkpt lat="44.210521532222629" lon="9.537730654701591">
        <ele>276.04000000000002</ele>
        <time>2014-04-13T10:17:12Z</time>
      </trkpt>
      <trkpt lat="44.2105264775455" lon="9.537944728508592">
        <ele>276.51999999999998</ele>
        <time>2014-04-13T10:17:26Z</time>
      </trkpt>
      <trkpt lat="44.210497476160526" lon="9.538025530055165">
        <ele>276.51999999999998</ele>
        <time>2014-04-13T10:17:33Z</time>
      </trkpt>
      <trkpt lat="44.210392953827977" lon="9.538252931088209">
        <ele>278.44</ele>
        <time>2014-04-13T10:17:49Z</time>
      </trkpt>
      <trkpt lat="44.210354564711452" lon="9.538503214716911">
        <ele>278.92000000000002</ele>
        <time>2014-04-13T10:18:03Z</time>
      </trkpt>
      <trkpt lat="44.210358839482069" lon="9.538560379296541">
        <ele>278.92000000000002</ele>
        <time>2014-04-13T10:18:13Z</time>
      </trkpt>
      <trkpt lat="44.210359510034323" lon="9.538579992949963">
        <ele>279.39999999999998</ele>
        <time>2014-04-13T10:18:14Z</time>
      </trkpt>
      <trkpt lat="44.210375100374222" lon="9.53881686553359">
        <ele>280.36000000000001</ele>
        <time>2014-04-13T10:18:29Z</time>
      </trkpt>
      <trkpt lat="44.210392031818628" lon="9.53885399736464">
        <ele>280.83999999999997</ele>
        <time>2014-04-13T10:18:32Z</time>
      </trkpt>
      <trkpt lat="44.210399826988578" lon="9.538865815848112">
        <ele>280.83999999999997</ele>
        <time>2014-04-13T10:18:33Z</time>
      </trkpt>
      <trkpt lat="44.210418099537492" lon="9.538887357339263">
        <ele>281.31999999999999</ele>
        <time>2014-04-13T10:18:36Z</time>
      </trkpt>
      <trkpt lat="44.210426649078727" lon="9.538899175822735">
        <ele>281.31999999999999</ele>
        <time>2014-04-13T10:18:37Z</time>
      </trkpt>
      <trkpt lat="44.210451124235988" lon="9.538932284340262">
        <ele>281.80000000000001</ele>
        <time>2014-04-13T10:18:52Z</time>
      </trkpt>
      <trkpt lat="44.21049227938056" lon="9.538989365100861">
        <ele>281.80000000000001</ele>
        <time>2014-04-13T10:19:07Z</time>
      </trkpt>
      <trkpt lat="44.210528573021293" lon="9.539025239646435">
        <ele>282.27999999999997</ele>
        <time>2014-04-13T10:19:12Z</time>
      </trkpt>
      <trkpt lat="44.21059831045568" lon="9.539223639294505">
        <ele>283.25</ele>
        <time>2014-04-13T10:19:30Z</time>
      </trkpt>
      <trkpt lat="44.210493117570877" lon="9.539409130811691">
        <ele>283.25</ele>
        <time>2014-04-13T10:19:43Z</time>
      </trkpt>
      <trkpt lat="44.210444586351514" lon="9.539584815502167">
        <ele>284.20999999999998</ele>
        <time>2014-04-13T10:19:56Z</time>
      </trkpt>
      <trkpt lat="44.210349451750517" lon="9.539873320609331">
        <ele>280.83999999999997</ele>
        <time>2014-04-13T10:20:13Z</time>
      </trkpt>
      <trkpt lat="44.210264459252357" lon="9.540070127695799">
        <ele>279.88</ele>
        <time>2014-04-13T10:20:25Z</time>
      </trkpt>
      <trkpt lat="44.210209138691425" lon="9.540247153490782">
        <ele>279.88</ele>
        <time>2014-04-13T10:20:37Z</time>
      </trkpt>
      <trkpt lat="44.210146777331829" lon="9.540387215092778">
        <ele>279.88</ele>
        <time>2014-04-13T10:20:47Z</time>
      </trkpt>
      <trkpt lat="44.210178041830659" lon="9.540467765182257">
        <ele>279.39999999999998</ele>
        <time>2014-04-13T10:20:57Z</time>
      </trkpt>
      <trkpt lat="44.210221292451024" lon="9.540480589494109">
        <ele>278.92000000000002</ele>
        <time>2014-04-13T10:21:13Z</time>
      </trkpt>
      <trkpt lat="44.210234368219972" lon="9.540492407977581">
        <ele>278.92000000000002</ele>
        <time>2014-04-13T10:21:14Z</time>
      </trkpt>
      <trkpt lat="44.210466211661696" lon="9.540610425174236">
        <ele>276.04000000000002</ele>
        <time>2014-04-13T10:21:34Z</time>
      </trkpt>
      <trkpt lat="44.210610380396247" lon="9.540841765701771">
        <ele>275.56</ele>
        <time>2014-04-13T10:21:49Z</time>
      </trkpt>
      <trkpt lat="44.210734851658344" lon="9.541119122877717">
        <ele>273.63</ele>
        <time>2014-04-13T10:22:05Z</time>
      </trkpt>
      <trkpt lat="44.210795620456338" lon="9.541219538077712">
        <ele>273.14999999999998</ele>
        <time>2014-04-13T10:22:15Z</time>
      </trkpt>
      <trkpt lat="44.21084851026535" lon="9.541287012398243">
        <ele>272.67000000000002</ele>
        <time>2014-04-13T10:22:22Z</time>
      </trkpt>
      <trkpt lat="44.210858652368188" lon="9.541302938014269">
        <ele>272.67000000000002</ele>
        <time>2014-04-13T10:22:23Z</time>
      </trkpt>
      <trkpt lat="44.210910452529788" lon="9.54138214699924">
        <ele>272.67000000000002</ele>
        <time>2014-04-13T10:22:30Z</time>
      </trkpt>
      <trkpt lat="44.210925288498402" lon="9.541406873613596">
        <ele>272.67000000000002</ele>
        <time>2014-04-13T10:22:32Z</time>
      </trkpt>
      <trkpt lat="44.210935514420271" lon="9.541422547772527">
        <ele>272.67000000000002</ele>
        <time>2014-04-13T10:22:33Z</time>
      </trkpt>
      <trkpt lat="44.210947332903743" lon="9.541436461731792">
        <ele>272.67000000000002</ele>
        <time>2014-04-13T10:22:34Z</time>
      </trkpt>
      <trkpt lat="44.211050011217594" lon="9.541551377624273">
        <ele>271.70999999999998</ele>
        <time>2014-04-13T10:22:46Z</time>
      </trkpt>
      <trkpt lat="44.211172806099057" lon="9.541658330708742">
        <ele>271.23000000000002</ele>
        <time>2014-04-13T10:22:59Z</time>
      </trkpt>
      <trkpt lat="44.211380844935775" lon="9.541759584099054">
        <ele>269.79000000000002</ele>
        <time>2014-04-13T10:23:21Z</time>
      </trkpt>
      <trkpt lat="44.211390987038612" lon="9.54178087413311">
        <ele>269.79000000000002</ele>
        <time>2014-04-13T10:23:39Z</time>
      </trkpt>
      <trkpt lat="44.211398614570498" lon="9.541810546070337">
        <ele>269.79000000000002</ele>
        <time>2014-04-13T10:23:51Z</time>
      </trkpt>
      <trkpt lat="44.21138159930706" lon="9.541809959337115">
        <ele>269.79000000000002</ele>
        <time>2014-04-13T10:24:11Z</time>
      </trkpt>
      <trkpt lat="44.211413869634271" lon="9.541781879961491">
        <ele>269.79000000000002</ele>
        <time>2014-04-13T10:24:43Z</time>
      </trkpt>
      <trkpt lat="44.211405487731099" lon="9.541803002357483">
        <ele>269.79000000000002</ele>
        <time>2014-04-13T10:24:57Z</time>
      </trkpt>
      <trkpt lat="44.211415546014905" lon="9.541801912710071">
        <ele>269.79000000000002</ele>
        <time>2014-04-13T10:25:10Z</time>
      </trkpt>
      <trkpt lat="44.211435159668326" lon="9.541831752285361">
        <ele>269.31</ele>
        <time>2014-04-13T10:25:28Z</time>
      </trkpt>
      <trkpt lat="44.211403978988528" lon="9.541844660416246">
        <ele>269.79000000000002</ele>
        <time>2014-04-13T10:25:45Z</time>
      </trkpt>
      <trkpt lat="44.211469106376171" lon="9.541809959337115">
        <ele>269.79000000000002</ele>
        <time>2014-04-13T10:26:14Z</time>
      </trkpt>
      <trkpt lat="44.21143239364028" lon="9.541831584647298">
        <ele>269.79000000000002</ele>
        <time>2014-04-13T10:26:39Z</time>
      </trkpt>
      <trkpt lat="44.211413701996207" lon="9.541857820004225">
        <ele>269.79000000000002</ele>
        <time>2014-04-13T10:27:00Z</time>
      </trkpt>
      <trkpt lat="44.211431052535772" lon="9.541833763942123">
        <ele>269.79000000000002</ele>
        <time>2014-04-13T10:27:20Z</time>
      </trkpt>
      <trkpt lat="44.211433986201882" lon="9.541836865246296">
        <ele>269.79000000000002</ele>
        <time>2014-04-13T10:27:38Z</time>
      </trkpt>
      <trkpt lat="44.211515709757805" lon="9.541920265182853">
        <ele>269.79000000000002</ele>
        <time>2014-04-13T10:27:50Z</time>
      </trkpt>
      <trkpt lat="44.211519733071327" lon="9.541942980140448">
        <ele>269.79000000000002</ele>
        <time>2014-04-13T10:27:51Z</time>
      </trkpt>
      <trkpt lat="44.211561726406217" lon="9.542039623484016">
        <ele>268.82999999999998</ele>
        <time>2014-04-13T10:27:59Z</time>
      </trkpt>
      <trkpt lat="44.211659794673324" lon="9.542169207707048">
        <ele>270.26999999999998</ele>
        <time>2014-04-13T10:28:14Z</time>
      </trkpt>
      <trkpt lat="44.21167278662324" lon="9.542172476649284">
        <ele>270.26999999999998</ele>
        <time>2014-04-13T10:28:15Z</time>
      </trkpt>
      <trkpt lat="44.211697932332754" lon="9.542183121666312">
        <ele>271.23000000000002</ele>
        <time>2014-04-13T10:28:28Z</time>
      </trkpt>
      <trkpt lat="44.211682677268982" lon="9.542171973735094">
        <ele>271.23000000000002</ele>
        <time>2014-04-13T10:28:40Z</time>
      </trkpt>
      <trkpt lat="44.211664153262973" lon="9.542159987613559">
        <ele>270.26999999999998</ele>
        <time>2014-04-13T10:28:44Z</time>
      </trkpt>
      <trkpt lat="44.211656106635928" lon="9.542154707014561">
        <ele>270.26999999999998</ele>
        <time>2014-04-13T10:28:45Z</time>
      </trkpt>
      <trkpt lat="44.211643030866981" lon="9.542120089754462">
        <ele>270.26999999999998</ele>
        <time>2014-04-13T10:28:49Z</time>
      </trkpt>
      <trkpt lat="44.211622830480337" lon="9.542082035914064">
        <ele>269.79000000000002</ele>
        <time>2014-04-13T10:28:55Z</time>
      </trkpt>
      <trkpt lat="44.211559547111392" lon="9.542098715901375">
        <ele>268.82999999999998</ele>
        <time>2014-04-13T10:29:06Z</time>
      </trkpt>
      <trkpt lat="44.211537586525083" lon="9.542077761143446">
        <ele>269.31</ele>
        <time>2014-04-13T10:29:34Z</time>
      </trkpt>
      <trkpt lat="44.211558876559138" lon="9.542008778080344">
        <ele>269.31</ele>
        <time>2014-04-13T10:29:47Z</time>
      </trkpt>
      <trkpt lat="44.211577149108052" lon="9.542014226317406">
        <ele>269.31</ele>
        <time>2014-04-13T10:30:04Z</time>
      </trkpt>
      <trkpt lat="44.211569270119071" lon="9.542028224095702">
        <ele>269.31</ele>
        <time>2014-04-13T10:30:06Z</time>
      </trkpt>
      <trkpt lat="44.211545046418905" lon="9.542033839970827">
        <ele>269.31</ele>
        <time>2014-04-13T10:30:15Z</time>
      </trkpt>
      <trkpt lat="44.211555775254965" lon="9.54202520661056">
        <ele>269.31</ele>
        <time>2014-04-13T10:30:31Z</time>
      </trkpt>
      <trkpt lat="44.211546806618571" lon="9.54204716719687">
        <ele>269.31</ele>
        <time>2014-04-13T10:30:49Z</time>
      </trkpt>
      <trkpt lat="44.211557786911726" lon="9.542040210217238">
        <ele>269.31</ele>
        <time>2014-04-13T10:31:12Z</time>
      </trkpt>
      <trkpt lat="44.211735986173153" lon="9.542206171900034">
        <ele>272.19</ele>
        <time>2014-04-13T10:31:33Z</time>
      </trkpt>
      <trkpt lat="44.21194888651371" lon="9.542170045897365">
        <ele>275.06999999999999</ele>
        <time>2014-04-13T10:31:53Z</time>
      </trkpt>
      <trkpt lat="44.212122978642583" lon="9.542112965136766">
        <ele>278.44</ele>
        <time>2014-04-13T10:32:13Z</time>
      </trkpt>
      <trkpt lat="44.212318612262607" lon="9.542205585166812">
        <ele>280.36000000000001</ele>
        <time>2014-04-13T10:32:31Z</time>
      </trkpt>
      <trkpt lat="44.212514162063599" lon="9.542484618723393">
        <ele>283.73000000000002</ele>
        <time>2014-04-13T10:32:56Z</time>
      </trkpt>
      <trkpt lat="44.212457751855254" lon="9.542827857658267">
        <ele>285.17000000000002</ele>
        <time>2014-04-13T10:33:16Z</time>
      </trkpt>
      <trkpt lat="44.212374184280634" lon="9.542980827391148">
        <ele>286.61000000000001</ele>
        <time>2014-04-13T10:33:28Z</time>
      </trkpt>
      <trkpt lat="44.212398156523705" lon="9.543380057439208">
        <ele>288.52999999999997</ele>
        <time>2014-04-13T10:33:52Z</time>
      </trkpt>
      <trkpt lat="44.212366053834558" lon="9.543527076020837">
        <ele>289.97000000000003</ele>
        <time>2014-04-13T10:34:00Z</time>
      </trkpt>
      <trkpt lat="44.212369490414858" lon="9.543553562834859">
        <ele>289.97000000000003</ele>
        <time>2014-04-13T10:34:02Z</time>
      </trkpt>
      <trkpt lat="44.212460266426206" lon="9.543842319399118">
        <ele>292.38</ele>
        <time>2014-04-13T10:34:23Z</time>
      </trkpt>
      <trkpt lat="44.212463451549411" lon="9.544192347675562">
        <ele>295.25999999999999</ele>
        <time>2014-04-13T10:34:46Z</time>
      </trkpt>
      <trkpt lat="44.212483484297991" lon="9.54452401958406">
        <ele>298.14999999999998</ele>
        <time>2014-04-13T10:35:09Z</time>
      </trkpt>
      <trkpt lat="44.212504019960761" lon="9.54459828324616">
        <ele>298.63</ele>
        <time>2014-04-13T10:35:14Z</time>
      </trkpt>
      <trkpt lat="44.21251030638814" lon="9.544732058420777">
        <ele>299.58999999999997</ele>
        <time>2014-04-13T10:35:22Z</time>
      </trkpt>
      <trkpt lat="44.212493039667606" lon="9.544996172189713">
        <ele>300.06999999999999</ele>
        <time>2014-04-13T10:35:37Z</time>
      </trkpt>
      <trkpt lat="44.212486250326037" lon="9.545046044513583">
        <ele>300.06999999999999</ele>
        <time>2014-04-13T10:35:40Z</time>
      </trkpt>
      <trkpt lat="44.21249957755208" lon="9.54520664177835">
        <ele>300.55000000000001</ele>
        <time>2014-04-13T10:35:51Z</time>
      </trkpt>
      <trkpt lat="44.212499996647239" lon="9.545268835499883">
        <ele>300.55000000000001</ele>
        <time>2014-04-13T10:35:54Z</time>
      </trkpt>
      <trkpt lat="44.212524639442563" lon="9.545400179922581">
        <ele>301.50999999999999</ele>
        <time>2014-04-13T10:36:04Z</time>
      </trkpt>
      <trkpt lat="44.21252547763288" lon="9.545420380309224">
        <ele>301.50999999999999</ele>
        <time>2014-04-13T10:36:05Z</time>
      </trkpt>
      <trkpt lat="44.212525980547071" lon="9.545483747497201">
        <ele>302.47000000000003</ele>
        <time>2014-04-13T10:36:09Z</time>
      </trkpt>
      <trkpt lat="44.212524387985468" lon="9.545500846579671">
        <ele>302.47000000000003</ele>
        <time>2014-04-13T10:36:10Z</time>
      </trkpt>
      <trkpt lat="44.212536122649908" lon="9.54573436640203">
        <ele>305.83999999999997</ele>
        <time>2014-04-13T10:36:25Z</time>
      </trkpt>
      <trkpt lat="44.212543917819858" lon="9.545744424685836">
        <ele>305.83999999999997</ele>
        <time>2014-04-13T10:36:26Z</time>
      </trkpt>
      <trkpt lat="44.212614577263594" lon="9.545756410807371">
        <ele>306.80000000000001</ele>
        <time>2014-04-13T10:36:34Z</time>
      </trkpt>
      <trkpt lat="44.212676100432873" lon="9.545707711949945">
        <ele>308.72000000000003</ele>
        <time>2014-04-13T10:36:41Z</time>
      </trkpt>
      <trkpt lat="44.212742652744055" lon="9.545663539320231">
        <ele>310.16000000000003</ele>
        <time>2014-04-13T10:36:49Z</time>
      </trkpt>
      <trkpt lat="44.212849102914333" lon="9.545601261779666">
        <ele>311.12</ele>
        <time>2014-04-13T10:37:00Z</time>
      </trkpt>
      <trkpt lat="44.212903417646885" lon="9.545579133555293">
        <ele>311.60000000000002</ele>
        <time>2014-04-13T10:37:06Z</time>
      </trkpt>
      <trkpt lat="44.21291540376842" lon="9.545576283708215">
        <ele>312.08999999999997</ele>
        <time>2014-04-13T10:37:07Z</time>
      </trkpt>
      <trkpt lat="44.213020345196128" lon="9.545542001724243">
        <ele>313.52999999999997</ele>
        <time>2014-04-13T10:37:18Z</time>
      </trkpt>
      <trkpt lat="44.213064014911652" lon="9.545560777187347">
        <ele>314.00999999999999</ele>
        <time>2014-04-13T10:37:23Z</time>
      </trkpt>
      <trkpt lat="44.213075917214155" lon="9.545574691146612">
        <ele>314.49000000000001</ele>
        <time>2014-04-13T10:37:24Z</time>
      </trkpt>
      <trkpt lat="44.213103577494621" lon="9.54562489874661">
        <ele>315.44999999999999</ele>
        <time>2014-04-13T10:37:28Z</time>
      </trkpt>
      <trkpt lat="44.21310399658978" lon="9.545645099133253">
        <ele>315.44999999999999</ele>
        <time>2014-04-13T10:37:29Z</time>
      </trkpt>
      <trkpt lat="44.213086813688278" lon="9.545785831287503">
        <ele>315.93000000000001</ele>
        <time>2014-04-13T10:37:39Z</time>
      </trkpt>
      <trkpt lat="44.213085807859898" lon="9.5457998290658">
        <ele>315.93000000000001</ele>
        <time>2014-04-13T10:37:40Z</time>
      </trkpt>
      <trkpt lat="44.213085137307644" lon="9.545817598700523">
        <ele>316.41000000000003</ele>
        <time>2014-04-13T10:37:41Z</time>
      </trkpt>
      <trkpt lat="44.213044149801135" lon="9.545966712757945">
        <ele>317.85000000000002</ele>
        <time>2014-04-13T10:37:55Z</time>
      </trkpt>
      <trkpt lat="44.213021602481604" lon="9.546156227588654">
        <ele>319.30000000000001</ele>
        <time>2014-04-13T10:38:06Z</time>
      </trkpt>
      <trkpt lat="44.213019339367747" lon="9.54617609269917">
        <ele>319.77999999999997</ele>
        <time>2014-04-13T10:38:07Z</time>
      </trkpt>
      <trkpt lat="44.213027218356729" lon="9.546289751306176">
        <ele>320.25999999999999</ele>
        <time>2014-04-13T10:38:16Z</time>
      </trkpt>
      <trkpt lat="44.213031576946378" lon="9.54630559310317">
        <ele>321.22000000000003</ele>
        <time>2014-04-13T10:38:17Z</time>
      </trkpt>
      <trkpt lat="44.213050939142704" lon="9.546361500397325">
        <ele>321.22000000000003</ele>
        <time>2014-04-13T10:38:21Z</time>
      </trkpt>
      <trkpt lat="44.213058231398463" lon="9.54638228751719">
        <ele>321.22000000000003</ele>
        <time>2014-04-13T10:38:22Z</time>
      </trkpt>
      <trkpt lat="44.213087065145373" lon="9.546447331085801">
        <ele>321.69999999999999</ele>
        <time>2014-04-13T10:38:27Z</time>
      </trkpt>
      <trkpt lat="44.213090501725674" lon="9.546460742130876">
        <ele>322.18000000000001</ele>
        <time>2014-04-13T10:38:28Z</time>
      </trkpt>
      <trkpt lat="44.213107684627175" lon="9.546511368826032">
        <ele>322.18000000000001</ele>
        <time>2014-04-13T10:38:32Z</time>
      </trkpt>
      <trkpt lat="44.213114893063903" lon="9.546529473736882">
        <ele>322.18000000000001</ele>
        <time>2014-04-13T10:38:33Z</time>
      </trkpt>
      <trkpt lat="44.213123107329011" lon="9.54655135050416">
        <ele>322.66000000000003</ele>
        <time>2014-04-13T10:38:34Z</time>
      </trkpt>
      <trkpt lat="44.213132914155722" lon="9.546577334403992">
        <ele>322.66000000000003</ele>
        <time>2014-04-13T10:38:35Z</time>
      </trkpt>
      <trkpt lat="44.213142972439528" lon="9.546598121523857">
        <ele>322.66000000000003</ele>
        <time>2014-04-13T10:38:36Z</time>
      </trkpt>
      <trkpt lat="44.213158478960395" lon="9.546650843694806">
        <ele>322.66000000000003</ele>
        <time>2014-04-13T10:38:40Z</time>
      </trkpt>
      <trkpt lat="44.213164430111647" lon="9.546670205891132">
        <ele>322.66000000000003</ele>
        <time>2014-04-13T10:38:41Z</time>
      </trkpt>
      <trkpt lat="44.213167866691947" lon="9.546693339943886">
        <ele>322.66000000000003</ele>
        <time>2014-04-13T10:38:42Z</time>
      </trkpt>
      <trkpt lat="44.213168704882264" lon="9.546718066558242">
        <ele>322.66000000000003</ele>
        <time>2014-04-13T10:38:43Z</time>
      </trkpt>
      <trkpt lat="44.213166190311313" lon="9.546741787344217">
        <ele>322.66000000000003</ele>
        <time>2014-04-13T10:38:44Z</time>
      </trkpt>
      <trkpt lat="44.213129645213485" lon="9.546858882531524">
        <ele>320.74000000000001</ele>
        <time>2014-04-13T10:38:53Z</time>
      </trkpt>
      <trkpt lat="44.213118413463235" lon="9.546880088746548">
        <ele>320.74000000000001</ele>
        <time>2014-04-13T10:38:54Z</time>
      </trkpt>
      <trkpt lat="44.213110869750381" lon="9.546896349638701">
        <ele>320.74000000000001</ele>
        <time>2014-04-13T10:38:55Z</time>
      </trkpt>
      <trkpt lat="44.213085556402802" lon="9.546988969668746">
        <ele>320.25999999999999</ele>
        <time>2014-04-13T10:38:59Z</time>
      </trkpt>
      <trkpt lat="44.213085472583771" lon="9.547070525586605">
        <ele>320.25999999999999</ele>
        <time>2014-04-13T10:39:04Z</time>
      </trkpt>
      <trkpt lat="44.21312746591866" lon="9.547193152830005">
        <ele>320.25999999999999</ele>
        <time>2014-04-13T10:39:12Z</time>
      </trkpt>
      <trkpt lat="44.213134171441197" lon="9.547224584966898">
        <ele>321.69999999999999</ele>
        <time>2014-04-13T10:39:14Z</time>
      </trkpt>
      <trkpt lat="44.213186390697956" lon="9.547430025413632">
        <ele>322.18000000000001</ele>
        <time>2014-04-13T10:39:27Z</time>
      </trkpt>
      <trkpt lat="44.213215475901961" lon="9.547522980719805">
        <ele>322.66000000000003</ele>
        <time>2014-04-13T10:39:34Z</time>
      </trkpt>
      <trkpt lat="44.213260235264897" lon="9.547633035108447">
        <ele>323.62</ele>
        <time>2014-04-13T10:39:42Z</time>
      </trkpt>
      <trkpt lat="44.213320082053542" lon="9.547915169969201">
        <ele>324.10000000000002</ele>
        <time>2014-04-13T10:40:01Z</time>
      </trkpt>
      <trkpt lat="44.213346568867564" lon="9.54813402146101">
        <ele>322.66000000000003</ele>
        <time>2014-04-13T10:40:16Z</time>
      </trkpt>
      <trkpt lat="44.213364338502288" lon="9.548321524634957">
        <ele>324.10000000000002</ele>
        <time>2014-04-13T10:40:30Z</time>
      </trkpt>
      <trkpt lat="44.213408511132002" lon="9.548512380570173">
        <ele>324.10000000000002</ele>
        <time>2014-04-13T10:40:45Z</time>
      </trkpt>
      <trkpt lat="44.213482523337007" lon="9.548568036407232">
        <ele>324.10000000000002</ele>
        <time>2014-04-13T10:40:52Z</time>
      </trkpt>
      <trkpt lat="44.213587129488587" lon="9.548649843782187">
        <ele>324.10000000000002</ele>
        <time>2014-04-13T10:41:01Z</time>
      </trkpt>
      <trkpt lat="44.213706739246845" lon="9.548926781862974">
        <ele>324.10000000000002</ele>
        <time>2014-04-13T10:41:19Z</time>
      </trkpt>
      <trkpt lat="44.213798604905605" lon="9.549189973622561">
        <ele>323.62</ele>
        <time>2014-04-13T10:41:39Z</time>
      </trkpt>
      <trkpt lat="44.213689304888248" lon="9.549403795972467">
        <ele>321.22000000000003</ele>
        <time>2014-04-13T10:41:55Z</time>
      </trkpt>
      <trkpt lat="44.21360582113266" lon="9.549697078764439">
        <ele>321.22000000000003</ele>
        <time>2014-04-13T10:42:13Z</time>
      </trkpt>
      <trkpt lat="44.213510686531663" lon="9.549976866692305">
        <ele>320.25999999999999</ele>
        <time>2014-04-13T10:42:32Z</time>
      </trkpt>
      <trkpt lat="44.213485289365053" lon="9.550227066501975">
        <ele>317.37</ele>
        <time>2014-04-13T10:42:47Z</time>
      </trkpt>
      <trkpt lat="44.213408678770065" lon="9.550296468660235">
        <ele>314.00999999999999</ele>
        <time>2014-04-13T10:42:59Z</time>
      </trkpt>
      <trkpt lat="44.213302815333009" lon="9.550353465601802">
        <ele>311.12</ele>
        <time>2014-04-13T10:43:09Z</time>
      </trkpt>
      <trkpt lat="44.213197287172079" lon="9.550451282411814">
        <ele>307.75999999999999</ele>
        <time>2014-04-13T10:43:23Z</time>
      </trkpt>
      <trkpt lat="44.213156048208475" lon="9.550539208576083">
        <ele>304.88</ele>
        <time>2014-04-13T10:43:33Z</time>
      </trkpt>
      <trkpt lat="44.213030738756061" lon="9.550579860806465">
        <ele>301.50999999999999</ele>
        <time>2014-04-13T10:43:45Z</time>
      </trkpt>
      <trkpt lat="44.212938705459237" lon="9.550707936286926">
        <ele>298.14999999999998</ele>
        <time>2014-04-13T10:43:58Z</time>
      </trkpt>
      <trkpt lat="44.21290559694171" lon="9.550808016210794">
        <ele>296.69999999999999</ele>
        <time>2014-04-13T10:44:06Z</time>
      </trkpt>
      <trkpt lat="44.212893191725016" lon="9.550834586843848">
        <ele>296.22000000000003</ele>
        <time>2014-04-13T10:44:09Z</time>
      </trkpt>
      <trkpt lat="44.212886737659574" lon="9.550881357863545">
        <ele>295.74000000000001</ele>
        <time>2014-04-13T10:44:12Z</time>
      </trkpt>
      <trkpt lat="44.212839882820845" lon="9.551076320931315">
        <ele>294.30000000000001</ele>
        <time>2014-04-13T10:44:24Z</time>
      </trkpt>
      <trkpt lat="44.212845666334033" lon="9.551119320094585">
        <ele>293.33999999999997</ele>
        <time>2014-04-13T10:44:29Z</time>
      </trkpt>
      <trkpt lat="44.212896544486284" lon="9.551219483837485">
        <ele>292.86000000000001</ele>
        <time>2014-04-13T10:44:37Z</time>
      </trkpt>
      <trkpt lat="44.212938956916332" lon="9.551398186013103">
        <ele>291.89999999999998</ele>
        <time>2014-04-13T10:44:48Z</time>
      </trkpt>
      <trkpt lat="44.212945075705647" lon="9.55153388902545">
        <ele>290.94</ele>
        <time>2014-04-13T10:45:03Z</time>
      </trkpt>
      <trkpt lat="44.212942561134696" lon="9.551554089412093">
        <ele>290.94</ele>
        <time>2014-04-13T10:45:11Z</time>
      </trkpt>
      <trkpt lat="44.212942728772759" lon="9.551677303388715">
        <ele>289.00999999999999</ele>
        <time>2014-04-13T10:45:28Z</time>
      </trkpt>
      <trkpt lat="44.213010370731354" lon="9.551801355555654">
        <ele>287.08999999999997</ele>
        <time>2014-04-13T10:45:53Z</time>
      </trkpt>
      <trkpt lat="44.213051442056894" lon="9.551950804889202">
        <ele>284.20999999999998</ele>
        <time>2014-04-13T10:46:03Z</time>
      </trkpt>
      <trkpt lat="44.21304733492434" lon="9.552169656381011">
        <ele>280.36000000000001</ele>
        <time>2014-04-13T10:46:15Z</time>
      </trkpt>
      <trkpt lat="44.213024871423841" lon="9.552390435710549">
        <ele>278.92000000000002</ele>
        <time>2014-04-13T10:46:34Z</time>
      </trkpt>
      <trkpt lat="44.213010370731354" lon="9.55243980512023">
        <ele>278.44</ele>
        <time>2014-04-13T10:46:37Z</time>
      </trkpt>
      <trkpt lat="44.212866369634867" lon="9.552696207538247">
        <ele>276.51999999999998</ele>
        <time>2014-04-13T10:46:55Z</time>
      </trkpt>
      <trkpt lat="44.212876511737704" lon="9.552716156467795">
        <ele>275.56</ele>
        <time>2014-04-13T10:47:02Z</time>
      </trkpt>
      <trkpt lat="44.212844660505652" lon="9.552771812304854">
        <ele>274.58999999999997</ele>
        <time>2014-04-13T10:47:09Z</time>
      </trkpt>
      <trkpt lat="44.21284256502986" lon="9.552978845313191">
        <ele>271.23000000000002</ele>
        <time>2014-04-13T10:47:24Z</time>
      </trkpt>
      <trkpt lat="44.212875002995133" lon="9.553160984069109">
        <ele>269.31</ele>
        <time>2014-04-13T10:47:45Z</time>
      </trkpt>
      <trkpt lat="44.212900986894965" lon="9.553245222195983">
        <ele>270.75</ele>
        <time>2014-04-13T10:47:51Z</time>
      </trkpt>
      <trkpt lat="44.212939208373427" lon="9.553377320989966">
        <ele>272.67000000000002</ele>
        <time>2014-04-13T10:48:02Z</time>
      </trkpt>
      <trkpt lat="44.212912721559405" lon="9.553419649600983">
        <ele>273.63</ele>
        <time>2014-04-13T10:48:19Z</time>
      </trkpt>
      <trkpt lat="44.212916158139706" lon="9.55339701846242">
        <ele>273.63</ele>
        <time>2014-04-13T10:48:48Z</time>
      </trkpt>
      <trkpt lat="44.212904842570424" lon="9.553387295454741">
        <ele>273.63</ele>
        <time>2014-04-13T10:49:13Z</time>
      </trkpt>
      <trkpt lat="44.212901573628187" lon="9.553487123921514">
        <ele>274.11000000000001</ele>
        <time>2014-04-13T10:49:37Z</time>
      </trkpt>
      <trkpt lat="44.212884558364749" lon="9.553691893815994">
        <ele>275.06999999999999</ele>
        <time>2014-04-13T10:49:56Z</time>
      </trkpt>
      <trkpt lat="44.212864190340042" lon="9.553905548527837">
        <ele>275.06999999999999</ele>
        <time>2014-04-13T10:50:17Z</time>
      </trkpt>
      <trkpt lat="44.212852623313665" lon="9.553938321769238">
        <ele>274.11000000000001</ele>
        <time>2014-04-13T10:50:21Z</time>
      </trkpt>
      <trkpt lat="44.21283133327961" lon="9.554010825231671">
        <ele>274.11000000000001</ele>
        <time>2014-04-13T10:50:36Z</time>
      </trkpt>
      <trkpt lat="44.212778192013502" lon="9.554136889055371">
        <ele>273.63</ele>
        <time>2014-04-13T10:50:51Z</time>
      </trkpt>
      <trkpt lat="44.212718261405826" lon="9.554316513240337">
        <ele>271.70999999999998</ele>
        <time>2014-04-13T10:51:10Z</time>
      </trkpt>
      <trkpt lat="44.212730331346393" lon="9.554333947598934">
        <ele>271.70999999999998</ele>
        <time>2014-04-13T10:51:28Z</time>
      </trkpt>
      <trkpt lat="44.212739048525691" lon="9.554332606494427">
        <ele>271.70999999999998</ele>
        <time>2014-04-13T10:51:44Z</time>
      </trkpt>
      <trkpt lat="44.212727146223187" lon="9.554308969527483">
        <ele>271.70999999999998</ele>
        <time>2014-04-13T10:52:03Z</time>
      </trkpt>
      <trkpt lat="44.212738797068596" lon="9.554313831031323">
        <ele>271.70999999999998</ele>
        <time>2014-04-13T10:52:20Z</time>
      </trkpt>
      <trkpt lat="44.212743826210499" lon="9.554339898750186">
        <ele>271.70999999999998</ele>
        <time>2014-04-13T10:52:35Z</time>
      </trkpt>
      <trkpt lat="44.212753297761083" lon="9.554292876273394">
        <ele>271.70999999999998</ele>
        <time>2014-04-13T10:52:57Z</time>
      </trkpt>
      <trkpt lat="44.212684733793139" lon="9.554361272603273">
        <ele>271.70999999999998</ele>
        <time>2014-04-13T10:53:10Z</time>
      </trkpt>
      <trkpt lat="44.212670736014843" lon="9.554378874599934">
        <ele>271.70999999999998</ele>
        <time>2014-04-13T10:53:11Z</time>
      </trkpt>
      <trkpt lat="44.212659923359752" lon="9.554389100521803">
        <ele>271.70999999999998</ele>
        <time>2014-04-13T10:53:12Z</time>
      </trkpt>
      <trkpt lat="44.212618600577116" lon="9.554393794387579">
        <ele>271.23000000000002</ele>
        <time>2014-04-13T10:53:18Z</time>
      </trkpt>
      <trkpt lat="44.212604351341724" lon="9.55439236946404">
        <ele>271.23000000000002</ele>
        <time>2014-04-13T10:53:19Z</time>
      </trkpt>
      <trkpt lat="44.212587168440223" lon="9.554397314786911">
        <ele>270.75</ele>
        <time>2014-04-13T10:53:20Z</time>
      </trkpt>
      <trkpt lat="44.212572583928704" lon="9.554406870156527">
        <ele>270.26999999999998</ele>
        <time>2014-04-13T10:53:21Z</time>
      </trkpt>
      <trkpt lat="44.212537044659257" lon="9.554450120776892">
        <ele>269.79000000000002</ele>
        <time>2014-04-13T10:53:33Z</time>
      </trkpt>
      <trkpt lat="44.212537547573447" lon="9.554486498236656">
        <ele>269.79000000000002</ele>
        <time>2014-04-13T10:53:51Z</time>
      </trkpt>
      <trkpt lat="44.212500918656588" lon="9.55460392870009">
        <ele>271.23000000000002</ele>
        <time>2014-04-13T10:54:00Z</time>
      </trkpt>
      <trkpt lat="44.212509803473949" lon="9.554710295051336">
        <ele>272.19</ele>
        <time>2014-04-13T10:54:07Z</time>
      </trkpt>
      <trkpt lat="44.212503349408507" lon="9.554759580641985">
        <ele>272.67000000000002</ele>
        <time>2014-04-13T10:54:11Z</time>
      </trkpt>
      <trkpt lat="44.21250008046627" lon="9.554776009172201">
        <ele>273.14999999999998</ele>
        <time>2014-04-13T10:54:12Z</time>
      </trkpt>
      <trkpt lat="44.212489351630211" lon="9.554792437702417">
        <ele>273.63</ele>
        <time>2014-04-13T10:54:13Z</time>
      </trkpt>
      <trkpt lat="44.212413998320699" lon="9.554940545931459">
        <ele>276.04000000000002</ele>
        <time>2014-04-13T10:54:26Z</time>
      </trkpt>
      <trkpt lat="44.212364042177796" lon="9.555124612525106">
        <ele>278.92000000000002</ele>
        <time>2014-04-13T10:54:42Z</time>
      </trkpt>
      <trkpt lat="44.212311236187816" lon="9.555252939462662">
        <ele>280.36000000000001</ele>
        <time>2014-04-13T10:54:52Z</time>
      </trkpt>
      <trkpt lat="44.212259519845247" lon="9.555400628596544">
        <ele>282.27999999999997</ele>
        <time>2014-04-13T10:55:06Z</time>
      </trkpt>
      <trkpt lat="44.212236469611526" lon="9.555509425699711">
        <ele>282.76999999999998</ele>
        <time>2014-04-13T10:55:23Z</time>
      </trkpt>
      <trkpt lat="44.212223142385483" lon="9.555515544489026">
        <ele>282.76999999999998</ele>
        <time>2014-04-13T10:55:24Z</time>
      </trkpt>
      <trkpt lat="44.212210820987821" lon="9.555525435134769">
        <ele>282.76999999999998</ele>
        <time>2014-04-13T10:55:25Z</time>
      </trkpt>
      <trkpt lat="44.212199253961444" lon="9.555539516732097">
        <ele>282.76999999999998</ele>
        <time>2014-04-13T10:55:26Z</time>
      </trkpt>
      <trkpt lat="44.212185507640243" lon="9.555552508682013">
        <ele>282.76999999999998</ele>
        <time>2014-04-13T10:55:27Z</time>
      </trkpt>
      <trkpt lat="44.212175281718373" lon="9.555563740432262">
        <ele>282.76999999999998</ele>
        <time>2014-04-13T10:55:28Z</time>
      </trkpt>
      <trkpt lat="44.212102191522717" lon="9.55567697994411">
        <ele>282.76999999999998</ele>
        <time>2014-04-13T10:55:37Z</time>
      </trkpt>
      <trkpt lat="44.212091378867626" lon="9.555685194209218">
        <ele>282.76999999999998</ele>
        <time>2014-04-13T10:55:38Z</time>
      </trkpt>
      <trkpt lat="44.212015019729733" lon="9.555748393759131">
        <ele>282.76999999999998</ele>
        <time>2014-04-13T10:55:51Z</time>
      </trkpt>
      <trkpt lat="44.211939917877316" lon="9.555809246376157">
        <ele>282.76999999999998</ele>
        <time>2014-04-13T10:56:13Z</time>
      </trkpt>
      <trkpt lat="44.211930362507701" lon="9.555818969383836">
        <ele>282.76999999999998</ele>
        <time>2014-04-13T10:56:14Z</time>
      </trkpt>
      <trkpt lat="44.211943438276649" lon="9.555860795080662">
        <ele>284.20999999999998</ele>
        <time>2014-04-13T10:56:30Z</time>
      </trkpt>
      <trkpt lat="44.211956346407533" lon="9.555741436779499">
        <ele>282.76999999999998</ele>
        <time>2014-04-13T10:56:45Z</time>
      </trkpt>
      <trkpt lat="44.211934469640255" lon="9.555717213079333">
        <ele>283.25</ele>
        <time>2014-04-13T10:57:04Z</time>
      </trkpt>
      <trkpt lat="44.211920136585832" lon="9.555776724591851">
        <ele>282.76999999999998</ele>
        <time>2014-04-13T10:57:25Z</time>
      </trkpt>
      <trkpt lat="44.211894404143095" lon="9.555713525041938">
        <ele>282.76999999999998</ele>
        <time>2014-04-13T10:57:52Z</time>
      </trkpt>
      <trkpt lat="44.211935559287667" lon="9.5557033829391">
        <ele>282.76999999999998</ele>
        <time>2014-04-13T10:58:23Z</time>
      </trkpt>
      <trkpt lat="44.21191954985261" lon="9.555700197815895">
        <ele>283.25</ele>
        <time>2014-04-13T10:58:54Z</time>
      </trkpt>
      <trkpt lat="44.211914353072643" lon="9.55566918477416">
        <ele>283.25</ele>
        <time>2014-04-13T10:59:26Z</time>
      </trkpt>
      <trkpt lat="44.211902534589171" lon="9.555525267496705">
        <ele>283.25</ele>
        <time>2014-04-13T10:59:56Z</time>
      </trkpt>
      <trkpt lat="44.211923070251942" lon="9.555526608601213">
        <ele>284.20999999999998</ele>
        <time>2014-04-13T11:00:29Z</time>
      </trkpt>
      <trkpt lat="44.211967829614878" lon="9.555464079603553">
        <ele>284.20999999999998</ele>
        <time>2014-04-13T11:00:53Z</time>
      </trkpt>
      <trkpt lat="44.211958777159452" lon="9.555512359365821">
        <ele>284.20999999999998</ele>
        <time>2014-04-13T11:01:17Z</time>
      </trkpt>
      <trkpt lat="44.211971685290337" lon="9.555558376014233">
        <ele>284.69</ele>
        <time>2014-04-13T11:01:40Z</time>
      </trkpt>
      <trkpt lat="44.211981240659952" lon="9.555557789281011">
        <ele>284.69</ele>
        <time>2014-04-13T11:02:01Z</time>
      </trkpt>
      <trkpt lat="44.211963722482324" lon="9.55559098161757">
        <ele>285.17000000000002</ele>
        <time>2014-04-13T11:02:26Z</time>
      </trkpt>
      <trkpt lat="44.211976798251271" lon="9.555591903626919">
        <ele>285.17000000000002</ele>
        <time>2014-04-13T11:02:52Z</time>
      </trkpt>
      <trkpt lat="44.211991131305695" lon="9.555614367127419">
        <ele>285.17000000000002</ele>
        <time>2014-04-13T11:03:19Z</time>
      </trkpt>
      <trkpt lat="44.211975960060954" lon="9.555648900568485">
        <ele>285.64999999999998</ele>
        <time>2014-04-13T11:03:48Z</time>
      </trkpt>
      <trkpt lat="44.211980570107698" lon="9.555640937760472">
        <ele>286.13</ele>
        <time>2014-04-13T11:04:16Z</time>
      </trkpt>
      <trkpt lat="44.211977804079652" lon="9.55562761053443">
        <ele>286.61000000000001</ele>
        <time>2014-04-13T11:04:37Z</time>
      </trkpt>
      <trkpt lat="44.211962884292006" lon="9.555564494803548">
        <ele>287.08999999999997</ele>
        <time>2014-04-13T11:05:06Z</time>
      </trkpt>
      <trkpt lat="44.211981743574142" lon="9.555502384901047">
        <ele>287.56999999999999</ele>
        <time>2014-04-13T11:05:38Z</time>
      </trkpt>
      <trkpt lat="44.211965901777148" lon="9.555531302466989">
        <ele>287.56999999999999</ele>
        <time>2014-04-13T11:06:02Z</time>
      </trkpt>
      <trkpt lat="44.211961962282658" lon="9.555620905011892">
        <ele>288.05000000000001</ele>
        <time>2014-04-13T11:06:32Z</time>
      </trkpt>
      <trkpt lat="44.211981911212206" lon="9.555616043508053">
        <ele>289.00999999999999</ele>
        <time>2014-04-13T11:06:49Z</time>
      </trkpt>
      <trkpt lat="44.211978474631906" lon="9.555696174502373">
        <ele>289.00999999999999</ele>
        <time>2014-04-13T11:07:17Z</time>
      </trkpt>
      <trkpt lat="44.211973529309034" lon="9.555653007701039">
        <ele>289.49000000000001</ele>
        <time>2014-04-13T11:07:37Z</time>
      </trkpt>
      <trkpt lat="44.211966237053275" lon="9.555611098185182">
        <ele>289.49000000000001</ele>
        <time>2014-04-13T11:08:00Z</time>
      </trkpt>
      <trkpt lat="44.211948467418551" lon="9.555615456774831">
        <ele>289.97000000000003</ele>
        <time>2014-04-13T11:08:28Z</time>
      </trkpt>
      <trkpt lat="44.211941845715046" lon="9.55558461137116">
        <ele>290.45999999999998</ele>
        <time>2014-04-13T11:08:56Z</time>
      </trkpt>
      <trkpt lat="44.211945198476315" lon="9.555598106235266">
        <ele>290.94</ele>
        <time>2014-04-13T11:09:22Z</time>
      </trkpt>
      <trkpt lat="44.211941594257951" lon="9.555591233074665">
        <ele>290.94</ele>
        <time>2014-04-13T11:09:52Z</time>
      </trkpt>
      <trkpt lat="44.21193178743124" lon="9.555569356307387">
        <ele>290.94</ele>
        <time>2014-04-13T11:10:17Z</time>
      </trkpt>
      <trkpt lat="44.211936313658953" lon="9.555592741817236">
        <ele>290.94</ele>
        <time>2014-04-13T11:10:41Z</time>
      </trkpt>
      <trkpt lat="44.21192642301321" lon="9.555614618584514">
        <ele>291.42000000000002</ele>
        <time>2014-04-13T11:10:56Z</time>
      </trkpt>
      <trkpt lat="44.21193229034543" lon="9.555678740143776">
        <ele>291.89999999999998</ele>
        <time>2014-04-13T11:11:21Z</time>
      </trkpt>
      <trkpt lat="44.211935559287667" lon="9.555652840062976">
        <ele>290.94</ele>
        <time>2014-04-13T11:11:28Z</time>
      </trkpt>
      <trkpt lat="44.21194008551538" lon="9.555651918053627">
        <ele>292.38</ele>
        <time>2014-04-13T11:11:31Z</time>
      </trkpt>
      <trkpt lat="44.211947629228234" lon="9.555693073198199">
        <ele>292.38</ele>
        <time>2014-04-13T11:11:41Z</time>
      </trkpt>
      <trkpt lat="44.211994735524058" lon="9.55584118142724">
        <ele>292.38</ele>
        <time>2014-04-13T11:11:44Z</time>
      </trkpt>
      <trkpt lat="44.212005715817213" lon="9.555865740403533">
        <ele>292.38</ele>
        <time>2014-04-13T11:11:45Z</time>
      </trkpt>
      <trkpt lat="44.212068915367126" lon="9.55597017891705">
        <ele>292.38</ele>
        <time>2014-04-13T11:11:58Z</time>
      </trkpt>
      <trkpt lat="44.212066987529397" lon="9.555978644639254">
        <ele>292.38</ele>
        <time>2014-04-13T11:12:31Z</time>
      </trkpt>
      <trkpt lat="44.212063550949097" lon="9.555976800620556">
        <ele>292.38</ele>
        <time>2014-04-13T11:13:04Z</time>
      </trkpt>
      <trkpt lat="44.212062042206526" lon="9.555991049855948">
        <ele>292.38</ele>
        <time>2014-04-13T11:13:44Z</time>
      </trkpt>
      <trkpt lat="44.212081152945757" lon="9.555939165875316">
        <ele>292.38</ele>
        <time>2014-04-13T11:14:25Z</time>
      </trkpt>
      <trkpt lat="44.212082913145423" lon="9.555954923853278">
        <ele>291.89999999999998</ele>
        <time>2014-04-13T11:15:06Z</time>
      </trkpt>
      <trkpt lat="44.212068663910031" lon="9.555959366261959">
        <ele>291.89999999999998</ele>
        <time>2014-04-13T11:15:48Z</time>
      </trkpt>
      <trkpt lat="44.212077716365457" lon="9.555966658517718">
        <ele>291.89999999999998</ele>
        <time>2014-04-13T11:16:27Z</time>
      </trkpt>
      <trkpt lat="44.212069334462285" lon="9.555984009057283">
        <ele>291.89999999999998</ele>
        <time>2014-04-13T11:17:02Z</time>
      </trkpt>
      <trkpt lat="44.212051900103688" lon="9.555974956601858">
        <ele>291.42000000000002</ele>
        <time>2014-04-13T11:17:42Z</time>
      </trkpt>
      <trkpt lat="44.212056342512369" lon="9.555969508364797">
        <ele>290.45999999999998</ele>
        <time>2014-04-13T11:18:04Z</time>
      </trkpt>
      <trkpt lat="44.21205835416913" lon="9.555954923853278">
        <ele>289.97000000000003</ele>
        <time>2014-04-13T11:18:40Z</time>
      </trkpt>
      <trkpt lat="44.212065897881985" lon="9.555973615497351">
        <ele>289.97000000000003</ele>
        <time>2014-04-13T11:19:19Z</time>
      </trkpt>
      <trkpt lat="44.212080063298345" lon="9.555990966036916">
        <ele>289.49000000000001</ele>
        <time>2014-04-13T11:19:50Z</time>
      </trkpt>
      <trkpt lat="44.212051564827561" lon="9.555985014885664">
        <ele>289.49000000000001</ele>
        <time>2014-04-13T11:20:19Z</time>
      </trkpt>
      <trkpt lat="44.21206321567297" lon="9.555985098704696">
        <ele>289.00999999999999</ele>
        <time>2014-04-13T11:20:53Z</time>
      </trkpt>
      <trkpt lat="44.212076710537076" lon="9.555981913581491">
        <ele>289.00999999999999</ele>
        <time>2014-04-13T11:21:37Z</time>
      </trkpt>
      <trkpt lat="44.212090289220214" lon="9.555994737893343">
        <ele>289.00999999999999</ele>
        <time>2014-04-13T11:22:17Z</time>
      </trkpt>
      <trkpt lat="44.212075872346759" lon="9.555986020714045">
        <ele>289.00999999999999</ele>
        <time>2014-04-13T11:22:49Z</time>
      </trkpt>
      <trkpt lat="44.212081655859947" lon="9.555994737893343">
        <ele>288.52999999999997</ele>
        <time>2014-04-13T11:23:26Z</time>
      </trkpt>
      <trkpt lat="44.212085008621216" lon="9.555972944945097">
        <ele>288.52999999999997</ele>
        <time>2014-04-13T11:24:05Z</time>
      </trkpt>
      <trkpt lat="44.212106801569462" lon="9.555987529456615">
        <ele>288.52999999999997</ele>
        <time>2014-04-13T11:24:44Z</time>
      </trkpt>
      <trkpt lat="44.212102359160781" lon="9.555980069562793">
        <ele>292.38</ele>
        <time>2014-04-13T11:25:14Z</time>
      </trkpt>
      <trkpt lat="44.212096324190497" lon="9.555986607447267">
        <ele>289.49000000000001</ele>
        <time>2014-04-13T11:25:15Z</time>
      </trkpt>
      <trkpt lat="44.212042847648263" lon="9.556090207770467">
        <ele>290.45999999999998</ele>
        <time>2014-04-13T11:25:30Z</time>
      </trkpt>
      <trkpt lat="44.212033711373806" lon="9.556082831695676">
        <ele>289.97000000000003</ele>
        <time>2014-04-13T11:25:51Z</time>
      </trkpt>
      <trkpt lat="44.212030107155442" lon="9.556087190285325">
        <ele>289.97000000000003</ele>
        <time>2014-04-13T11:26:12Z</time>
      </trkpt>
      <trkpt lat="44.212037399411201" lon="9.556079730391502">
        <ele>289.97000000000003</ele>
        <time>2014-04-13T11:26:39Z</time>
      </trkpt>
      <trkpt lat="44.212032789364457" lon="9.556068582460284">
        <ele>290.45999999999998</ele>
        <time>2014-04-13T11:26:56Z</time>
      </trkpt>
      <trkpt lat="44.212035890668631" lon="9.556079562753439">
        <ele>290.45999999999998</ele>
        <time>2014-04-13T11:27:02Z</time>
      </trkpt>
      <trkpt lat="44.21204125508666" lon="9.556070175021887">
        <ele>290.45999999999998</ele>
        <time>2014-04-13T11:27:11Z</time>
      </trkpt>
      <trkpt lat="44.2120461165905" lon="9.5560591109097">
        <ele>289.97000000000003</ele>
        <time>2014-04-13T11:27:24Z</time>
      </trkpt>
      <trkpt lat="44.212035974487662" lon="9.556067828088999">
        <ele>289.97000000000003</ele>
        <time>2014-04-13T11:27:38Z</time>
      </trkpt>
      <trkpt lat="44.212027927860618" lon="9.556071180850267">
        <ele>289.97000000000003</ele>
        <time>2014-04-13T11:27:49Z</time>
      </trkpt>
      <trkpt lat="44.212020970880985" lon="9.555977974087">
        <ele>289.97000000000003</ele>
        <time>2014-04-13T11:28:02Z</time>
      </trkpt>
      <trkpt lat="44.212043266743422" lon="9.555944781750441">
        <ele>289.97000000000003</ele>
        <time>2014-04-13T11:28:11Z</time>
      </trkpt>
      <trkpt lat="44.212054079398513" lon="9.555993396788836">
        <ele>289.97000000000003</ele>
        <time>2014-04-13T11:28:20Z</time>
      </trkpt>
      <trkpt lat="44.212051900103688" lon="9.555997923016548">
        <ele>289.97000000000003</ele>
        <time>2014-04-13T11:28:23Z</time>
      </trkpt>
      <trkpt lat="44.212047709152102" lon="9.555901614949107">
        <ele>289.97000000000003</ele>
        <time>2014-04-13T11:28:36Z</time>
      </trkpt>
      <trkpt lat="44.21206371858716" lon="9.555916367098689">
        <ele>289.97000000000003</ele>
        <time>2014-04-13T11:28:42Z</time>
      </trkpt>
      <trkpt lat="44.212073190137744" lon="9.555947715416551">
        <ele>288.05000000000001</ele>
        <time>2014-04-13T11:28:47Z</time>
      </trkpt>
      <trkpt lat="44.212063886225224" lon="9.555946290493012">
        <ele>288.05000000000001</ele>
        <time>2014-04-13T11:29:00Z</time>
      </trkpt>
      <trkpt lat="44.212074112147093" lon="9.555966909974814">
        <ele>289.97000000000003</ele>
        <time>2014-04-13T11:29:10Z</time>
      </trkpt>
      <trkpt lat="44.212068831548095" lon="9.555967999622226">
        <ele>289.49000000000001</ele>
        <time>2014-04-13T11:29:30Z</time>
      </trkpt>
      <trkpt lat="44.212081069126725" lon="9.555975878611207">
        <ele>289.49000000000001</ele>
        <time>2014-04-13T11:30:06Z</time>
      </trkpt>
      <trkpt lat="44.212084673345089" lon="9.555968251079321">
        <ele>289.49000000000001</ele>
        <time>2014-04-13T11:30:29Z</time>
      </trkpt>
      <trkpt lat="44.212081152945757" lon="9.555955175310373">
        <ele>289.49000000000001</ele>
        <time>2014-04-13T11:30:51Z</time>
      </trkpt>
      <trkpt lat="44.212058521807194" lon="9.555957857519388">
        <ele>288.52999999999997</ele>
        <time>2014-04-13T11:31:10Z</time>
      </trkpt>
      <trkpt lat="44.212065059691668" lon="9.555967329069972">
        <ele>289.97000000000003</ele>
        <time>2014-04-13T11:31:26Z</time>
      </trkpt>
      <trkpt lat="44.21206715516746" lon="9.555980656296015">
        <ele>289.97000000000003</ele>
        <time>2014-04-13T11:31:44Z</time>
      </trkpt>
      <trkpt lat="44.212057683616877" lon="9.555955342948437">
        <ele>289.49000000000001</ele>
        <time>2014-04-13T11:32:02Z</time>
      </trkpt>
      <trkpt lat="44.212080566212535" lon="9.555963221937418">
        <ele>289.49000000000001</ele>
        <time>2014-04-13T11:32:24Z</time>
      </trkpt>
      <trkpt lat="44.212074028328061" lon="9.555959450080991">
        <ele>289.49000000000001</ele>
        <time>2014-04-13T11:32:43Z</time>
      </trkpt>
      <trkpt lat="44.212072100490332" lon="9.555959533900023">
        <ele>289.49000000000001</ele>
        <time>2014-04-13T11:33:06Z</time>
      </trkpt>
      <trkpt lat="44.212073441594839" lon="9.555940171703696">
        <ele>289.49000000000001</ele>
        <time>2014-04-13T11:33:25Z</time>
      </trkpt>
      <trkpt lat="44.212068412452936" lon="9.555953582748771">
        <ele>289.49000000000001</ele>
        <time>2014-04-13T11:33:49Z</time>
      </trkpt>
      <trkpt lat="44.21206078492105" lon="9.555967329069972">
        <ele>289.49000000000001</ele>
        <time>2014-04-13T11:34:07Z</time>
      </trkpt>
      <trkpt lat="44.212044943124056" lon="9.555917289108038">
        <ele>289.49000000000001</ele>
        <time>2014-04-13T11:34:36Z</time>
      </trkpt>
      <trkpt lat="44.21204905025661" lon="9.555895999073982">
        <ele>289.49000000000001</ele>
        <time>2014-04-13T11:34:37Z</time>
      </trkpt>
      <trkpt lat="44.212074112147093" lon="9.555784603580833">
        <ele>289.49000000000001</ele>
        <time>2014-04-13T11:34:43Z</time>
      </trkpt>
      <trkpt lat="44.212082661688328" lon="9.555761134251952">
        <ele>289.49000000000001</ele>
        <time>2014-04-13T11:34:44Z</time>
      </trkpt>
      <trkpt lat="44.212095234543085" lon="9.555735234171152">
        <ele>289.49000000000001</ele>
        <time>2014-04-13T11:34:45Z</time>
      </trkpt>
      <trkpt lat="44.212108729407191" lon="9.555708998814225">
        <ele>289.49000000000001</ele>
        <time>2014-04-13T11:34:46Z</time>
      </trkpt>
      <trkpt lat="44.212119793519378" lon="9.555688127875328">
        <ele>289.49000000000001</ele>
        <time>2014-04-13T11:34:47Z</time>
      </trkpt>
      <trkpt lat="44.212127085775137" lon="9.555670358240604">
        <ele>289.49000000000001</ele>
        <time>2014-04-13T11:34:48Z</time>
      </trkpt>
      <trkpt lat="44.212169162929058" lon="9.555586371570826">
        <ele>289.49000000000001</ele>
        <time>2014-04-13T11:34:56Z</time>
      </trkpt>
      <trkpt lat="44.212187519297004" lon="9.555566757917404">
        <ele>289.00999999999999</ele>
        <time>2014-04-13T11:35:07Z</time>
      </trkpt>
      <trkpt lat="44.212186262011528" lon="9.555579917505384">
        <ele>289.00999999999999</ele>
        <time>2014-04-13T11:35:23Z</time>
      </trkpt>
      <trkpt lat="44.21218441799283" lon="9.55559047870338">
        <ele>289.00999999999999</ele>
        <time>2014-04-13T11:35:41Z</time>
      </trkpt>
      <trkpt lat="44.212148291990161" lon="9.555625095963478">
        <ele>289.00999999999999</ele>
        <time>2014-04-13T11:35:52Z</time>
      </trkpt>
      <trkpt lat="44.212146867066622" lon="9.555618977174163">
        <ele>289.00999999999999</ele>
        <time>2014-04-13T11:36:10Z</time>
      </trkpt>
      <trkpt lat="44.212150471284986" lon="9.555624006316066">
        <ele>289.00999999999999</ele>
        <time>2014-04-13T11:36:31Z</time>
      </trkpt>
      <trkpt lat="44.212143933400512" lon="9.555604727938771">
        <ele>289.00999999999999</ele>
        <time>2014-04-13T11:36:55Z</time>
      </trkpt>
      <trkpt lat="44.212135467678308" lon="9.555606488138437">
        <ele>289.00999999999999</ele>
        <time>2014-04-13T11:36:59Z</time>
      </trkpt>
      <trkpt lat="44.212120296433568" lon="9.555594753473997">
        <ele>289.00999999999999</ele>
        <time>2014-04-13T11:37:15Z</time>
      </trkpt>
      <trkpt lat="44.212122308090329" lon="9.555610762909055">
        <ele>289.00999999999999</ele>
        <time>2014-04-13T11:37:38Z</time>
      </trkpt>
      <trkpt lat="44.212120296433568" lon="9.555630292743444">
        <ele>289.00999999999999</ele>
        <time>2014-04-13T11:37:50Z</time>
      </trkpt>
      <trkpt lat="44.212119542062283" lon="9.555657701566815">
        <ele>289.00999999999999</ele>
        <time>2014-04-13T11:37:56Z</time>
      </trkpt>
      <trkpt lat="44.21211015433073" lon="9.555681170895696">
        <ele>289.00999999999999</ele>
        <time>2014-04-13T11:37:59Z</time>
      </trkpt>
      <trkpt lat="44.212104119360447" lon="9.555700700730085">
        <ele>289.00999999999999</ele>
        <time>2014-04-13T11:38:00Z</time>
      </trkpt>
      <trkpt lat="44.212095737457275" lon="9.555731378495693">
        <ele>289.00999999999999</ele>
        <time>2014-04-13T11:38:03Z</time>
      </trkpt>
      <trkpt lat="44.212092719972134" lon="9.555744957178831">
        <ele>289.00999999999999</ele>
        <time>2014-04-13T11:38:04Z</time>
      </trkpt>
      <trkpt lat="44.212093893438578" lon="9.555780496448278">
        <ele>289.00999999999999</ele>
        <time>2014-04-13T11:38:07Z</time>
      </trkpt>
      <trkpt lat="44.212093139067292" lon="9.555796505883336">
        <ele>289.00999999999999</ele>
        <time>2014-04-13T11:38:08Z</time>
      </trkpt>
      <trkpt lat="44.212090792134404" lon="9.55581427551806">
        <ele>289.00999999999999</ele>
        <time>2014-04-13T11:38:10Z</time>
      </trkpt>
      <trkpt lat="44.212085260078311" lon="9.555842103436589">
        <ele>289.00999999999999</ele>
        <time>2014-04-13T11:38:13Z</time>
      </trkpt>
      <trkpt lat="44.212088864296675" lon="9.555880157276988">
        <ele>288.52999999999997</ele>
        <time>2014-04-13T11:38:19Z</time>
      </trkpt>
      <trkpt lat="44.212106969207525" lon="9.555886695161462">
        <ele>288.52999999999997</ele>
        <time>2014-04-13T11:38:31Z</time>
      </trkpt>
      <trkpt lat="44.21206614933908" lon="9.555889209732413">
        <ele>289.00999999999999</ele>
        <time>2014-04-13T11:38:51Z</time>
      </trkpt>
      <trkpt lat="44.21206665225327" lon="9.555882168933749">
        <ele>289.49000000000001</ele>
        <time>2014-04-13T11:39:17Z</time>
      </trkpt>
      <trkpt lat="44.212050056084991" lon="9.555891808122397">
        <ele>289.49000000000001</ele>
        <time>2014-04-13T11:39:36Z</time>
      </trkpt>
      <trkpt lat="44.212074866518378" lon="9.555946961045265">
        <ele>288.05000000000001</ele>
        <time>2014-04-13T11:39:48Z</time>
      </trkpt>
      <trkpt lat="44.212053827941418" lon="9.555962886661291">
        <ele>288.05000000000001</ele>
        <time>2014-04-13T11:40:03Z</time>
      </trkpt>
      <trkpt lat="44.212040835991502" lon="9.555956348776817">
        <ele>288.05000000000001</ele>
        <time>2014-04-13T11:40:18Z</time>
      </trkpt>
      <trkpt lat="44.212041087448597" lon="9.555953415110707">
        <ele>292.38</ele>
        <time>2014-04-13T11:40:21Z</time>
      </trkpt>
      <trkpt lat="44.212042512372136" lon="9.555945619940758">
        <ele>289.49000000000001</ele>
        <time>2014-04-13T11:40:22Z</time>
      </trkpt>
      <trkpt lat="44.212074279785156" lon="9.555923910811544">
        <ele>288.05000000000001</ele>
        <time>2014-04-13T11:40:36Z</time>
      </trkpt>
      <trkpt lat="44.212066568434238" lon="9.555928688496351">
        <ele>289.49000000000001</ele>
        <time>2014-04-13T11:40:55Z</time>
      </trkpt>
      <trkpt lat="44.212071932852268" lon="9.555920977145433">
        <ele>289.49000000000001</ele>
        <time>2014-04-13T11:41:19Z</time>
      </trkpt>
      <trkpt lat="44.212069250643253" lon="9.555910835042596">
        <ele>289.49000000000001</ele>
        <time>2014-04-13T11:41:33Z</time>
      </trkpt>
      <trkpt lat="44.212056593969464" lon="9.555911002680659">
        <ele>289.49000000000001</ele>
        <time>2014-04-13T11:41:50Z</time>
      </trkpt>
      <trkpt lat="44.212059779092669" lon="9.555906057357788">
        <ele>289.49000000000001</ele>
        <time>2014-04-13T11:42:01Z</time>
      </trkpt>
      <trkpt lat="44.212060114368796" lon="9.555902620777488">
        <ele>289.49000000000001</ele>
        <time>2014-04-13T11:42:20Z</time>
      </trkpt>
      <trkpt lat="44.21207251958549" lon="9.555897591635585">
        <ele>289.49000000000001</ele>
        <time>2014-04-13T11:42:46Z</time>
      </trkpt>
      <trkpt lat="44.21208567917347" lon="9.555801451206207">
        <ele>289.49000000000001</ele>
        <time>2014-04-13T11:42:59Z</time>
      </trkpt>
      <trkpt lat="44.212092217057943" lon="9.555779322981834">
        <ele>289.49000000000001</ele>
        <time>2014-04-13T11:43:00Z</time>
      </trkpt>
      <trkpt lat="44.212100096046925" lon="9.555752165615559">
        <ele>289.49000000000001</ele>
        <time>2014-04-13T11:43:01Z</time>
      </trkpt>
      <trkpt lat="44.212109902873635" lon="9.555725762620568">
        <ele>289.49000000000001</ele>
        <time>2014-04-13T11:43:02Z</time>
      </trkpt>
      <trkpt lat="44.212118033319712" lon="9.555702041834593">
        <ele>289.49000000000001</ele>
        <time>2014-04-13T11:43:03Z</time>
      </trkpt>
      <trkpt lat="44.212122224271297" lon="9.555684104561806">
        <ele>289.49000000000001</ele>
        <time>2014-04-13T11:43:04Z</time>
      </trkpt>
      <trkpt lat="44.2121238168329" lon="9.555670358240604">
        <ele>289.49000000000001</ele>
        <time>2014-04-13T11:43:05Z</time>
      </trkpt>
      <trkpt lat="44.212127672508359" lon="9.555659294128418">
        <ele>289.49000000000001</ele>
        <time>2014-04-13T11:43:06Z</time>
      </trkpt>
      <trkpt lat="44.212132450193167" lon="9.555644961073995">
        <ele>289.49000000000001</ele>
        <time>2014-04-13T11:43:07Z</time>
      </trkpt>
      <trkpt lat="44.212134629487991" lon="9.555631382390857">
        <ele>289.49000000000001</ele>
        <time>2014-04-13T11:43:08Z</time>
      </trkpt>
      <trkpt lat="44.212140748277307" lon="9.55561688169837">
        <ele>289.49000000000001</ele>
        <time>2014-04-13T11:43:09Z</time>
      </trkpt>
      <trkpt lat="44.212149633094668" lon="9.555599028244615">
        <ele>289.49000000000001</ele>
        <time>2014-04-13T11:43:10Z</time>
      </trkpt>
      <trkpt lat="44.212159439921379" lon="9.555578660219908">
        <ele>289.49000000000001</ele>
        <time>2014-04-13T11:43:11Z</time>
      </trkpt>
      <trkpt lat="44.212168240919709" lon="9.555558124557138">
        <ele>289.49000000000001</ele>
        <time>2014-04-13T11:43:12Z</time>
      </trkpt>
      <trkpt lat="44.212174024432898" lon="9.555538762360811">
        <ele>289.49000000000001</ele>
        <time>2014-04-13T11:43:13Z</time>
      </trkpt>
      <trkpt lat="44.212200595065951" lon="9.555446729063988">
        <ele>288.05000000000001</ele>
        <time>2014-04-13T11:43:29Z</time>
      </trkpt>
      <trkpt lat="44.21220981515944" lon="9.555401550605893">
        <ele>288.05000000000001</ele>
        <time>2014-04-13T11:43:45Z</time>
      </trkpt>
      <trkpt lat="44.212219789624214" lon="9.555422086268663">
        <ele>288.05000000000001</ele>
        <time>2014-04-13T11:43:59Z</time>
      </trkpt>
      <trkpt lat="44.212216855958104" lon="9.555428540334106">
        <ele>288.05000000000001</ele>
        <time>2014-04-13T11:44:08Z</time>
      </trkpt>
      <trkpt lat="44.21223571524024" lon="9.555408675223589">
        <ele>288.05000000000001</ele>
        <time>2014-04-13T11:44:25Z</time>
      </trkpt>
      <trkpt lat="44.212256921455264" lon="9.555400628596544">
        <ele>288.05000000000001</ele>
        <time>2014-04-13T11:44:33Z</time>
      </trkpt>
      <trkpt lat="44.212268237024546" lon="9.555398030206561">
        <ele>288.05000000000001</ele>
        <time>2014-04-13T11:44:47Z</time>
      </trkpt>
      <trkpt lat="44.212289191782475" lon="9.555384451523423">
        <ele>288.05000000000001</ele>
        <time>2014-04-13T11:45:03Z</time>
      </trkpt>
      <trkpt lat="44.212300591170788" lon="9.55537598580122">
        <ele>288.05000000000001</ele>
        <time>2014-04-13T11:45:18Z</time>
      </trkpt>
      <trkpt lat="44.212285000830889" lon="9.555371040478349">
        <ele>288.05000000000001</ele>
        <time>2014-04-13T11:45:34Z</time>
      </trkpt>
      <trkpt lat="44.212292460724711" lon="9.55537841655314">
        <ele>288.05000000000001</ele>
        <time>2014-04-13T11:45:53Z</time>
      </trkpt>
      <trkpt lat="44.212283324450254" lon="9.55538235604763">
        <ele>288.05000000000001</ele>
        <time>2014-04-13T11:46:14Z</time>
      </trkpt>
      <trkpt lat="44.212266728281975" lon="9.555369867011905">
        <ele>288.52999999999997</ele>
        <time>2014-04-13T11:46:45Z</time>
      </trkpt>
      <trkpt lat="44.212271841242909" lon="9.555343464016914">
        <ele>288.52999999999997</ele>
        <time>2014-04-13T11:46:59Z</time>
      </trkpt>
      <trkpt lat="44.212270919233561" lon="9.555336339399219">
        <ele>288.52999999999997</ele>
        <time>2014-04-13T11:47:01Z</time>
      </trkpt>
      <trkpt lat="44.212273852899671" lon="9.555322676897049">
        <ele>288.52999999999997</ele>
        <time>2014-04-13T11:47:02Z</time>
      </trkpt>
      <trkpt lat="44.212274523451924" lon="9.555273139849305">
        <ele>287.56999999999999</ele>
        <time>2014-04-13T11:47:06Z</time>
      </trkpt>
      <trkpt lat="44.212285168468952" lon="9.555254364386201">
        <ele>287.56999999999999</ele>
        <time>2014-04-13T11:47:07Z</time>
      </trkpt>
      <trkpt lat="44.212292125448585" lon="9.555233661085367">
        <ele>287.56999999999999</ele>
        <time>2014-04-13T11:47:08Z</time>
      </trkpt>
      <trkpt lat="44.212294807657599" lon="9.555212957784534">
        <ele>287.08999999999997</ele>
        <time>2014-04-13T11:47:09Z</time>
      </trkpt>
      <trkpt lat="44.212292293086648" lon="9.555196026340127">
        <ele>287.08999999999997</ele>
        <time>2014-04-13T11:47:10Z</time>
      </trkpt>
      <trkpt lat="44.212315427139401" lon="9.555095108225942">
        <ele>286.13</ele>
        <time>2014-04-13T11:47:24Z</time>
      </trkpt>
      <trkpt lat="44.212324060499668" lon="9.555077087134123">
        <ele>285.17000000000002</ele>
        <time>2014-04-13T11:47:25Z</time>
      </trkpt>
      <trkpt lat="44.212384913116693" lon="9.554921016097069">
        <ele>282.76999999999998</ele>
        <time>2014-04-13T11:47:37Z</time>
      </trkpt>
      <trkpt lat="44.212427660822868" lon="9.5547656994313">
        <ele>280.36000000000001</ele>
        <time>2014-04-13T11:47:53Z</time>
      </trkpt>
      <trkpt lat="44.212438724935055" lon="9.554741140455008">
        <ele>279.88</ele>
        <time>2014-04-13T11:47:54Z</time>
      </trkpt>
      <trkpt lat="44.212446939200163" lon="9.554717754945159">
        <ele>279.88</ele>
        <time>2014-04-13T11:47:55Z</time>
      </trkpt>
      <trkpt lat="44.212474850937724" lon="9.554597726091743">
        <ele>278.44</ele>
        <time>2014-04-13T11:48:05Z</time>
      </trkpt>
      <trkpt lat="44.212477784603834" lon="9.554569898173213">
        <ele>277.95999999999998</ele>
        <time>2014-04-13T11:48:07Z</time>
      </trkpt>
      <trkpt lat="44.212502175942063" lon="9.55449647270143">
        <ele>276.51999999999998</ele>
        <time>2014-04-13T11:48:18Z</time>
      </trkpt>
      <trkpt lat="44.212463535368443" lon="9.554512901231647">
        <ele>276.04000000000002</ele>
        <time>2014-04-13T11:48:26Z</time>
      </trkpt>
      <trkpt lat="44.212442496791482" lon="9.554517008364201">
        <ele>275.06999999999999</ele>
        <time>2014-04-13T11:48:32Z</time>
      </trkpt>
      <trkpt lat="44.212480382993817" lon="9.554504184052348">
        <ele>274.11000000000001</ele>
        <time>2014-04-13T11:48:45Z</time>
      </trkpt>
      <trkpt lat="44.212507121264935" lon="9.554469902068377">
        <ele>273.14999999999998</ele>
        <time>2014-04-13T11:48:54Z</time>
      </trkpt>
      <trkpt lat="44.212497482076287" lon="9.554386669769883">
        <ele>271.70999999999998</ele>
        <time>2014-04-13T11:49:03Z</time>
      </trkpt>
      <trkpt lat="44.212491866201162" lon="9.55436596646905">
        <ele>271.70999999999998</ele>
        <time>2014-04-13T11:49:04Z</time>
      </trkpt>
      <trkpt lat="44.21248247846961" lon="9.554345430806279">
        <ele>271.23000000000002</ele>
        <time>2014-04-13T11:49:05Z</time>
      </trkpt>
      <trkpt lat="44.212470324710011" lon="9.554332103580236">
        <ele>271.23000000000002</ele>
        <time>2014-04-13T11:49:06Z</time>
      </trkpt>
      <trkpt lat="44.212456829845905" lon="9.554321123287082">
        <ele>271.23000000000002</ele>
        <time>2014-04-13T11:49:07Z</time>
      </trkpt>
      <trkpt lat="44.212446520105004" lon="9.55431517213583">
        <ele>270.26999999999998</ele>
        <time>2014-04-13T11:49:08Z</time>
      </trkpt>
      <trkpt lat="44.212389104068279" lon="9.554339479655027">
        <ele>268.35000000000002</ele>
        <time>2014-04-13T11:49:21Z</time>
      </trkpt>
      <trkpt lat="44.21233001165092" lon="9.554370660334826">
        <ele>267.38</ele>
        <time>2014-04-13T11:49:29Z</time>
      </trkpt>
      <trkpt lat="44.212271170690656" lon="9.554424975067377">
        <ele>265.45999999999998</ele>
        <time>2014-04-13T11:49:35Z</time>
      </trkpt>
      <trkpt lat="44.212234793230891" lon="9.554459089413285">
        <ele>264.5</ele>
        <time>2014-04-13T11:49:47Z</time>
      </trkpt>
      <trkpt lat="44.212167570367455" lon="9.554535280913115">
        <ele>263.06</ele>
        <time>2014-04-13T11:49:56Z</time>
      </trkpt>
      <trkpt lat="44.21213504858315" lon="9.554577358067036">
        <ele>262.57999999999998</ele>
        <time>2014-04-13T11:50:05Z</time>
      </trkpt>
      <trkpt lat="44.212038991972804" lon="9.554662266746163">
        <ele>260.64999999999998</ele>
        <time>2014-04-13T11:50:16Z</time>
      </trkpt>
      <trkpt lat="44.211966069415212" lon="9.554708953946829">
        <ele>257.76999999999998</ele>
        <time>2014-04-13T11:50:28Z</time>
      </trkpt>
      <trkpt lat="44.21196062117815" lon="9.554717503488064">
        <ele>257.76999999999998</ele>
        <time>2014-04-13T11:50:33Z</time>
      </trkpt>
      <trkpt lat="44.211945030838251" lon="9.55472756177187">
        <ele>257.76999999999998</ele>
        <time>2014-04-13T11:50:35Z</time>
      </trkpt>
      <trkpt lat="44.211902618408203" lon="9.554769722744823">
        <ele>256.81</ele>
        <time>2014-04-13T11:50:50Z</time>
      </trkpt>
      <trkpt lat="44.211893565952778" lon="9.554784055799246">
        <ele>256.81</ele>
        <time>2014-04-13T11:50:52Z</time>
      </trkpt>
      <trkpt lat="44.211778063327074" lon="9.554818505421281">
        <ele>253.93000000000001</ele>
        <time>2014-04-13T11:51:04Z</time>
      </trkpt>
      <trkpt lat="44.211706817150116" lon="9.554868210107088">
        <ele>252.47999999999999</ele>
        <time>2014-04-13T11:51:11Z</time>
      </trkpt>
      <trkpt lat="44.211585866287351" lon="9.554903330281377">
        <ele>249.59999999999999</ele>
        <time>2014-04-13T11:51:23Z</time>
      </trkpt>
      <trkpt lat="44.211428621783853" lon="9.554924536496401">
        <ele>246.22999999999999</ele>
        <time>2014-04-13T11:51:37Z</time>
      </trkpt>
      <trkpt lat="44.211372463032603" lon="9.554956806823611">
        <ele>243.83000000000001</ele>
        <time>2014-04-13T11:51:53Z</time>
      </trkpt>
      <trkpt lat="44.211321668699384" lon="9.555006930604577">
        <ele>242.38999999999999</ele>
        <time>2014-04-13T11:52:09Z</time>
      </trkpt>
      <trkpt lat="44.211239190772176" lon="9.555038111284375">
        <ele>238.53999999999999</ele>
        <time>2014-04-13T11:52:20Z</time>
      </trkpt>
      <trkpt lat="44.211171297356486" lon="9.555051689967513">
        <ele>235.66</ele>
        <time>2014-04-13T11:52:29Z</time>
      </trkpt>
      <trkpt lat="44.211086975410581" lon="9.555105669423938">
        <ele>233.25999999999999</ele>
        <time>2014-04-13T11:52:38Z</time>
      </trkpt>
      <trkpt lat="44.211053531616926" lon="9.555027214810252">
        <ele>231.33000000000001</ele>
        <time>2014-04-13T11:52:53Z</time>
      </trkpt>
      <trkpt lat="44.211085131391883" lon="9.55494842492044">
        <ele>228.93000000000001</ele>
        <time>2014-04-13T11:53:12Z</time>
      </trkpt>
      <trkpt lat="44.211113546043634" lon="9.55485362559557">
        <ele>226.53</ele>
        <time>2014-04-13T11:53:29Z</time>
      </trkpt>
      <trkpt lat="44.211075156927109" lon="9.554852619767189">
        <ele>224.61000000000001</ele>
        <time>2014-04-13T11:53:33Z</time>
      </trkpt>
      <trkpt lat="44.211055962368846" lon="9.554746672511101">
        <ele>221.24000000000001</ele>
        <time>2014-04-13T11:53:44Z</time>
      </trkpt>
      <trkpt lat="44.211086388677359" lon="9.554697973653674">
        <ele>220.28</ele>
        <time>2014-04-13T11:54:06Z</time>
      </trkpt>
      <trkpt lat="44.211093680933118" lon="9.554666373878717">
        <ele>219.80000000000001</ele>
        <time>2014-04-13T11:54:08Z</time>
      </trkpt>
      <trkpt lat="44.211125280708075" lon="9.554571071639657">
        <ele>217.40000000000001</ele>
        <time>2014-04-13T11:54:14Z</time>
      </trkpt>
      <trkpt lat="44.211166184395552" lon="9.554475266486406">
        <ele>214.99000000000001</ele>
        <time>2014-04-13T11:54:24Z</time>
      </trkpt>
      <trkpt lat="44.211074486374855" lon="9.554528994485736">
        <ele>212.11000000000001</ele>
        <time>2014-04-13T11:54:33Z</time>
      </trkpt>
      <trkpt lat="44.210960743948817" lon="9.554602419957519">
        <ele>208.74000000000001</ele>
        <time>2014-04-13T11:54:44Z</time>
      </trkpt>
      <trkpt lat="44.21089586801827" lon="9.554601330310106">
        <ele>206.81999999999999</ele>
        <time>2014-04-13T11:54:51Z</time>
      </trkpt>
      <trkpt lat="44.210795871913433" lon="9.554621782153845">
        <ele>203.94</ele>
        <time>2014-04-13T11:55:02Z</time>
      </trkpt>
      <trkpt lat="44.210739294067025" lon="9.554694704711437">
        <ele>203.46000000000001</ele>
        <time>2014-04-13T11:55:07Z</time>
      </trkpt>
      <trkpt lat="44.210677687078714" lon="9.554770477116108">
        <ele>202.97999999999999</ele>
        <time>2014-04-13T11:55:17Z</time>
      </trkpt>
      <trkpt lat="44.210610715672374" lon="9.554729321971536">
        <ele>202.49000000000001</ele>
        <time>2014-04-13T11:55:31Z</time>
      </trkpt>
      <trkpt lat="44.210567884147167" lon="9.55473443493247">
        <ele>201.53</ele>
        <time>2014-04-13T11:55:48Z</time>
      </trkpt>
      <trkpt lat="44.210615325719118" lon="9.554729154333472">
        <ele>200.09</ele>
        <time>2014-04-13T11:56:06Z</time>
      </trkpt>
      <trkpt lat="44.210599483922124" lon="9.554713563993573">
        <ele>197.21000000000001</ele>
        <time>2014-04-13T11:56:17Z</time>
      </trkpt>
      <trkpt lat="44.210531339049339" lon="9.554703338071704">
        <ele>195.77000000000001</ele>
        <time>2014-04-13T11:56:26Z</time>
      </trkpt>
      <trkpt lat="44.210463277995586" lon="9.55465966835618">
        <ele>194.80000000000001</ele>
        <time>2014-04-13T11:56:30Z</time>
      </trkpt>
      <trkpt lat="44.210315253585577" lon="9.554715659469366">
        <ele>191.44</ele>
        <time>2014-04-13T11:56:43Z</time>
      </trkpt>
      <trkpt lat="44.210201511159539" lon="9.554730663076043">
        <ele>188.08000000000001</ele>
        <time>2014-04-13T11:56:55Z</time>
      </trkpt>
      <trkpt lat="44.210146944969893" lon="9.554713731631637">
        <ele>185.19</ele>
        <time>2014-04-13T11:57:06Z</time>
      </trkpt>
      <trkpt lat="44.210118111222982" lon="9.554709540680051">
        <ele>184.22999999999999</ele>
        <time>2014-04-13T11:57:12Z</time>
      </trkpt>
      <trkpt lat="44.210006380453706" lon="9.554655896499753">
        <ele>181.34999999999999</ele>
        <time>2014-04-13T11:57:26Z</time>
      </trkpt>
      <trkpt lat="44.209914011880755" lon="9.554633097723126">
        <ele>178.46000000000001</ele>
        <time>2014-04-13T11:57:38Z</time>
      </trkpt>
      <trkpt lat="44.209811417385936" lon="9.554553804919124">
        <ele>176.53999999999999</ele>
        <time>2014-04-13T11:57:53Z</time>
      </trkpt>
      <trkpt lat="44.209796078503132" lon="9.55449940636754">
        <ele>176.06</ele>
        <time>2014-04-13T11:58:06Z</time>
      </trkpt>
      <trkpt lat="44.209776716306806" lon="9.554498316720128">
        <ele>176.06</ele>
        <time>2014-04-13T11:58:32Z</time>
      </trkpt>
      <trkpt lat="44.209796413779259" lon="9.554506950080395">
        <ele>175.58000000000001</ele>
        <time>2014-04-13T11:59:04Z</time>
      </trkpt>
      <trkpt lat="44.209789205342531" lon="9.554503597319126">
        <ele>175.58000000000001</ele>
        <time>2014-04-13T11:59:26Z</time>
      </trkpt>
      <trkpt lat="44.209662387147546" lon="9.554489012807608">
        <ele>172.69</ele>
        <time>2014-04-13T11:59:40Z</time>
      </trkpt>
      <trkpt lat="44.209629027172923" lon="9.554477697238326">
        <ele>172.21000000000001</ele>
        <time>2014-04-13T11:59:52Z</time>
      </trkpt>
      <trkpt lat="44.209529031068087" lon="9.554426902905107">
        <ele>169.81</ele>
        <time>2014-04-13T12:00:04Z</time>
      </trkpt>
      <trkpt lat="44.209493324160576" lon="9.554413827136159">
        <ele>168.84999999999999</ele>
        <time>2014-04-13T12:00:09Z</time>
      </trkpt>
      <trkpt lat="44.209437668323517" lon="9.554373258724809">
        <ele>167.88999999999999</ele>
        <time>2014-04-13T12:00:19Z</time>
      </trkpt>
      <trkpt lat="44.209384107962251" lon="9.554294301196933">
        <ele>165.96000000000001</ele>
        <time>2014-04-13T12:00:26Z</time>
      </trkpt>
      <trkpt lat="44.209368349984288" lon="9.554269909858704">
        <ele>165.47999999999999</ele>
        <time>2014-04-13T12:00:28Z</time>
      </trkpt>
      <trkpt lat="44.209336331114173" lon="9.554229592904449">
        <ele>164.52000000000001</ele>
        <time>2014-04-13T12:00:41Z</time>
      </trkpt>
      <trkpt lat="44.209315460175276" lon="9.554121382534504">
        <ele>161.63999999999999</ele>
        <time>2014-04-13T12:00:50Z</time>
      </trkpt>
      <trkpt lat="44.209329877048731" lon="9.554022643715143">
        <ele>160.68000000000001</ele>
        <time>2014-04-13T12:00:58Z</time>
      </trkpt>
      <trkpt lat="44.20923893339932" lon="9.55403471365571">
        <ele>160.68000000000001</ele>
        <time>2014-04-13T12:01:02Z</time>
      </trkpt>
      <trkpt lat="44.209224432706833" lon="9.554028594866395">
        <ele>160.68000000000001</ele>
        <time>2014-04-13T12:01:03Z</time>
      </trkpt>
      <trkpt lat="44.209197359159589" lon="9.554015351459384">
        <ele>161.16</ele>
        <time>2014-04-13T12:01:05Z</time>
      </trkpt>
      <trkpt lat="44.208986554294825" lon="9.554088609293103">
        <ele>160.19999999999999</ele>
        <time>2014-04-13T12:01:22Z</time>
      </trkpt>
      <trkpt lat="44.208949590101838" lon="9.55406648106873">
        <ele>159.72</ele>
        <time>2014-04-13T12:01:32Z</time>
      </trkpt>
      <trkpt lat="44.208929724991322" lon="9.554054075852037">
        <ele>159.24000000000001</ele>
        <time>2014-04-13T12:01:43Z</time>
      </trkpt>
      <trkpt lat="44.208873901516199" lon="9.554138733074069">
        <ele>158.27000000000001</ele>
        <time>2014-04-13T12:01:53Z</time>
      </trkpt>
      <trkpt lat="44.208812043070793" lon="9.554199418053031">
        <ele>157.31</ele>
        <time>2014-04-13T12:01:57Z</time>
      </trkpt>
      <trkpt lat="44.208658989518881" lon="9.554395638406277">
        <ele>156.34999999999999</ele>
        <time>2014-04-13T12:02:15Z</time>
      </trkpt>
      <trkpt lat="44.208624204620719" lon="9.55461909994483">
        <ele>156.34999999999999</ele>
        <time>2014-04-13T12:02:34Z</time>
      </trkpt>
      <trkpt lat="44.208583049476147" lon="9.554690513759852">
        <ele>156.34999999999999</ele>
        <time>2014-04-13T12:02:38Z</time>
      </trkpt>
      <trkpt lat="44.208564106374979" lon="9.554708199575543">
        <ele>156.34999999999999</ele>
        <time>2014-04-13T12:02:39Z</time>
      </trkpt>
      <trkpt lat="44.20847718603909" lon="9.554806016385555">
        <ele>156.34999999999999</ele>
        <time>2014-04-13T12:02:48Z</time>
      </trkpt>
      <trkpt lat="44.208458494395018" lon="9.554810458794236">
        <ele>156.34999999999999</ele>
        <time>2014-04-13T12:02:49Z</time>
      </trkpt>
      <trkpt lat="44.208434857428074" lon="9.55481356009841">
        <ele>156.34999999999999</ele>
        <time>2014-04-13T12:02:50Z</time>
      </trkpt>
      <trkpt lat="44.20841365121305" lon="9.554818756878376">
        <ele>156.34999999999999</ele>
        <time>2014-04-13T12:02:51Z</time>
      </trkpt>
      <trkpt lat="44.208399737253785" lon="9.554825965315104">
        <ele>156.34999999999999</ele>
        <time>2014-04-13T12:02:52Z</time>
      </trkpt>
      <trkpt lat="44.208280211314559" lon="9.554858235642314">
        <ele>153.94999999999999</ele>
        <time>2014-04-13T12:03:03Z</time>
      </trkpt>
      <trkpt lat="44.208265626803041" lon="9.554867288097739">
        <ele>153.47</ele>
        <time>2014-04-13T12:03:05Z</time>
      </trkpt>
      <trkpt lat="44.208252802491188" lon="9.554872401058674">
        <ele>153.47</ele>
        <time>2014-04-13T12:03:06Z</time>
      </trkpt>
      <trkpt lat="44.208237631246448" lon="9.554879022762179">
        <ele>152.99000000000001</ele>
        <time>2014-04-13T12:03:07Z</time>
      </trkpt>
      <trkpt lat="44.208222627639771" lon="9.554884806275368">
        <ele>152.99000000000001</ele>
        <time>2014-04-13T12:03:08Z</time>
      </trkpt>
      <trkpt lat="44.208191949874163" lon="9.554904168471694">
        <ele>152.99000000000001</ele>
        <time>2014-04-13T12:03:12Z</time>
      </trkpt>
      <trkpt lat="44.208180718123913" lon="9.554915064945817">
        <ele>152.50999999999999</ele>
        <time>2014-04-13T12:03:13Z</time>
      </trkpt>
      <trkpt lat="44.208119278773665" lon="9.554955717176199">
        <ele>152.03</ele>
        <time>2014-04-13T12:03:20Z</time>
      </trkpt>
      <trkpt lat="44.208105616271496" lon="9.554959489032626">
        <ele>151.06</ele>
        <time>2014-04-13T12:03:21Z</time>
      </trkpt>
      <trkpt lat="44.208076279610395" lon="9.554971726611257">
        <ele>150.58000000000001</ele>
        <time>2014-04-13T12:03:24Z</time>
      </trkpt>
      <trkpt lat="44.20806379057467" lon="9.554977426305413">
        <ele>150.58000000000001</ele>
        <time>2014-04-13T12:03:25Z</time>
      </trkpt>
      <trkpt lat="44.208048954606056" lon="9.554984383285046">
        <ele>150.09999999999999</ele>
        <time>2014-04-13T12:03:26Z</time>
      </trkpt>
      <trkpt lat="44.208034453913569" lon="9.554985472932458">
        <ele>150.09999999999999</ele>
        <time>2014-04-13T12:03:27Z</time>
      </trkpt>
      <trkpt lat="44.207887519150972" lon="9.554971307516098">
        <ele>146.74000000000001</ele>
        <time>2014-04-13T12:03:41Z</time>
      </trkpt>
      <trkpt lat="44.207812333479524" lon="9.55496066249907">
        <ele>144.34</ele>
        <time>2014-04-13T12:03:50Z</time>
      </trkpt>
      <trkpt lat="44.207690041512251" lon="9.554989160969853">
        <ele>141.44999999999999</ele>
        <time>2014-04-13T12:04:05Z</time>
      </trkpt>
      <trkpt lat="44.207554757595062" lon="9.554980024695396">
        <ele>137.61000000000001</ele>
        <time>2014-04-13T12:04:20Z</time>
      </trkpt>
      <trkpt lat="44.207405475899577" lon="9.555156212300062">
        <ele>135.68000000000001</ele>
        <time>2014-04-13T12:04:38Z</time>
      </trkpt>
      <trkpt lat="44.207221660763025" lon="9.555286383256316">
        <ele>133.28</ele>
        <time>2014-04-13T12:04:59Z</time>
      </trkpt>
      <trkpt lat="44.207021500915289" lon="9.555237349122763">
        <ele>130.40000000000001</ele>
        <time>2014-04-13T12:05:16Z</time>
      </trkpt>
      <trkpt lat="44.206821760162711" lon="9.555187895894051">
        <ele>127.03</ele>
        <time>2014-04-13T12:05:34Z</time>
      </trkpt>
      <trkpt lat="44.206724697723985" lon="9.555241959169507">
        <ele>126.06999999999999</ele>
        <time>2014-04-13T12:05:43Z</time>
      </trkpt>
      <trkpt lat="44.206593269482255" lon="9.555317731574178">
        <ele>127.51000000000001</ele>
        <time>2014-04-13T12:05:53Z</time>
      </trkpt>
      <trkpt lat="44.206434683874249" lon="9.555452009662986">
        <ele>127.03</ele>
        <time>2014-04-13T12:06:06Z</time>
      </trkpt>
      <trkpt lat="44.206347344443202" lon="9.555581090971828">
        <ele>126.06999999999999</ele>
        <time>2014-04-13T12:06:17Z</time>
      </trkpt>
      <trkpt lat="44.206255730241537" lon="9.55566918477416">
        <ele>125.59</ele>
        <time>2014-04-13T12:06:25Z</time>
      </trkpt>
      <trkpt lat="44.206107202917337" lon="9.555787537246943">
        <ele>124.63</ele>
        <time>2014-04-13T12:06:41Z</time>
      </trkpt>
      <trkpt lat="44.206037633121014" lon="9.555734563618898">
        <ele>122.70999999999999</ele>
        <time>2014-04-13T12:06:49Z</time>
      </trkpt>
      <trkpt lat="44.205958172678947" lon="9.55565208569169">
        <ele>119.34</ele>
        <time>2014-04-13T12:07:03Z</time>
      </trkpt>
      <trkpt lat="44.205890614539385" lon="9.55557337962091">
        <ele>115.98</ele>
        <time>2014-04-13T12:07:12Z</time>
      </trkpt>
      <trkpt lat="44.205811070278287" lon="9.555531805381179">
        <ele>112.61</ele>
        <time>2014-04-13T12:07:23Z</time>
      </trkpt>
      <trkpt lat="44.205762119963765" lon="9.555491404607892">
        <ele>110.69</ele>
        <time>2014-04-13T12:07:30Z</time>
      </trkpt>
      <trkpt lat="44.20571836642921" lon="9.555363412946463">
        <ele>109.25</ele>
        <time>2014-04-13T12:07:40Z</time>
      </trkpt>
      <trkpt lat="44.205650305375457" lon="9.555259644985199">
        <ele>104.92</ele>
        <time>2014-04-13T12:07:56Z</time>
      </trkpt>
      <trkpt lat="44.205548381432891" lon="9.555214382708073">
        <ele>101.56</ele>
        <time>2014-04-13T12:08:10Z</time>
      </trkpt>
      <trkpt lat="44.205477302893996" lon="9.555131988599896">
        <ele>98.189999999999998</ele>
        <time>2014-04-13T12:08:22Z</time>
      </trkpt>
      <trkpt lat="44.205418461933732" lon="9.555079517886043">
        <ele>95.310000000000002</ele>
        <time>2014-04-13T12:08:32Z</time>
      </trkpt>
      <trkpt lat="44.205360123887658" lon="9.555026376619935">
        <ele>92.900000000000006</ele>
        <time>2014-04-13T12:08:40Z</time>
      </trkpt>
      <trkpt lat="44.205274293199182" lon="9.554938450455666">
        <ele>89.060000000000002</ele>
        <time>2014-04-13T12:08:54Z</time>
      </trkpt>
      <trkpt lat="44.205199107527733" lon="9.554860750213265">
        <ele>86.659999999999997</ele>
        <time>2014-04-13T12:09:11Z</time>
      </trkpt>
      <trkpt lat="44.205118976533413" lon="9.554812470450997">
        <ele>83.769999999999996</ele>
        <time>2014-04-13T12:09:26Z</time>
      </trkpt>
      <trkpt lat="44.205046389251947" lon="9.554763017222285">
        <ele>80.409999999999997</ele>
        <time>2014-04-13T12:09:40Z</time>
      </trkpt>
      <trkpt lat="44.205000540241599" lon="9.554726723581553">
        <ele>79.930000000000007</ele>
        <time>2014-04-13T12:09:46Z</time>
      </trkpt>
      <trkpt lat="44.204855784773827" lon="9.554683137685061">
        <ele>78.969999999999999</ele>
        <time>2014-04-13T12:10:02Z</time>
      </trkpt>
      <trkpt lat="44.204827370122075" lon="9.554684227332473">
        <ele>80.409999999999997</ele>
        <time>2014-04-13T12:10:05Z</time>
      </trkpt>
      <trkpt lat="44.204640118405223" lon="9.554761340841651">
        <ele>80.409999999999997</ele>
        <time>2014-04-13T12:10:24Z</time>
      </trkpt>
      <trkpt lat="44.204476000741124" lon="9.554829401895404">
        <ele>80.409999999999997</ele>
        <time>2014-04-13T12:10:40Z</time>
      </trkpt>
      <trkpt lat="44.204370304942131" lon="9.554918920621276">
        <ele>78.969999999999999</ele>
        <time>2014-04-13T12:10:51Z</time>
      </trkpt>
      <trkpt lat="44.204313810914755" lon="9.554941300302744">
        <ele>78.480000000000004</ele>
        <time>2014-04-13T12:10:57Z</time>
      </trkpt>
      <trkpt lat="44.204253796488047" lon="9.554868126288056">
        <ele>78.480000000000004</ele>
        <time>2014-04-13T12:11:05Z</time>
      </trkpt>
      <trkpt lat="44.20424172654748" lon="9.55484775826335">
        <ele>78.480000000000004</ele>
        <time>2014-04-13T12:11:07Z</time>
      </trkpt>
      <trkpt lat="44.204198224470019" lon="9.554730076342821">
        <ele>78.480000000000004</ele>
        <time>2014-04-13T12:11:23Z</time>
      </trkpt>
      <trkpt lat="44.204226052388549" lon="9.554740721359849">
        <ele>78.480000000000004</ele>
        <time>2014-04-13T12:11:46Z</time>
      </trkpt>
      <trkpt lat="44.204181963577867" lon="9.554730243980885">
        <ele>78.480000000000004</ele>
        <time>2014-04-13T12:12:03Z</time>
      </trkpt>
      <trkpt lat="44.204067466780543" lon="9.554719598963857">
        <ele>78.480000000000004</ele>
        <time>2014-04-13T12:12:15Z</time>
      </trkpt>
      <trkpt lat="44.203812824562192" lon="9.554658830165863">
        <ele>78</ele>
        <time>2014-04-13T12:12:33Z</time>
      </trkpt>
      <trkpt lat="44.203835120424628" lon="9.554675342515111">
        <ele>77.519999999999996</ele>
        <time>2014-04-13T12:12:48Z</time>
      </trkpt>
      <trkpt lat="44.20383277349174" lon="9.554652124643326">
        <ele>77.519999999999996</ele>
        <time>2014-04-13T12:13:02Z</time>
      </trkpt>
      <trkpt lat="44.203791283071041" lon="9.55477106384933">
        <ele>77.519999999999996</ele>
        <time>2014-04-13T12:13:25Z</time>
      </trkpt>
      <trkpt lat="44.203734369948506" lon="9.554757149890065">
        <ele>77.519999999999996</ele>
        <time>2014-04-13T12:13:36Z</time>
      </trkpt>
      <trkpt lat="44.203697741031647" lon="9.554781708866358">
        <ele>77.519999999999996</ele>
        <time>2014-04-13T12:13:39Z</time>
      </trkpt>
      <trkpt lat="44.203643007203937" lon="9.554822277277708">
        <ele>77.519999999999996</ele>
        <time>2014-04-13T12:13:45Z</time>
      </trkpt>
      <trkpt lat="44.20359087176621" lon="9.554867455735803">
        <ele>77.519999999999996</ele>
        <time>2014-04-13T12:13:49Z</time>
      </trkpt>
      <trkpt lat="44.203482158482075" lon="9.555140119045973">
        <ele>77.519999999999996</ele>
        <time>2014-04-13T12:14:07Z</time>
      </trkpt>
      <trkpt lat="44.203464724123478" lon="9.555345727130771">
        <ele>76.560000000000002</ele>
        <time>2014-04-13T12:14:23Z</time>
      </trkpt>
      <trkpt lat="44.203462461009622" lon="9.555422589182854">
        <ele>75.120000000000005</ele>
        <time>2014-04-13T12:14:29Z</time>
      </trkpt>
      <trkpt lat="44.203567486256361" lon="9.555761804804206">
        <ele>73.200000000000003</ele>
        <time>2014-04-13T12:14:43Z</time>
      </trkpt>
      <trkpt lat="44.20352884568274" lon="9.555815029889345">
        <ele>73.200000000000003</ele>
        <time>2014-04-13T12:14:48Z</time>
      </trkpt>
      <trkpt lat="44.20343647710979" lon="9.555820813402534">
        <ele>72.719999999999999</ele>
        <time>2014-04-13T12:15:00Z</time>
      </trkpt>
      <trkpt lat="44.203278059139848" lon="9.555994486436248">
        <ele>69.829999999999998</ele>
        <time>2014-04-13T12:15:19Z</time>
      </trkpt>
      <trkpt lat="44.203094244003296" lon="9.55608936958015">
        <ele>67.909999999999997</ele>
        <time>2014-04-13T12:15:38Z</time>
      </trkpt>
      <trkpt lat="44.202927779406309" lon="9.556125998497009">
        <ele>66.469999999999999</ele>
        <time>2014-04-13T12:15:53Z</time>
      </trkpt>
      <trkpt lat="44.202671544626355" lon="9.556170841678977">
        <ele>64.069999999999993</ele>
        <time>2014-04-13T12:16:11Z</time>
      </trkpt>
      <trkpt lat="44.202456213533878" lon="9.556154916062951">
        <ele>62.619999999999997</ele>
        <time>2014-04-13T12:16:30Z</time>
      </trkpt>
      <trkpt lat="44.202304249629378" lon="9.556182911619544">
        <ele>59.740000000000002</ele>
        <time>2014-04-13T12:16:42Z</time>
      </trkpt>
      <trkpt lat="44.202155638486147" lon="9.556281482800841">
        <ele>58.780000000000001</ele>
        <time>2014-04-13T12:16:55Z</time>
      </trkpt>
      <trkpt lat="44.202076597139239" lon="9.556335210800171">
        <ele>58.780000000000001</ele>
        <time>2014-04-13T12:17:02Z</time>
      </trkpt>
      <trkpt lat="44.202064108103514" lon="9.556340323761106">
        <ele>58.299999999999997</ele>
        <time>2014-04-13T12:17:03Z</time>
      </trkpt>
      <trkpt lat="44.202051116153598" lon="9.556342251598835">
        <ele>58.299999999999997</ele>
        <time>2014-04-13T12:17:04Z</time>
      </trkpt>
      <trkpt lat="44.201936954632401" lon="9.556361865252256">
        <ele>56.859999999999999</ele>
        <time>2014-04-13T12:17:14Z</time>
      </trkpt>
      <trkpt lat="44.201847435906529" lon="9.556383993476629">
        <ele>55.409999999999997</ele>
        <time>2014-04-13T12:17:22Z</time>
      </trkpt>
      <trkpt lat="44.201833102852106" lon="9.556388016790152">
        <ele>55.409999999999997</ele>
        <time>2014-04-13T12:17:23Z</time>
      </trkpt>
      <trkpt lat="44.201818183064461" lon="9.556393381208181">
        <ele>55.409999999999997</ele>
        <time>2014-04-13T12:17:24Z</time>
      </trkpt>
      <trkpt lat="44.201755151152611" lon="9.556408133357763">
        <ele>54.93</ele>
        <time>2014-04-13T12:17:30Z</time>
      </trkpt>
      <trkpt lat="44.201742829754949" lon="9.556413581594825">
        <ele>54.93</ele>
        <time>2014-04-13T12:17:31Z</time>
      </trkpt>
      <trkpt lat="44.201732520014048" lon="9.556418862193823">
        <ele>53.969999999999999</ele>
        <time>2014-04-13T12:17:32Z</time>
      </trkpt>
      <trkpt lat="44.201585417613387" lon="9.55653210170567">
        <ele>52.049999999999997</ele>
        <time>2014-04-13T12:17:48Z</time>
      </trkpt>
      <trkpt lat="44.201557589694858" lon="9.556541740894318">
        <ele>52.049999999999997</ele>
        <time>2014-04-13T12:17:51Z</time>
      </trkpt>
      <trkpt lat="44.201546609401703" lon="9.556542243808508">
        <ele>51.57</ele>
        <time>2014-04-13T12:17:52Z</time>
      </trkpt>
      <trkpt lat="44.201536048203707" lon="9.556546015664935">
        <ele>51.57</ele>
        <time>2014-04-13T12:17:53Z</time>
      </trkpt>
      <trkpt lat="44.201436135917902" lon="9.556581303477287">
        <ele>50.609999999999999</ele>
        <time>2014-04-13T12:18:02Z</time>
      </trkpt>
      <trkpt lat="44.20142381452024" lon="9.556587338447571">
        <ele>50.130000000000003</ele>
        <time>2014-04-13T12:18:03Z</time>
      </trkpt>
      <trkpt lat="44.201410990208387" lon="9.556592954322696">
        <ele>50.130000000000003</ele>
        <time>2014-04-13T12:18:04Z</time>
      </trkpt>
      <trkpt lat="44.20134024694562" lon="9.556614495813847">
        <ele>49.649999999999999</ele>
        <time>2014-04-13T12:18:10Z</time>
      </trkpt>
      <trkpt lat="44.201313676312566" lon="9.556633187457919">
        <ele>49.159999999999997</ele>
        <time>2014-04-13T12:18:13Z</time>
      </trkpt>
      <trkpt lat="44.201149307191372" lon="9.556626901030541">
        <ele>47.240000000000002</ele>
        <time>2014-04-13T12:18:25Z</time>
      </trkpt>
      <trkpt lat="44.20112332329154" lon="9.556613322347403">
        <ele>47.240000000000002</ele>
        <time>2014-04-13T12:18:29Z</time>
      </trkpt>
      <trkpt lat="44.201108403503895" lon="9.556608628481627">
        <ele>47.240000000000002</ele>
        <time>2014-04-13T12:18:30Z</time>
      </trkpt>
      <trkpt lat="44.201076636090875" lon="9.556595804169774">
        <ele>47.240000000000002</ele>
        <time>2014-04-13T12:18:40Z</time>
      </trkpt>
      <trkpt lat="44.201077977195382" lon="9.556602677330375">
        <ele>47.240000000000002</ele>
        <time>2014-04-13T12:18:56Z</time>
      </trkpt>
      <trkpt lat="44.201097004115582" lon="9.556555487215519">
        <ele>47.240000000000002</ele>
        <time>2014-04-13T12:19:18Z</time>
      </trkpt>
      <trkpt lat="44.201072864234447" lon="9.556565629318357">
        <ele>46.759999999999998</ele>
        <time>2014-04-13T12:19:34Z</time>
      </trkpt>
      <trkpt lat="44.200942609459162" lon="9.556629164144397">
        <ele>44.840000000000003</ele>
        <time>2014-04-13T12:19:46Z</time>
      </trkpt>
      <trkpt lat="44.200897850096226" lon="9.556869473308325">
        <ele>47.240000000000002</ele>
        <time>2014-04-13T12:20:04Z</time>
      </trkpt>
      <trkpt lat="44.200813192874193" lon="9.557044319808483">
        <ele>49.159999999999997</ele>
        <time>2014-04-13T12:20:20Z</time>
      </trkpt>
      <trkpt lat="44.200799698010087" lon="9.557044990360737">
        <ele>49.159999999999997</ele>
        <time>2014-04-13T12:20:21Z</time>
      </trkpt>
      <trkpt lat="44.200647147372365" lon="9.557129982858896">
        <ele>49.159999999999997</ele>
        <time>2014-04-13T12:20:33Z</time>
      </trkpt>
      <trkpt lat="44.200565172359347" lon="9.557144064456224">
        <ele>48.200000000000003</ele>
        <time>2014-04-13T12:20:43Z</time>
      </trkpt>
      <trkpt lat="44.200551006942987" lon="9.557139035314322">
        <ele>47.719999999999999</ele>
        <time>2014-04-13T12:20:44Z</time>
      </trkpt>
      <trkpt lat="44.200427373871207" lon="9.557099808007479">
        <ele>47.719999999999999</ele>
        <time>2014-04-13T12:20:59Z</time>
      </trkpt>
      <trkpt lat="44.2003811057657" lon="9.557095784693956">
        <ele>46.759999999999998</ele>
        <time>2014-04-13T12:21:19Z</time>
      </trkpt>
      <trkpt lat="44.200316984206438" lon="9.557090168818831">
        <ele>45.32</ele>
        <time>2014-04-13T12:21:38Z</time>
      </trkpt>
      <trkpt lat="44.200227465480566" lon="9.557063262909651">
        <ele>44.359999999999999</ele>
        <time>2014-04-13T12:21:54Z</time>
      </trkpt>
      <trkpt lat="44.200166193768382" lon="9.557052534073591">
        <ele>43.880000000000003</ele>
        <time>2014-04-13T12:22:05Z</time>
      </trkpt>
      <trkpt lat="44.200177425518632" lon="9.557056473568082">
        <ele>43.880000000000003</ele>
        <time>2014-04-13T12:22:14Z</time>
      </trkpt>
      <trkpt lat="44.200163260102272" lon="9.557068878784776">
        <ele>43.880000000000003</ele>
        <time>2014-04-13T12:22:20Z</time>
      </trkpt>
      <trkpt lat="44.200147418305278" lon="9.557076171040535">
        <ele>43.880000000000003</ele>
        <time>2014-04-13T12:22:21Z</time>
      </trkpt>
      <trkpt lat="44.200131995603442" lon="9.55708522349596">
        <ele>43.880000000000003</ele>
        <time>2014-04-13T12:22:22Z</time>
      </trkpt>
      <trkpt lat="44.200017247349024" lon="9.557117410004139">
        <ele>41.950000000000003</ele>
        <time>2014-04-13T12:22:33Z</time>
      </trkpt>
      <trkpt lat="44.199941223487258" lon="9.557148842141032">
        <ele>40.509999999999998</ele>
        <time>2014-04-13T12:22:40Z</time>
      </trkpt>
      <trkpt lat="44.199929991737008" lon="9.557152697816491">
        <ele>40.509999999999998</ele>
        <time>2014-04-13T12:22:41Z</time>
      </trkpt>
      <trkpt lat="44.199830247089267" lon="9.557205252349377">
        <ele>40.509999999999998</ele>
        <time>2014-04-13T12:22:55Z</time>
      </trkpt>
      <trkpt lat="44.19981331564486" lon="9.55715361982584">
        <ele>40.509999999999998</ele>
        <time>2014-04-13T12:23:18Z</time>
      </trkpt>
      <trkpt lat="44.199733603745699" lon="9.55726501531899">
        <ele>41.469999999999999</ele>
        <time>2014-04-13T12:23:35Z</time>
      </trkpt>
      <trkpt lat="44.19972195290029" lon="9.557286640629172">
        <ele>42.439999999999998</ele>
        <time>2014-04-13T12:23:37Z</time>
      </trkpt>
      <trkpt lat="44.199637547135353" lon="9.557409686967731">
        <ele>43.880000000000003</ele>
        <time>2014-04-13T12:23:51Z</time>
      </trkpt>
      <trkpt lat="44.199634194374084" lon="9.557420667260885">
        <ele>43.880000000000003</ele>
        <time>2014-04-13T12:24:00Z</time>
      </trkpt>
      <trkpt lat="44.19962715357542" lon="9.557476993650198">
        <ele>44.359999999999999</ele>
        <time>2014-04-13T12:24:08Z</time>
      </trkpt>
      <trkpt lat="44.19961005449295" lon="9.557517729699612">
        <ele>44.840000000000003</ele>
        <time>2014-04-13T12:24:12Z</time>
      </trkpt>
      <trkpt lat="44.199583483859897" lon="9.557552598416805">
        <ele>44.840000000000003</ele>
        <time>2014-04-13T12:24:16Z</time>
      </trkpt>
      <trkpt lat="44.199558673426509" lon="9.557587467133999">
        <ele>46.280000000000001</ele>
        <time>2014-04-13T12:24:27Z</time>
      </trkpt>
      <trkpt lat="44.199507711455226" lon="9.557690816000104">
        <ele>47.719999999999999</ele>
        <time>2014-04-13T12:24:42Z</time>
      </trkpt>
      <trkpt lat="44.199513411149383" lon="9.5577048137784">
        <ele>47.719999999999999</ele>
        <time>2014-04-13T12:24:48Z</time>
      </trkpt>
      <trkpt lat="44.199509220197797" lon="9.557740353047848">
        <ele>48.200000000000003</ele>
        <time>2014-04-13T12:24:51Z</time>
      </trkpt>
      <trkpt lat="44.199507040902972" lon="9.557763654738665">
        <ele>48.200000000000003</ele>
        <time>2014-04-13T12:24:52Z</time>
      </trkpt>
      <trkpt lat="44.19950301758945" lon="9.557905392721295">
        <ele>50.609999999999999</ele>
        <time>2014-04-13T12:25:03Z</time>
      </trkpt>
      <trkpt lat="44.19946295209229" lon="9.558107731863856">
        <ele>53.490000000000002</ele>
        <time>2014-04-13T12:25:21Z</time>
      </trkpt>
      <trkpt lat="44.199443757534027" lon="9.558144528418779">
        <ele>54.450000000000003</ele>
        <time>2014-04-13T12:25:24Z</time>
      </trkpt>
      <trkpt lat="44.199424898251891" lon="9.558178475126624">
        <ele>54.450000000000003</ele>
        <time>2014-04-13T12:25:27Z</time>
      </trkpt>
      <trkpt lat="44.199404614046216" lon="9.558215187862515">
        <ele>54.93</ele>
        <time>2014-04-13T12:25:30Z</time>
      </trkpt>
      <trkpt lat="44.199394220486283" lon="9.558230191469193">
        <ele>54.93</ele>
        <time>2014-04-13T12:25:31Z</time>
      </trkpt>
      <trkpt lat="44.199376283213496" lon="9.558254247531295">
        <ele>55.409999999999997</ele>
        <time>2014-04-13T12:25:34Z</time>
      </trkpt>
      <trkpt lat="44.199358010664582" lon="9.558276375755668">
        <ele>55.890000000000001</ele>
        <time>2014-04-13T12:25:37Z</time>
      </trkpt>
      <trkpt lat="44.199350047856569" lon="9.558289032429457">
        <ele>56.369999999999997</ele>
        <time>2014-04-13T12:25:38Z</time>
      </trkpt>
      <trkpt lat="44.199327500537038" lon="9.558346532285214">
        <ele>57.340000000000003</ele>
        <time>2014-04-13T12:25:44Z</time>
      </trkpt>
      <trkpt lat="44.199283914640546" lon="9.558420460671186">
        <ele>58.299999999999997</ele>
        <time>2014-04-13T12:25:50Z</time>
      </trkpt>
      <trkpt lat="44.199218032881618" lon="9.558578291907907">
        <ele>61.18</ele>
        <time>2014-04-13T12:26:07Z</time>
      </trkpt>
      <trkpt lat="44.199174949899316" lon="9.558734782040119">
        <ele>63.579999999999998</ele>
        <time>2014-04-13T12:26:23Z</time>
      </trkpt>
      <trkpt lat="44.199168663471937" lon="9.558757496997714">
        <ele>63.579999999999998</ele>
        <time>2014-04-13T12:26:25Z</time>
      </trkpt>
      <trkpt lat="44.199164975434542" lon="9.558773171156645">
        <ele>64.069999999999993</ele>
        <time>2014-04-13T12:26:26Z</time>
      </trkpt>
      <trkpt lat="44.199156928807497" lon="9.558816086500883">
        <ele>64.549999999999997</ele>
        <time>2014-04-13T12:26:30Z</time>
      </trkpt>
      <trkpt lat="44.199155922979116" lon="9.55885355360806">
        <ele>65.510000000000005</ele>
        <time>2014-04-13T12:26:33Z</time>
      </trkpt>
      <trkpt lat="44.199144104495645" lon="9.558987161144614">
        <ele>67.430000000000007</ele>
        <time>2014-04-13T12:26:44Z</time>
      </trkpt>
      <trkpt lat="44.1991326212883" lon="9.559121774509549">
        <ele>69.349999999999994</ele>
        <time>2014-04-13T12:26:55Z</time>
      </trkpt>
      <trkpt lat="44.199105715379119" lon="9.559236941859126">
        <ele>71.760000000000005</ele>
        <time>2014-04-13T12:27:05Z</time>
      </trkpt>
      <trkpt lat="44.199091717600822" lon="9.55927868373692">
        <ele>72.239999999999995</ele>
        <time>2014-04-13T12:27:09Z</time>
      </trkpt>
      <trkpt lat="44.199082665145397" lon="9.559318330138922">
        <ele>72.719999999999999</ele>
        <time>2014-04-13T12:27:12Z</time>
      </trkpt>
      <trkpt lat="44.199078977108002" lon="9.559333166107535">
        <ele>72.719999999999999</ele>
        <time>2014-04-13T12:27:13Z</time>
      </trkpt>
      <trkpt lat="44.199019465595484" lon="9.559509102255106">
        <ele>75.599999999999994</ele>
        <time>2014-04-13T12:27:26Z</time>
      </trkpt>
      <trkpt lat="44.198946123942733" lon="9.559726109728217">
        <ele>78.480000000000004</ele>
        <time>2014-04-13T12:27:43Z</time>
      </trkpt>
      <trkpt lat="44.198825005441904" lon="9.559804061427712">
        <ele>79.450000000000003</ele>
        <time>2014-04-13T12:27:59Z</time>
      </trkpt>
      <trkpt lat="44.198796590790153" lon="9.559854604303837">
        <ele>78.969999999999999</ele>
        <time>2014-04-13T12:28:17Z</time>
      </trkpt>
      <trkpt lat="44.198762476444244" lon="9.559911014512181">
        <ele>78</ele>
        <time>2014-04-13T12:28:22Z</time>
      </trkpt>
      <trkpt lat="44.198651248589158" lon="9.560100696980953">
        <ele>76.560000000000002</ele>
        <time>2014-04-13T12:28:37Z</time>
      </trkpt>
      <trkpt lat="44.198527615517378" lon="9.560323068872094">
        <ele>76.079999999999998</ele>
        <time>2014-04-13T12:28:52Z</time>
      </trkpt>
      <trkpt lat="44.198458129540086" lon="9.560515685006976">
        <ele>75.599999999999994</ele>
        <time>2014-04-13T12:29:09Z</time>
      </trkpt>
      <trkpt lat="44.198326114565134" lon="9.560820199549198">
        <ele>75.120000000000005</ele>
        <time>2014-04-13T12:29:27Z</time>
      </trkpt>
      <trkpt lat="44.198266183957458" lon="9.560934863984585">
        <ele>75.120000000000005</ele>
        <time>2014-04-13T12:29:41Z</time>
      </trkpt>
      <trkpt lat="44.198187813162804" lon="9.561037877574563">
        <ele>76.079999999999998</ele>
        <time>2014-04-13T12:29:52Z</time>
      </trkpt>
      <trkpt lat="44.198042303323746" lon="9.561125133186579">
        <ele>78</ele>
        <time>2014-04-13T12:30:14Z</time>
      </trkpt>
      <trkpt lat="44.197929985821247" lon="9.561179028823972">
        <ele>79.930000000000007</ele>
        <time>2014-04-13T12:30:31Z</time>
      </trkpt>
      <trkpt lat="44.197822781279683" lon="9.561157654970884">
        <ele>80.890000000000001</ele>
        <time>2014-04-13T12:30:51Z</time>
      </trkpt>
      <trkpt lat="44.197653383016586" lon="9.561271984130144">
        <ele>82.810000000000002</ele>
        <time>2014-04-13T12:31:08Z</time>
      </trkpt>
      <trkpt lat="44.197585238143802" lon="9.56135286949575">
        <ele>84.25</ele>
        <time>2014-04-13T12:31:19Z</time>
      </trkpt>
      <trkpt lat="44.197567803785205" lon="9.561371561139822">
        <ele>84.25</ele>
        <time>2014-04-13T12:31:21Z</time>
      </trkpt>
      <trkpt lat="44.197419863194227" lon="9.561526207253337">
        <ele>86.180000000000007</ele>
        <time>2014-04-13T12:31:37Z</time>
      </trkpt>
      <trkpt lat="44.197388850152493" lon="9.561560489237309">
        <ele>86.180000000000007</ele>
        <time>2014-04-13T12:31:50Z</time>
      </trkpt>
      <trkpt lat="44.197405613958836" lon="9.561534337699413">
        <ele>86.180000000000007</ele>
        <time>2014-04-13T12:32:22Z</time>
      </trkpt>
      <trkpt lat="44.197280472144485" lon="9.561636513099074">
        <ele>85.689999999999998</ele>
        <time>2014-04-13T12:32:38Z</time>
      </trkpt>
      <trkpt lat="44.197119455784559" lon="9.561787219718099">
        <ele>83.290000000000006</ele>
        <time>2014-04-13T12:32:53Z</time>
      </trkpt>
      <trkpt lat="44.197009317576885" lon="9.561940524727106">
        <ele>81.849999999999994</ele>
        <time>2014-04-13T12:33:07Z</time>
      </trkpt>
      <trkpt lat="44.196944693103433" lon="9.562010513618588">
        <ele>81.370000000000005</ele>
        <time>2014-04-13T12:33:17Z</time>
      </trkpt>
      <trkpt lat="44.196940250694752" lon="9.562020068988204">
        <ele>80.890000000000001</ele>
        <time>2014-04-13T12:33:30Z</time>
      </trkpt>
      <trkpt lat="44.196915021166205" lon="9.562113359570503">
        <ele>80.409999999999997</ele>
        <time>2014-04-13T12:33:41Z</time>
      </trkpt>
      <trkpt lat="44.196892892941833" lon="9.562245961278677">
        <ele>78.969999999999999</ele>
        <time>2014-04-13T12:33:53Z</time>
      </trkpt>
      <trkpt lat="44.196891887113452" lon="9.562396667897701">
        <ele>78.969999999999999</ele>
        <time>2014-04-13T12:34:06Z</time>
      </trkpt>
      <trkpt lat="44.196894317865372" lon="9.56244939006865">
        <ele>79.930000000000007</ele>
        <time>2014-04-13T12:34:12Z</time>
      </trkpt>
      <trkpt lat="44.196922481060028" lon="9.562567407265306">
        <ele>82.810000000000002</ele>
        <time>2014-04-13T12:34:30Z</time>
      </trkpt>
      <trkpt lat="44.196944860741496" lon="9.562666732817888">
        <ele>85.209999999999994</ele>
        <time>2014-04-13T12:34:44Z</time>
      </trkpt>
      <trkpt lat="44.196969838812947" lon="9.562697745859623">
        <ele>86.659999999999997</ele>
        <time>2014-04-13T12:34:55Z</time>
      </trkpt>
      <trkpt lat="44.197002444416285" lon="9.562749294564128">
        <ele>88.579999999999998</ele>
        <time>2014-04-13T12:35:11Z</time>
      </trkpt>
      <trkpt lat="44.19704963453114" lon="9.56278801895678">
        <ele>90.5</ele>
        <time>2014-04-13T12:35:23Z</time>
      </trkpt>
      <trkpt lat="44.197034547105432" lon="9.562852811068296">
        <ele>92.420000000000002</ele>
        <time>2014-04-13T12:35:34Z</time>
      </trkpt>
      <trkpt lat="44.197027171030641" lon="9.56294434145093">
        <ele>93.390000000000001</ele>
        <time>2014-04-13T12:35:46Z</time>
      </trkpt>
      <trkpt lat="44.197015939280391" lon="9.563088929280639">
        <ele>95.790000000000006</ele>
        <time>2014-04-13T12:36:02Z</time>
      </trkpt>
      <trkpt lat="44.197009401395917" lon="9.563184399157763">
        <ele>96.269999999999996</ele>
        <time>2014-04-13T12:36:13Z</time>
      </trkpt>
      <trkpt lat="44.196987273171544" lon="9.563328148797154">
        <ele>96.75</ele>
        <time>2014-04-13T12:36:26Z</time>
      </trkpt>
      <trkpt lat="44.196996912360191" lon="9.563403753563762">
        <ele>95.790000000000006</ele>
        <time>2014-04-13T12:36:39Z</time>
      </trkpt>
      <trkpt lat="44.196998756378889" lon="9.563427725806832">
        <ele>95.310000000000002</ele>
        <time>2014-04-13T12:36:42Z</time>
      </trkpt>
      <trkpt lat="44.196963217109442" lon="9.563489416614175">
        <ele>95.310000000000002</ele>
        <time>2014-04-13T12:36:48Z</time>
      </trkpt>
      <trkpt lat="44.19694360345602" lon="9.563554879277945">
        <ele>96.269999999999996</ele>
        <time>2014-04-13T12:36:54Z</time>
      </trkpt>
      <trkpt lat="44.196955086663365" lon="9.563602572306991">
        <ele>98.670000000000002</ele>
        <time>2014-04-13T12:37:06Z</time>
      </trkpt>
      <trkpt lat="44.196987105533481" lon="9.563627131283283">
        <ele>100.11</ele>
        <time>2014-04-13T12:37:16Z</time>
      </trkpt>
      <trkpt lat="44.196996157988906" lon="9.563648253679276">
        <ele>100.59999999999999</ele>
        <time>2014-04-13T12:37:20Z</time>
      </trkpt>
      <trkpt lat="44.197000013664365" lon="9.563740454614162">
        <ele>102.04000000000001</ele>
        <time>2014-04-13T12:37:33Z</time>
      </trkpt>
      <trkpt lat="44.196936646476388" lon="9.563790410757065">
        <ele>103.48</ele>
        <time>2014-04-13T12:37:45Z</time>
      </trkpt>
      <trkpt lat="44.196866070851684" lon="9.563845144584775">
        <ele>105.40000000000001</ele>
        <time>2014-04-13T12:37:57Z</time>
      </trkpt>
      <trkpt lat="44.196855928748846" lon="9.56388152204454">
        <ele>105.88</ele>
        <time>2014-04-13T12:38:15Z</time>
      </trkpt>
      <trkpt lat="44.196818713098764" lon="9.56395142711699">
        <ele>106.36</ele>
        <time>2014-04-13T12:38:27Z</time>
      </trkpt>
      <trkpt lat="44.196793651208282" lon="9.563973471522331">
        <ele>106.36</ele>
        <time>2014-04-13T12:38:33Z</time>
      </trkpt>
      <trkpt lat="44.196773367002606" lon="9.563981350511313">
        <ele>105.40000000000001</ele>
        <time>2014-04-13T12:38:35Z</time>
      </trkpt>
      <trkpt lat="44.196736821904778" lon="9.563992749899626">
        <ele>103.95999999999999</ele>
        <time>2014-04-13T12:38:46Z</time>
      </trkpt>
      <trkpt lat="44.196729110553861" lon="9.564004652202129">
        <ele>103.48</ele>
        <time>2014-04-13T12:39:03Z</time>
      </trkpt>
      <trkpt lat="44.196691894903779" lon="9.564030971378088">
        <ele>103</ele>
        <time>2014-04-13T12:39:16Z</time>
      </trkpt>
      <trkpt lat="44.196683596819639" lon="9.564041616395116">
        <ele>102.52</ele>
        <time>2014-04-13T12:39:31Z</time>
      </trkpt>
      <trkpt lat="44.196704803034663" lon="9.564031893387437">
        <ele>103.48</ele>
        <time>2014-04-13T12:39:45Z</time>
      </trkpt>
      <trkpt lat="44.196675047278404" lon="9.564059050753713">
        <ele>102.04000000000001</ele>
        <time>2014-04-13T12:39:57Z</time>
      </trkpt>
      <trkpt lat="44.196672532707453" lon="9.564037257805467">
        <ele>101.56</ele>
        <time>2014-04-13T12:40:09Z</time>
      </trkpt>
      <trkpt lat="44.196682004258037" lon="9.564033234491944">
        <ele>103</ele>
        <time>2014-04-13T12:40:12Z</time>
      </trkpt>
      <trkpt lat="44.19668267481029" lon="9.564036503434181">
        <ele>103</ele>
        <time>2014-04-13T12:40:13Z</time>
      </trkpt>
      <trkpt lat="44.196655517444015" lon="9.564087465405464">
        <ele>100.11</ele>
        <time>2014-04-13T12:40:21Z</time>
      </trkpt>
      <trkpt lat="44.196592988446355" lon="9.564127363264561">
        <ele>96.75</ele>
        <time>2014-04-13T12:40:32Z</time>
      </trkpt>
      <trkpt lat="44.196559125557542" lon="9.564125938341022">
        <ele>96.269999999999996</ele>
        <time>2014-04-13T12:40:42Z</time>
      </trkpt>
      <trkpt lat="44.1965267714113" lon="9.564130380749703">
        <ele>95.790000000000006</ele>
        <time>2014-04-13T12:40:56Z</time>
      </trkpt>
      <trkpt lat="44.196508163586259" lon="9.564147479832172">
        <ele>95.790000000000006</ele>
        <time>2014-04-13T12:40:58Z</time>
      </trkpt>
      <trkpt lat="44.196462566033006" lon="9.564173128455877">
        <ele>95.310000000000002</ele>
        <time>2014-04-13T12:41:02Z</time>
      </trkpt>
      <trkpt lat="44.19638411141932" lon="9.56418595276773">
        <ele>93.870000000000005</ele>
        <time>2014-04-13T12:41:10Z</time>
      </trkpt>
      <trkpt lat="44.196315044537187" lon="9.564294749870896">
        <ele>92.900000000000006</ele>
        <time>2014-04-13T12:41:22Z</time>
      </trkpt>
      <trkpt lat="44.196313535794616" lon="9.564325930550695">
        <ele>92.900000000000006</ele>
        <time>2014-04-13T12:41:24Z</time>
      </trkpt>
      <trkpt lat="44.19630104675889" lon="9.564511338248849">
        <ele>90.980000000000004</ele>
        <time>2014-04-13T12:41:41Z</time>
      </trkpt>
      <trkpt lat="44.196192836388946" lon="9.564643437042832">
        <ele>90.019999999999996</ele>
        <time>2014-04-13T12:42:00Z</time>
      </trkpt>
      <trkpt lat="44.1961261164397" lon="9.564702613279223">
        <ele>90.019999999999996</ele>
        <time>2014-04-13T12:42:08Z</time>
      </trkpt>
      <trkpt lat="44.196005081757903" lon="9.564798083156347">
        <ele>90.980000000000004</ele>
        <time>2014-04-13T12:42:25Z</time>
      </trkpt>
      <trkpt lat="44.196000639349222" lon="9.564803950488567">
        <ele>90.980000000000004</ele>
        <time>2014-04-13T12:42:26Z</time>
      </trkpt>
      <trkpt lat="44.195931404829025" lon="9.564889697358012">
        <ele>89.540000000000006</ele>
        <time>2014-04-13T12:42:37Z</time>
      </trkpt>
      <trkpt lat="44.195824367925525" lon="9.564959267154336">
        <ele>89.060000000000002</ele>
        <time>2014-04-13T12:42:57Z</time>
      </trkpt>
      <trkpt lat="44.195772986859083" lon="9.56510653719306">
        <ele>89.060000000000002</ele>
        <time>2014-04-13T12:43:19Z</time>
      </trkpt>
      <trkpt lat="44.195693358778954" lon="9.56525363959372">
        <ele>86.180000000000007</ele>
        <time>2014-04-13T12:43:36Z</time>
      </trkpt>
      <trkpt lat="44.195593111217022" lon="9.565294124186039">
        <ele>85.209999999999994</ele>
        <time>2014-04-13T12:43:55Z</time>
      </trkpt>
      <trkpt lat="44.195523457601666" lon="9.565308960154653">
        <ele>85.209999999999994</ele>
        <time>2014-04-13T12:44:18Z</time>
      </trkpt>
      <trkpt lat="44.195430502295494" lon="9.56532790325582">
        <ele>87.140000000000001</ele>
        <time>2014-04-13T12:44:36Z</time>
      </trkpt>
      <trkpt lat="44.195453301072121" lon="9.565333938226104">
        <ele>87.140000000000001</ele>
        <time>2014-04-13T12:44:56Z</time>
      </trkpt>
      <trkpt lat="44.195414576679468" lon="9.565390264615417">
        <ele>87.620000000000005</ele>
        <time>2014-04-13T12:45:18Z</time>
      </trkpt>
      <trkpt lat="44.195414241403341" lon="9.565370483323932">
        <ele>87.620000000000005</ele>
        <time>2014-04-13T12:45:46Z</time>
      </trkpt>
      <trkpt lat="44.19539513066411" lon="9.565450865775347">
        <ele>87.620000000000005</ele>
        <time>2014-04-13T12:46:11Z</time>
      </trkpt>
      <trkpt lat="44.195382306352258" lon="9.565496547147632">
        <ele>86.180000000000007</ele>
        <time>2014-04-13T12:46:17Z</time>
      </trkpt>
      <trkpt lat="44.195413487032056" lon="9.565583802759647">
        <ele>85.689999999999998</ele>
        <time>2014-04-13T12:46:36Z</time>
      </trkpt>
      <trkpt lat="44.195369649678469" lon="9.565699808299542">
        <ele>83.290000000000006</ele>
        <time>2014-04-13T12:46:59Z</time>
      </trkpt>
      <trkpt lat="44.195357831194997" lon="9.565736772492528">
        <ele>80.409999999999997</ele>
        <time>2014-04-13T12:47:05Z</time>
      </trkpt>
      <trkpt lat="44.195361183956265" lon="9.566063582897186">
        <ele>79.450000000000003</ele>
        <time>2014-04-13T12:47:26Z</time>
      </trkpt>
      <trkpt lat="44.195304522290826" lon="9.566146228462458">
        <ele>78.480000000000004</ele>
        <time>2014-04-13T12:47:43Z</time>
      </trkpt>
      <trkpt lat="44.195301504805684" lon="9.566165255382657">
        <ele>79.930000000000007</ele>
        <time>2014-04-13T12:47:45Z</time>
      </trkpt>
      <trkpt lat="44.195244507864118" lon="9.566390560939908">
        <ele>81.849999999999994</ele>
        <time>2014-04-13T12:48:02Z</time>
      </trkpt>
      <trkpt lat="44.19518600217998" lon="9.5665118470788">
        <ele>80.409999999999997</ele>
        <time>2014-04-13T12:48:14Z</time>
      </trkpt>
      <trkpt lat="44.19512783177197" lon="9.566563060507178">
        <ele>78.480000000000004</ele>
        <time>2014-04-13T12:48:28Z</time>
      </trkpt>
      <trkpt lat="44.195023896172643" lon="9.566608406603336">
        <ele>75.599999999999994</ele>
        <time>2014-04-13T12:48:46Z</time>
      </trkpt>
      <trkpt lat="44.194975448772311" lon="9.566618632525206">
        <ele>72.719999999999999</ele>
        <time>2014-04-13T12:48:59Z</time>
      </trkpt>
      <trkpt lat="44.194845026358962" lon="9.56659440882504">
        <ele>69.349999999999994</ele>
        <time>2014-04-13T12:49:15Z</time>
      </trkpt>
      <trkpt lat="44.19483077712357" lon="9.566600359976292">
        <ele>68.870000000000005</ele>
        <time>2014-04-13T12:49:17Z</time>
      </trkpt>
      <trkpt lat="44.19469733722508" lon="9.566640593111515">
        <ele>66.950000000000003</ele>
        <time>2014-04-13T12:49:30Z</time>
      </trkpt>
      <trkpt lat="44.19464947655797" lon="9.566663224250078">
        <ele>65.510000000000005</ele>
        <time>2014-04-13T12:49:39Z</time>
      </trkpt>
      <trkpt lat="44.194601951166987" lon="9.566808063536882">
        <ele>62.619999999999997</ele>
        <time>2014-04-13T12:49:53Z</time>
      </trkpt>
      <trkpt lat="44.194604884833097" lon="9.567020209506154">
        <ele>59.740000000000002</ele>
        <time>2014-04-13T12:50:14Z</time>
      </trkpt>
      <trkpt lat="44.194676131010056" lon="9.56723746843636">
        <ele>57.340000000000003</ele>
        <time>2014-04-13T12:50:33Z</time>
      </trkpt>
      <trkpt lat="44.194678645581007" lon="9.567486243322492">
        <ele>54.93</ele>
        <time>2014-04-13T12:50:57Z</time>
      </trkpt>
      <trkpt lat="44.194675711914897" lon="9.567673159763217">
        <ele>51.57</ele>
        <time>2014-04-13T12:51:13Z</time>
      </trkpt>
      <trkpt lat="44.194630114361644" lon="9.567765109241009">
        <ele>53.009999999999998</ele>
        <time>2014-04-13T12:51:32Z</time>
      </trkpt>
      <trkpt lat="44.194574626162648" lon="9.567776843905449">
        <ele>53.009999999999998</ele>
        <time>2014-04-13T12:51:51Z</time>
      </trkpt>
      <trkpt lat="44.194574458524585" lon="9.567776089534164">
        <ele>51.57</ele>
        <time>2014-04-13T12:51:54Z</time>
      </trkpt>
      <trkpt lat="44.194596838206053" lon="9.567764773964882">
        <ele>51.57</ele>
        <time>2014-04-13T12:52:26Z</time>
      </trkpt>
      <trkpt lat="44.194610584527254" lon="9.567792937159538">
        <ele>53.009999999999998</ele>
        <time>2014-04-13T12:52:51Z</time>
      </trkpt>
      <trkpt lat="44.194585187360644" lon="9.567804504185915">
        <ele>53.490000000000002</ele>
        <time>2014-04-13T12:53:07Z</time>
      </trkpt>
      <trkpt lat="44.194553168490529" lon="9.5678018219769">
        <ele>57.82</ele>
        <time>2014-04-13T12:53:18Z</time>
      </trkpt>
      <trkpt lat="44.194449735805392" lon="9.567844904959202">
        <ele>60.219999999999999</ele>
        <time>2014-04-13T12:53:39Z</time>
      </trkpt>
      <trkpt lat="44.194507570937276" lon="9.567889831960201">
        <ele>62.619999999999997</ele>
        <time>2014-04-13T12:53:56Z</time>
      </trkpt>
      <trkpt lat="44.194542691111565" lon="9.567951941862702">
        <ele>65.989999999999995</ele>
        <time>2014-04-13T12:54:10Z</time>
      </trkpt>
      <trkpt lat="44.194569764658809" lon="9.568098206073046">
        <ele>69.349999999999994</ele>
        <time>2014-04-13T12:54:30Z</time>
      </trkpt>
      <trkpt lat="44.194534476846457" lon="9.568231981247664">
        <ele>72.239999999999995</ele>
        <time>2014-04-13T12:54:49Z</time>
      </trkpt>
      <trkpt lat="44.194435486570001" lon="9.568286379799247">
        <ele>75.599999999999994</ele>
        <time>2014-04-13T12:55:06Z</time>
      </trkpt>
      <trkpt lat="44.194290395826101" lon="9.568259390071034">
        <ele>78.969999999999999</ele>
        <time>2014-04-13T12:55:24Z</time>
      </trkpt>
      <trkpt lat="44.194201212376356" lon="9.568144474178553">
        <ele>81.849999999999994</ele>
        <time>2014-04-13T12:55:44Z</time>
      </trkpt>
      <trkpt lat="44.194123093038797" lon="9.567988403141499">
        <ele>85.209999999999994</ele>
        <time>2014-04-13T12:56:04Z</time>
      </trkpt>
      <trkpt lat="44.193990156054497" lon="9.567943643778563">
        <ele>88.579999999999998</ele>
        <time>2014-04-13T12:56:23Z</time>
      </trkpt>
      <trkpt lat="44.193969201296568" lon="9.567879438400269">
        <ele>89.540000000000006</ele>
        <time>2014-04-13T12:56:44Z</time>
      </trkpt>
      <trkpt lat="44.193978002294898" lon="9.567896537482739">
        <ele>89.060000000000002</ele>
        <time>2014-04-13T12:57:03Z</time>
      </trkpt>
      <trkpt lat="44.193978924304247" lon="9.567892849445343">
        <ele>90.5</ele>
        <time>2014-04-13T12:57:05Z</time>
      </trkpt>
      <trkpt lat="44.194004656746984" lon="9.567929981276393">
        <ele>90.980000000000004</ele>
        <time>2014-04-13T12:57:32Z</time>
      </trkpt>
      <trkpt lat="44.193986132740974" lon="9.567997120320797">
        <ele>94.349999999999994</ele>
        <time>2014-04-13T12:57:48Z</time>
      </trkpt>
      <trkpt lat="44.193887980654836" lon="9.568014554679394">
        <ele>97.709999999999994</ele>
        <time>2014-04-13T12:58:01Z</time>
      </trkpt>
      <trkpt lat="44.193801395595074" lon="9.5680764131248">
        <ele>101.08</ele>
        <time>2014-04-13T12:58:15Z</time>
      </trkpt>
      <trkpt lat="44.193751439452171" lon="9.568148832768202">
        <ele>104.44</ele>
        <time>2014-04-13T12:58:32Z</time>
      </trkpt>
      <trkpt lat="44.19370299205184" lon="9.568165428936482">
        <ele>106.84</ele>
        <time>2014-04-13T12:58:44Z</time>
      </trkpt>
      <trkpt lat="44.193614730611444" lon="9.568214463070035">
        <ele>108.77</ele>
        <time>2014-04-13T12:58:59Z</time>
      </trkpt>
      <trkpt lat="44.19361112639308" lon="9.568284368142486">
        <ele>112.61</ele>
        <time>2014-04-13T12:59:14Z</time>
      </trkpt>
      <trkpt lat="44.19353049248457" lon="9.568367684260011">
        <ele>114.53</ele>
        <time>2014-04-13T12:59:29Z</time>
      </trkpt>
      <trkpt lat="44.193473914638162" lon="9.568467261269689">
        <ele>117.90000000000001</ele>
        <time>2014-04-13T12:59:44Z</time>
      </trkpt>
      <trkpt lat="44.19340593740344" lon="9.568589385598898">
        <ele>121.73999999999999</ele>
        <time>2014-04-13T13:00:02Z</time>
      </trkpt>
      <trkpt lat="44.193308372050524" lon="9.568732548505068">
        <ele>124.63</ele>
        <time>2014-04-13T13:00:20Z</time>
      </trkpt>
      <trkpt lat="44.19321340508759" lon="9.568819720298052">
        <ele>127.98999999999999</ele>
        <time>2014-04-13T13:00:39Z</time>
      </trkpt>
      <trkpt lat="44.193211058154702" lon="9.568895073607564">
        <ele>130.88</ele>
        <time>2014-04-13T13:00:49Z</time>
      </trkpt>
      <trkpt lat="44.193210722878575" lon="9.56904879771173">
        <ele>134.72</ele>
        <time>2014-04-13T13:01:04Z</time>
      </trkpt>
      <trkpt lat="44.19326520524919" lon="9.569099843502045">
        <ele>137.61000000000001</ele>
        <time>2014-04-13T13:01:15Z</time>
      </trkpt>
      <trkpt lat="44.193329913541675" lon="9.569150554016233">
        <ele>140.49000000000001</ele>
        <time>2014-04-13T13:01:29Z</time>
      </trkpt>
      <trkpt lat="44.193403758108616" lon="9.569257171824575">
        <ele>142.88999999999999</ele>
        <time>2014-04-13T13:01:46Z</time>
      </trkpt>
      <trkpt lat="44.193464443087578" lon="9.569468814879656">
        <ele>145.30000000000001</ele>
        <time>2014-04-13T13:02:06Z</time>
      </trkpt>
      <trkpt lat="44.193514315411448" lon="9.569618431851268">
        <ele>146.25999999999999</ele>
        <time>2014-04-13T13:02:15Z</time>
      </trkpt>
      <trkpt lat="44.193514985963702" lon="9.569739047437906">
        <ele>146.74000000000001</ele>
        <time>2014-04-13T13:02:26Z</time>
      </trkpt>
      <trkpt lat="44.193485649302602" lon="9.5698222797364">
        <ele>148.18000000000001</ele>
        <time>2014-04-13T13:02:33Z</time>
      </trkpt>
      <trkpt lat="44.193456815555692" lon="9.570022691041231">
        <ele>150.09999999999999</ele>
        <time>2014-04-13T13:02:49Z</time>
      </trkpt>
      <trkpt lat="44.19348212890327" lon="9.570188233628869">
        <ele>152.99000000000001</ele>
        <time>2014-04-13T13:03:06Z</time>
      </trkpt>
      <trkpt lat="44.193414570763707" lon="9.57033927552402">
        <ele>155.87</ele>
        <time>2014-04-13T13:03:19Z</time>
      </trkpt>
      <trkpt lat="44.193406943231821" lon="9.570363247767091">
        <ele>155.87</ele>
        <time>2014-04-13T13:03:21Z</time>
      </trkpt>
      <trkpt lat="44.193376852199435" lon="9.570463160052896">
        <ele>156.83000000000001</ele>
        <time>2014-04-13T13:03:29Z</time>
      </trkpt>
      <trkpt lat="44.19338540174067" lon="9.570511691272259">
        <ele>157.31</ele>
        <time>2014-04-13T13:03:33Z</time>
      </trkpt>
      <trkpt lat="44.193396717309952" lon="9.570551421493292">
        <ele>157.78999999999999</ele>
        <time>2014-04-13T13:03:36Z</time>
      </trkpt>
      <trkpt lat="44.193439967930317" lon="9.570661392062903">
        <ele>160.68000000000001</ele>
        <time>2014-04-13T13:03:49Z</time>
      </trkpt>
      <trkpt lat="44.193453881889582" lon="9.570785444229841">
        <ele>164.03999999999999</ele>
        <time>2014-04-13T13:04:01Z</time>
      </trkpt>
      <trkpt lat="44.193434854969382" lon="9.570896420627832">
        <ele>166.93000000000001</ele>
        <time>2014-04-13T13:04:14Z</time>
      </trkpt>
      <trkpt lat="44.193399399518967" lon="9.571010246872902">
        <ele>168.84999999999999</ele>
        <time>2014-04-13T13:04:39Z</time>
      </trkpt>
      <trkpt lat="44.193404261022806" lon="9.571168413385749">
        <ele>171.25</ele>
        <time>2014-04-13T13:04:57Z</time>
      </trkpt>
      <trkpt lat="44.193419516086578" lon="9.571243347600102">
        <ele>172.69</ele>
        <time>2014-04-13T13:05:07Z</time>
      </trkpt>
      <trkpt lat="44.193421108648181" lon="9.571441328153014">
        <ele>175.58000000000001</ele>
        <time>2014-04-13T13:05:21Z</time>
      </trkpt>
      <trkpt lat="44.193400321528316" lon="9.571519196033478">
        <ele>176.53999999999999</ele>
        <time>2014-04-13T13:05:26Z</time>
      </trkpt>
      <trkpt lat="44.193400740623474" lon="9.5717201102525">
        <ele>178.46000000000001</ele>
        <time>2014-04-13T13:05:42Z</time>
      </trkpt>
      <trkpt lat="44.193403422832489" lon="9.571729078888893">
        <ele>178.46000000000001</ele>
        <time>2014-04-13T13:05:43Z</time>
      </trkpt>
      <trkpt lat="44.193411972373724" lon="9.571783477440476">
        <ele>179.41999999999999</ele>
        <time>2014-04-13T13:05:47Z</time>
      </trkpt>
      <trkpt lat="44.193440806120634" lon="9.571913732215762">
        <ele>180.87</ele>
        <time>2014-04-13T13:05:58Z</time>
      </trkpt>
      <trkpt lat="44.193449774757028" lon="9.571941727772355">
        <ele>182.31</ele>
        <time>2014-04-13T13:06:02Z</time>
      </trkpt>
      <trkpt lat="44.193466370925307" lon="9.571971567347646">
        <ele>182.31</ele>
        <time>2014-04-13T13:06:05Z</time>
      </trkpt>
      <trkpt lat="44.193506520241499" lon="9.572036527097225">
        <ele>184.71000000000001</ele>
        <time>2014-04-13T13:06:22Z</time>
      </trkpt>
      <trkpt lat="44.193550106137991" lon="9.572059158235788">
        <ele>186.15000000000001</ele>
        <time>2014-04-13T13:06:35Z</time>
      </trkpt>
      <trkpt lat="44.193530743941665" lon="9.572074413299561">
        <ele>186.15000000000001</ele>
        <time>2014-04-13T13:06:44Z</time>
      </trkpt>
      <trkpt lat="44.193530408665538" lon="9.572080699726939">
        <ele>186.15000000000001</ele>
        <time>2014-04-13T13:07:00Z</time>
      </trkpt>
      <trkpt lat="44.193525044247508" lon="9.572092099115253">
        <ele>186.15000000000001</ele>
        <time>2014-04-13T13:07:11Z</time>
      </trkpt>
      <trkpt lat="44.193523703143001" lon="9.5720827113837">
        <ele>186.15000000000001</ele>
        <time>2014-04-13T13:07:27Z</time>
      </trkpt>
      <trkpt lat="44.193524541333318" lon="9.572076424956322">
        <ele>186.63</ele>
        <time>2014-04-13T13:07:39Z</time>
      </trkpt>
      <trkpt lat="44.193529235199094" lon="9.572091847658157">
        <ele>187.11000000000001</ele>
        <time>2014-04-13T13:07:52Z</time>
      </trkpt>
      <trkpt lat="44.193528480827808" lon="9.572093775495887">
        <ele>186.15000000000001</ele>
        <time>2014-04-13T13:07:54Z</time>
      </trkpt>
      <trkpt lat="44.193542813882232" lon="9.572106180712581">
        <ele>186.63</ele>
        <time>2014-04-13T13:08:14Z</time>
      </trkpt>
      <trkpt lat="44.193550357595086" lon="9.572086650878191">
        <ele>186.63</ele>
        <time>2014-04-13T13:08:30Z</time>
      </trkpt>
      <trkpt lat="44.193559577688575" lon="9.572090841829777">
        <ele>188.08000000000001</ele>
        <time>2014-04-13T13:08:46Z</time>
      </trkpt>
      <trkpt lat="44.193549351766706" lon="9.572090422734618">
        <ele>188.08000000000001</ele>
        <time>2014-04-13T13:09:06Z</time>
      </trkpt>
      <trkpt lat="44.193564187735319" lon="9.572092769667506">
        <ele>187.59</ele>
        <time>2014-04-13T13:09:25Z</time>
      </trkpt>
      <trkpt lat="44.193559242412448" lon="9.572100481018424">
        <ele>188.08000000000001</ele>
        <time>2014-04-13T13:09:48Z</time>
      </trkpt>
      <trkpt lat="44.193556476384401" lon="9.572087489068508">
        <ele>188.08000000000001</ele>
        <time>2014-04-13T13:10:11Z</time>
      </trkpt>
      <trkpt lat="44.193552788347006" lon="9.57209930755198">
        <ele>188.08000000000001</ele>
        <time>2014-04-13T13:10:27Z</time>
      </trkpt>
      <trkpt lat="44.19355739839375" lon="9.572102911770344">
        <ele>188.08000000000001</ele>
        <time>2014-04-13T13:10:49Z</time>
      </trkpt>
      <trkpt lat="44.193558823317289" lon="9.572089249268174">
        <ele>188.08000000000001</ele>
        <time>2014-04-13T13:11:08Z</time>
      </trkpt>
      <trkpt lat="44.193561086431146" lon="9.572094278410077">
        <ele>188.08000000000001</ele>
        <time>2014-04-13T13:11:31Z</time>
      </trkpt>
      <trkpt lat="44.193530576303601" lon="9.572089500725269">
        <ele>186.15000000000001</ele>
        <time>2014-04-13T13:11:51Z</time>
      </trkpt>
      <trkpt lat="44.193488080054522" lon="9.572038035839796">
        <ele>184.71000000000001</ele>
        <time>2014-04-13T13:12:02Z</time>
      </trkpt>
      <trkpt lat="44.193470561876893" lon="9.571979278698564">
        <ele>183.75</ele>
        <time>2014-04-13T13:12:18Z</time>
      </trkpt>
      <trkpt lat="44.193467125296593" lon="9.57198397256434">
        <ele>183.75</ele>
        <time>2014-04-13T13:12:51Z</time>
      </trkpt>
      <trkpt lat="44.193464275449514" lon="9.571980871260166">
        <ele>183.27000000000001</ele>
        <time>2014-04-13T13:13:23Z</time>
      </trkpt>
      <trkpt lat="44.193450948223472" lon="9.571985565125942">
        <ele>183.27000000000001</ele>
        <time>2014-04-13T13:13:46Z</time>
      </trkpt>
      <trkpt lat="44.193447344005108" lon="9.571999981999397">
        <ele>183.27000000000001</ele>
        <time>2014-04-13T13:14:07Z</time>
      </trkpt>
      <trkpt lat="44.193500066176057" lon="9.572043232619762">
        <ele>184.71000000000001</ele>
        <time>2014-04-13T13:14:28Z</time>
      </trkpt>
      <trkpt lat="44.193513561040163" lon="9.572039376944304">
        <ele>185.19</ele>
        <time>2014-04-13T13:14:47Z</time>
      </trkpt>
      <trkpt lat="44.193535018712282" lon="9.572071144357324">
        <ele>185.66999999999999</ele>
        <time>2014-04-13T13:15:04Z</time>
      </trkpt>
      <trkpt lat="44.193519512191415" lon="9.572078855708242">
        <ele>186.15000000000001</ele>
        <time>2014-04-13T13:15:26Z</time>
      </trkpt>
      <trkpt lat="44.193522110581398" lon="9.572070222347975">
        <ele>186.15000000000001</ele>
        <time>2014-04-13T13:15:47Z</time>
      </trkpt>
      <trkpt lat="44.193511717021465" lon="9.572087405249476">
        <ele>186.15000000000001</ele>
        <time>2014-04-13T13:16:11Z</time>
      </trkpt>
      <trkpt lat="44.193475674837828" lon="9.572083968669176">
        <ele>184.71000000000001</ele>
        <time>2014-04-13T13:16:28Z</time>
      </trkpt>
      <trkpt lat="44.193462012335658" lon="9.572029989212751">
        <ele>183.75</ele>
        <time>2014-04-13T13:16:44Z</time>
      </trkpt>
      <trkpt lat="44.19348455965519" lon="9.57203040830791">
        <ele>183.75</ele>
        <time>2014-04-13T13:17:07Z</time>
      </trkpt>
      <trkpt lat="44.193478189408779" lon="9.572040382772684">
        <ele>183.75</ele>
        <time>2014-04-13T13:17:29Z</time>
      </trkpt>
      <trkpt lat="44.193483889102936" lon="9.572040885686874">
        <ele>183.75</ele>
        <time>2014-04-13T13:17:53Z</time>
      </trkpt>
      <trkpt lat="44.19348556548357" lon="9.572047591209412">
        <ele>183.75</ele>
        <time>2014-04-13T13:18:22Z</time>
      </trkpt>
      <trkpt lat="44.193492690101266" lon="9.572024373337627">
        <ele>183.75</ele>
        <time>2014-04-13T13:18:41Z</time>
      </trkpt>
      <trkpt lat="44.193502496927977" lon="9.572026804089546">
        <ele>183.75</ele>
        <time>2014-04-13T13:19:05Z</time>
      </trkpt>
      <trkpt lat="44.193511214107275" lon="9.5720274746418">
        <ele>183.75</ele>
        <time>2014-04-13T13:19:26Z</time>
      </trkpt>
      <trkpt lat="44.193503670394421" lon="9.57202454097569">
        <ele>183.75</ele>
        <time>2014-04-13T13:19:55Z</time>
      </trkpt>
      <trkpt lat="44.193496378138661" lon="9.572038119658828">
        <ele>183.75</ele>
        <time>2014-04-13T13:20:27Z</time>
      </trkpt>
      <trkpt lat="44.193502748385072" lon="9.572043232619762">
        <ele>185.19</ele>
        <time>2014-04-13T13:20:35Z</time>
      </trkpt>
      <trkpt lat="44.193521942943335" lon="9.572063852101564">
        <ele>185.66999999999999</ele>
        <time>2014-04-13T13:20:58Z</time>
      </trkpt>
      <trkpt lat="44.19351146556437" lon="9.5720792748034">
        <ele>185.66999999999999</ele>
        <time>2014-04-13T13:21:16Z</time>
      </trkpt>
      <trkpt lat="44.193508280441165" lon="9.572073575109243">
        <ele>185.66999999999999</ele>
        <time>2014-04-13T13:21:40Z</time>
      </trkpt>
      <trkpt lat="44.193547675386071" lon="9.572098385542631">
        <ele>186.63</ele>
        <time>2014-04-13T13:22:06Z</time>
      </trkpt>
      <trkpt lat="44.193555051460862" lon="9.572100229561329">
        <ele>186.63</ele>
        <time>2014-04-13T13:22:29Z</time>
      </trkpt>
      <trkpt lat="44.193460922688246" lon="9.572130488231778">
        <ele>186.15000000000001</ele>
        <time>2014-04-13T13:22:47Z</time>
      </trkpt>
      <trkpt lat="44.193419264629483" lon="9.572255881503224">
        <ele>186.15000000000001</ele>
        <time>2014-04-13T13:23:04Z</time>
      </trkpt>
      <trkpt lat="44.193402081727982" lon="9.57240960560739">
        <ele>186.15000000000001</ele>
        <time>2014-04-13T13:23:20Z</time>
      </trkpt>
      <trkpt lat="44.19338146224618" lon="9.572682855650783">
        <ele>184.71000000000001</ele>
        <time>2014-04-13T13:23:39Z</time>
      </trkpt>
      <trkpt lat="44.193385234102607" lon="9.572696434333921">
        <ele>185.19</ele>
        <time>2014-04-13T13:23:54Z</time>
      </trkpt>
      <trkpt lat="44.193421779200435" lon="9.572791401296854">
        <ele>187.11000000000001</ele>
        <time>2014-04-13T13:24:13Z</time>
      </trkpt>
      <trkpt lat="44.193422952666879" lon="9.572815373539925">
        <ele>187.11000000000001</ele>
        <time>2014-04-13T13:24:18Z</time>
      </trkpt>
      <trkpt lat="44.193405350670218" lon="9.572954429313541">
        <ele>185.66999999999999</ele>
        <time>2014-04-13T13:24:23Z</time>
      </trkpt>
      <trkpt lat="44.193381881341338" lon="9.573123157024384">
        <ele>184.71000000000001</ele>
        <time>2014-04-13T13:24:34Z</time>
      </trkpt>
      <trkpt lat="44.19339026324451" lon="9.573145871981978">
        <ele>184.71000000000001</ele>
        <time>2014-04-13T13:24:36Z</time>
      </trkpt>
      <trkpt lat="44.193399483337998" lon="9.573214687407017">
        <ele>183.75</ele>
        <time>2014-04-13T13:24:43Z</time>
      </trkpt>
      <trkpt lat="44.19330770149827" lon="9.573330441489816">
        <ele>183.75</ele>
        <time>2014-04-13T13:24:55Z</time>
      </trkpt>
      <trkpt lat="44.193264534696937" lon="9.573298003524542">
        <ele>183.27000000000001</ele>
        <time>2014-04-13T13:25:01Z</time>
      </trkpt>
      <trkpt lat="44.193153474479914" lon="9.573330190032721">
        <ele>182.78999999999999</ele>
        <time>2014-04-13T13:25:13Z</time>
      </trkpt>
      <trkpt lat="44.193145930767059" lon="9.573339493945241">
        <ele>182.78999999999999</ele>
        <time>2014-04-13T13:25:15Z</time>
      </trkpt>
      <trkpt lat="44.193097231909633" lon="9.573370339348912">
        <ele>182.78999999999999</ele>
        <time>2014-04-13T13:25:20Z</time>
      </trkpt>
      <trkpt lat="44.193067979067564" lon="9.573397077620029">
        <ele>182.78999999999999</ele>
        <time>2014-04-13T13:25:24Z</time>
      </trkpt>
      <trkpt lat="44.192986004054546" lon="9.573482908308506">
        <ele>184.22999999999999</ele>
        <time>2014-04-13T13:25:33Z</time>
      </trkpt>
      <trkpt lat="44.192958176136017" lon="9.573534457013011">
        <ele>184.22999999999999</ele>
        <time>2014-04-13T13:25:39Z</time>
      </trkpt>
      <trkpt lat="44.192830687388778" lon="9.573751548305154">
        <ele>184.22999999999999</ele>
        <time>2014-04-13T13:25:58Z</time>
      </trkpt>
      <trkpt lat="44.192726835608482" lon="9.573934525251389">
        <ele>184.22999999999999</ele>
        <time>2014-04-13T13:26:14Z</time>
      </trkpt>
      <trkpt lat="44.19268760830164" lon="9.574047010391951">
        <ele>184.71000000000001</ele>
        <time>2014-04-13T13:26:26Z</time>
      </trkpt>
      <trkpt lat="44.192609488964081" lon="9.574170308187604">
        <ele>185.19</ele>
        <time>2014-04-13T13:26:37Z</time>
      </trkpt>
      <trkpt lat="44.192580739036202" lon="9.574294276535511">
        <ele>186.15000000000001</ele>
        <time>2014-04-13T13:26:51Z</time>
      </trkpt>
      <trkpt lat="44.192542182281613" lon="9.574440708383918">
        <ele>188.56</ele>
        <time>2014-04-13T13:27:07Z</time>
      </trkpt>
      <trkpt lat="44.192528016865253" lon="9.574443558230996">
        <ele>188.56</ele>
        <time>2014-04-13T13:27:12Z</time>
      </trkpt>
      <trkpt lat="44.192467667162418" lon="9.574442217126489">
        <ele>189.52000000000001</ele>
        <time>2014-04-13T13:27:27Z</time>
      </trkpt>
      <trkpt lat="44.192352667450905" lon="9.574404833838344">
        <ele>191.91999999999999</ele>
        <time>2014-04-13T13:27:51Z</time>
      </trkpt>
      <trkpt lat="44.192304639145732" lon="9.574364852160215">
        <ele>192.88</ele>
        <time>2014-04-13T13:28:10Z</time>
      </trkpt>
      <trkpt lat="44.19220975600183" lon="9.574194699525833">
        <ele>196.25</ele>
        <time>2014-04-13T13:28:32Z</time>
      </trkpt>
      <trkpt lat="44.192093247547746" lon="9.574052458629012">
        <ele>199.13</ele>
        <time>2014-04-13T13:28:56Z</time>
      </trkpt>
      <trkpt lat="44.191982019692659" lon="9.57393167540431">
        <ele>200.56999999999999</ele>
        <time>2014-04-13T13:29:14Z</time>
      </trkpt>
      <trkpt lat="44.191972464323044" lon="9.573845509439707">
        <ele>199.13</ele>
        <time>2014-04-13T13:29:20Z</time>
      </trkpt>
      <trkpt lat="44.191969865933061" lon="9.573830254375935">
        <ele>199.13</ele>
        <time>2014-04-13T13:29:21Z</time>
      </trkpt>
      <trkpt lat="44.191935416311026" lon="9.573700334876776">
        <ele>198.65000000000001</ele>
        <time>2014-04-13T13:29:32Z</time>
      </trkpt>
      <trkpt lat="44.191945977509022" lon="9.573583491146565">
        <ele>196.72999999999999</ele>
        <time>2014-04-13T13:29:45Z</time>
      </trkpt>
      <trkpt lat="44.191901721060276" lon="9.573410991579294">
        <ele>194.80000000000001</ele>
        <time>2014-04-13T13:30:03Z</time>
      </trkpt>
      <trkpt lat="44.191832067444921" lon="9.573237905278802">
        <ele>192.88</ele>
        <time>2014-04-13T13:30:22Z</time>
      </trkpt>
      <trkpt lat="44.191732993349433" lon="9.573088958859444">
        <ele>190.96000000000001</ele>
        <time>2014-04-13T13:30:40Z</time>
      </trkpt>
      <trkpt lat="44.191656215116382" lon="9.573010001331568">
        <ele>190</ele>
        <time>2014-04-13T13:30:57Z</time>
      </trkpt>
      <trkpt lat="44.191581280902028" lon="9.572951076552272">
        <ele>188.56</ele>
        <time>2014-04-13T13:31:14Z</time>
      </trkpt>
      <trkpt lat="44.191521182656288" lon="9.57288553006947">
        <ele>188.08000000000001</ele>
        <time>2014-04-13T13:31:27Z</time>
      </trkpt>
      <trkpt lat="44.191442476585507" lon="9.572812020778656">
        <ele>186.15000000000001</ele>
        <time>2014-04-13T13:31:40Z</time>
      </trkpt>
      <trkpt lat="44.191385479643941" lon="9.57277505658567">
        <ele>185.19</ele>
        <time>2014-04-13T13:31:52Z</time>
      </trkpt>
      <trkpt lat="44.191352287307382" lon="9.57275066524744">
        <ele>184.22999999999999</ele>
        <time>2014-04-13T13:31:58Z</time>
      </trkpt>
      <trkpt lat="44.191331835463643" lon="9.572742115706205">
        <ele>183.75</ele>
        <time>2014-04-13T13:32:00Z</time>
      </trkpt>
      <trkpt lat="44.191252375021577" lon="9.572699368000031">
        <ele>183.27000000000001</ele>
        <time>2014-04-13T13:32:12Z</time>
      </trkpt>
      <trkpt lat="44.191158749163151" lon="9.572621919214726">
        <ele>182.31</ele>
        <time>2014-04-13T13:32:29Z</time>
      </trkpt>
      <trkpt lat="44.191112648695707" lon="9.572580512613058">
        <ele>181.83000000000001</ele>
        <time>2014-04-13T13:32:36Z</time>
      </trkpt>
      <trkpt lat="44.190999157726765" lon="9.572447072714567">
        <ele>180.87</ele>
        <time>2014-04-13T13:32:50Z</time>
      </trkpt>
      <trkpt lat="44.190979460254312" lon="9.572429386898875">
        <ele>180.87</ele>
        <time>2014-04-13T13:32:52Z</time>
      </trkpt>
      <trkpt lat="44.190939897671342" lon="9.572396529838443">
        <ele>180.38</ele>
        <time>2014-04-13T13:32:56Z</time>
      </trkpt>
      <trkpt lat="44.190815258771181" lon="9.572350513190031">
        <ele>180.38</ele>
        <time>2014-04-13T13:33:12Z</time>
      </trkpt>
      <trkpt lat="44.190683076158166" lon="9.572381358593702">
        <ele>179.90000000000001</ele>
        <time>2014-04-13T13:33:28Z</time>
      </trkpt>
      <trkpt lat="44.190641669556499" lon="9.572414634749293">
        <ele>178.94</ele>
        <time>2014-04-13T13:33:41Z</time>
      </trkpt>
      <trkpt lat="44.190636472776532" lon="9.57242033444345">
        <ele>178.46000000000001</ele>
        <time>2014-04-13T13:33:43Z</time>
      </trkpt>
      <trkpt lat="44.190585929900408" lon="9.572474984452128">
        <ele>177.02000000000001</ele>
        <time>2014-04-13T13:33:56Z</time>
      </trkpt>
      <trkpt lat="44.190543182194233" lon="9.572564922273159">
        <ele>175.09999999999999</ele>
        <time>2014-04-13T13:34:11Z</time>
      </trkpt>
      <trkpt lat="44.190497165545821" lon="9.572661900892854">
        <ele>172.21000000000001</ele>
        <time>2014-04-13T13:34:24Z</time>
      </trkpt>
      <trkpt lat="44.190458105877042" lon="9.57274479791522">
        <ele>171.25</ele>
        <time>2014-04-13T13:34:36Z</time>
      </trkpt>
      <trkpt lat="44.190402198582888" lon="9.572835071012378">
        <ele>168.84999999999999</ele>
        <time>2014-04-13T13:34:50Z</time>
      </trkpt>
      <trkpt lat="44.190367413684726" lon="9.57297102548182">
        <ele>166.93000000000001</ele>
        <time>2014-04-13T13:35:06Z</time>
      </trkpt>
      <trkpt lat="44.190358864143491" lon="9.572991812601686">
        <ele>166.44999999999999</ele>
        <time>2014-04-13T13:35:08Z</time>
      </trkpt>
      <trkpt lat="44.190310500562191" lon="9.573065405711532">
        <ele>165.96000000000001</ele>
        <time>2014-04-13T13:35:14Z</time>
      </trkpt>
      <trkpt lat="44.190283678472042" lon="9.573145704343915">
        <ele>165</ele>
        <time>2014-04-13T13:35:18Z</time>
      </trkpt>
      <trkpt lat="44.190266747027636" lon="9.573204964399338">
        <ele>164.03999999999999</ele>
        <time>2014-04-13T13:35:29Z</time>
      </trkpt>
      <trkpt lat="44.190206313505769" lon="9.57334091886878">
        <ele>162.59999999999999</ele>
        <time>2014-04-13T13:35:39Z</time>
      </trkpt>
      <trkpt lat="44.190187035128474" lon="9.573374027386308">
        <ele>162.12</ele>
        <time>2014-04-13T13:35:43Z</time>
      </trkpt>
      <trkpt lat="44.190119979903102" lon="9.57348994910717">
        <ele>160.19999999999999</ele>
        <time>2014-04-13T13:35:57Z</time>
      </trkpt>
      <trkpt lat="44.190035574138165" lon="9.573573265224695">
        <ele>158.75</ele>
        <time>2014-04-13T13:36:13Z</time>
      </trkpt>
      <trkpt lat="44.18994446285069" lon="9.573567062616348">
        <ele>156.83000000000001</ele>
        <time>2014-04-13T13:36:26Z</time>
      </trkpt>
      <trkpt lat="44.189889980480075" lon="9.573443848639727">
        <ele>154.43000000000001</ele>
        <time>2014-04-13T13:36:42Z</time>
      </trkpt>
      <trkpt lat="44.189825858920813" lon="9.57352657802403">
        <ele>151.06</ele>
        <time>2014-04-13T13:36:59Z</time>
      </trkpt>
      <trkpt lat="44.189811609685421" lon="9.573547700420022">
        <ele>150.58000000000001</ele>
        <time>2014-04-13T13:37:02Z</time>
      </trkpt>
      <trkpt lat="44.189736088737845" lon="9.573580222204328">
        <ele>147.69999999999999</ele>
        <time>2014-04-13T13:37:16Z</time>
      </trkpt>
      <trkpt lat="44.189706081524491" lon="9.57363017834723">
        <ele>144.81999999999999</ele>
        <time>2014-04-13T13:37:30Z</time>
      </trkpt>
      <trkpt lat="44.189694263041019" lon="9.573733946308494">
        <ele>141.44999999999999</ele>
        <time>2014-04-13T13:37:43Z</time>
      </trkpt>
      <trkpt lat="44.189676325768232" lon="9.573838552460074">
        <ele>139.05000000000001</ele>
        <time>2014-04-13T13:37:54Z</time>
      </trkpt>
      <trkpt lat="44.189643133431673" lon="9.573928574100137">
        <ele>136.63999999999999</ele>
        <time>2014-04-13T13:38:05Z</time>
      </trkpt>
      <trkpt lat="44.18965863995254" lon="9.574015410616994">
        <ele>134.72</ele>
        <time>2014-04-13T13:38:13Z</time>
      </trkpt>
      <trkpt lat="44.189651180058718" lon="9.574120687320828">
        <ele>133.28</ele>
        <time>2014-04-13T13:38:22Z</time>
      </trkpt>
      <trkpt lat="44.189636260271072" lon="9.574143821373582">
        <ele>132.31999999999999</ele>
        <time>2014-04-13T13:38:24Z</time>
      </trkpt>
      <trkpt lat="44.189591920003295" lon="9.574296707287431">
        <ele>129.43000000000001</ele>
        <time>2014-04-13T13:38:40Z</time>
      </trkpt>
      <trkpt lat="44.189531151205301" lon="9.574320511892438">
        <ele>127.03</ele>
        <time>2014-04-13T13:38:53Z</time>
      </trkpt>
      <trkpt lat="44.189446996897459" lon="9.574354710057378">
        <ele>123.67</ele>
        <time>2014-04-13T13:39:04Z</time>
      </trkpt>
      <trkpt lat="44.189338283613324" lon="9.574318332597613">
        <ele>121.26000000000001</ele>
        <time>2014-04-13T13:39:19Z</time>
      </trkpt>
      <trkpt lat="44.189229989424348" lon="9.574323361739516">
        <ele>121.26000000000001</ele>
        <time>2014-04-13T13:39:33Z</time>
      </trkpt>
      <trkpt lat="44.189219092950225" lon="9.574303915724158">
        <ele>121.26000000000001</ele>
        <time>2014-04-13T13:39:35Z</time>
      </trkpt>
      <trkpt lat="44.189199479296803" lon="9.574261419475079">
        <ele>120.78</ele>
        <time>2014-04-13T13:39:38Z</time>
      </trkpt>
      <trkpt lat="44.189071739092469" lon="9.57416083663702">
        <ele>119.34</ele>
        <time>2014-04-13T13:39:53Z</time>
      </trkpt>
      <trkpt lat="44.188873339444399" lon="9.574103588238359">
        <ele>117.42</ele>
        <time>2014-04-13T13:40:10Z</time>
      </trkpt>
      <trkpt lat="44.18883235193789" lon="9.574117921292782">
        <ele>116.94</ele>
        <time>2014-04-13T13:40:14Z</time>
      </trkpt>
      <trkpt lat="44.188685333356261" lon="9.574085483327508">
        <ele>115.5</ele>
        <time>2014-04-13T13:40:27Z</time>
      </trkpt>
      <trkpt lat="44.188550719991326" lon="9.573967466130853">
        <ele>115.01000000000001</ele>
        <time>2014-04-13T13:40:41Z</time>
      </trkpt>
      <trkpt lat="44.188547870144248" lon="9.573937878012657">
        <ele>115.01000000000001</ele>
        <time>2014-04-13T13:40:44Z</time>
      </trkpt>
      <trkpt lat="44.18848542496562" lon="9.573841486126185">
        <ele>114.53</ele>
        <time>2014-04-13T13:40:54Z</time>
      </trkpt>
      <trkpt lat="44.188482742756605" lon="9.573824889957905">
        <ele>114.53</ele>
        <time>2014-04-13T13:40:56Z</time>
      </trkpt>
      <trkpt lat="44.188408814370632" lon="9.573727995157242">
        <ele>114.53</ele>
        <time>2014-04-13T13:41:03Z</time>
      </trkpt>
      <trkpt lat="44.188264142721891" lon="9.573542587459087">
        <ele>114.53</ele>
        <time>2014-04-13T13:41:17Z</time>
      </trkpt>
      <trkpt lat="44.188217455521226" lon="9.573508137837052">
        <ele>115.5</ele>
        <time>2014-04-13T13:41:21Z</time>
      </trkpt>
      <trkpt lat="44.188059624284506" lon="9.573411578312516">
        <ele>116.45999999999999</ele>
        <time>2014-04-13T13:41:37Z</time>
      </trkpt>
      <trkpt lat="44.187916712835431" lon="9.573330022394657">
        <ele>115.5</ele>
        <time>2014-04-13T13:41:52Z</time>
      </trkpt>
      <trkpt lat="44.187846388667822" lon="9.573373189195991">
        <ele>115.01000000000001</ele>
        <time>2014-04-13T13:42:00Z</time>
      </trkpt>
      <trkpt lat="44.187767095863819" lon="9.573464300483465">
        <ele>115.01000000000001</ele>
        <time>2014-04-13T13:42:07Z</time>
      </trkpt>
      <trkpt lat="44.187645222991705" lon="9.573506126180291">
        <ele>115.98</ele>
        <time>2014-04-13T13:42:20Z</time>
      </trkpt>
      <trkpt lat="44.187623346224427" lon="9.573528589680791">
        <ele>116.45999999999999</ele>
        <time>2014-04-13T13:42:23Z</time>
      </trkpt>
      <trkpt lat="44.187465263530612" lon="9.573569074273109">
        <ele>118.38</ele>
        <time>2014-04-13T13:42:38Z</time>
      </trkpt>
      <trkpt lat="44.187436765059829" lon="9.573578126728535">
        <ele>118.86</ele>
        <time>2014-04-13T13:42:42Z</time>
      </trkpt>
      <trkpt lat="44.187288992106915" lon="9.573633531108499">
        <ele>121.73999999999999</ele>
        <time>2014-04-13T13:42:59Z</time>
      </trkpt>
      <trkpt lat="44.18714951723814" lon="9.573728917166591">
        <ele>125.11</ele>
        <time>2014-04-13T13:43:16Z</time>
      </trkpt>
      <trkpt lat="44.187058489769697" lon="9.5738803781569">
        <ele>127.03</ele>
        <time>2014-04-13T13:43:32Z</time>
      </trkpt>
      <trkpt lat="44.186984393745661" lon="9.574015745893121">
        <ele>129.43000000000001</ele>
        <time>2014-04-13T13:43:46Z</time>
      </trkpt>
      <trkpt lat="44.186975844204426" lon="9.574047597125173">
        <ele>128.94999999999999</ele>
        <time>2014-04-13T13:44:01Z</time>
      </trkpt>
      <trkpt lat="44.186973581090569" lon="9.574044831097126">
        <ele>128.94999999999999</ele>
        <time>2014-04-13T13:44:14Z</time>
      </trkpt>
      <trkpt lat="44.186952291056514" lon="9.574070479720831">
        <ele>128.94999999999999</ele>
        <time>2014-04-13T13:44:17Z</time>
      </trkpt>
      <trkpt lat="44.186928318813443" lon="9.574119262397289">
        <ele>127.51000000000001</ele>
        <time>2014-04-13T13:44:21Z</time>
      </trkpt>
      <trkpt lat="44.186935527250171" lon="9.574083723127842">
        <ele>127.51000000000001</ele>
        <time>2014-04-13T13:44:25Z</time>
      </trkpt>
      <trkpt lat="44.18697215616703" lon="9.574050027877092">
        <ele>127.51000000000001</ele>
        <time>2014-04-13T13:44:38Z</time>
      </trkpt>
      <trkpt lat="44.186974754557014" lon="9.57404944114387">
        <ele>128.94999999999999</ele>
        <time>2014-04-13T13:44:44Z</time>
      </trkpt>
      <trkpt lat="44.186972407624125" lon="9.574086740612984">
        <ele>127.98999999999999</ele>
        <time>2014-04-13T13:44:53Z</time>
      </trkpt>
      <trkpt lat="44.186844248324633" lon="9.57430886104703">
        <ele>125.11</ele>
        <time>2014-04-13T13:45:09Z</time>
      </trkpt>
      <trkpt lat="44.186795800924301" lon="9.574491335079074">
        <ele>123.19</ele>
        <time>2014-04-13T13:45:23Z</time>
      </trkpt>
      <trkpt lat="44.186819605529308" lon="9.574517570436001">
        <ele>122.70999999999999</ele>
        <time>2014-04-13T13:45:30Z</time>
      </trkpt>
      <trkpt lat="44.186911135911942" lon="9.574817642569542">
        <ele>119.81999999999999</ele>
        <time>2014-04-13T13:45:47Z</time>
      </trkpt>
      <trkpt lat="44.186875680461526" lon="9.575028698891401">
        <ele>116.45999999999999</ele>
        <time>2014-04-13T13:46:00Z</time>
      </trkpt>
      <trkpt lat="44.186762608587742" lon="9.575211843475699">
        <ele>113.56999999999999</ele>
        <time>2014-04-13T13:46:14Z</time>
      </trkpt>
      <trkpt lat="44.186707958579063" lon="9.575376296415925">
        <ele>110.20999999999999</ele>
        <time>2014-04-13T13:46:26Z</time>
      </trkpt>
      <trkpt lat="44.186702007427812" lon="9.575539827346802">
        <ele>107.31999999999999</ele>
        <time>2014-04-13T13:46:36Z</time>
      </trkpt>
      <trkpt lat="44.186681052669883" lon="9.575702771544457">
        <ele>103.95999999999999</ele>
        <time>2014-04-13T13:46:47Z</time>
      </trkpt>
      <trkpt lat="44.186551971361041" lon="9.575852388516069">
        <ele>100.59999999999999</ele>
        <time>2014-04-13T13:47:04Z</time>
      </trkpt>
      <trkpt lat="44.18645616620779" lon="9.576040646061301">
        <ele>96.75</ele>
        <time>2014-04-13T13:47:18Z</time>
      </trkpt>
      <trkpt lat="44.186400342732668" lon="9.576243236660957">
        <ele>93.390000000000001</ele>
        <time>2014-04-13T13:47:33Z</time>
      </trkpt>
      <trkpt lat="44.186364132910967" lon="9.576388830319047">
        <ele>90.019999999999996</ele>
        <time>2014-04-13T13:47:44Z</time>
      </trkpt>
      <trkpt lat="44.186330186203122" lon="9.576515397056937">
        <ele>86.659999999999997</ele>
        <time>2014-04-13T13:47:55Z</time>
      </trkpt>
      <trkpt lat="44.186330186203122" lon="9.576612962409854">
        <ele>84.730000000000004</ele>
        <time>2014-04-13T13:48:02Z</time>
      </trkpt>
      <trkpt lat="44.18632716871798" lon="9.576671971008182">
        <ele>84.25</ele>
        <time>2014-04-13T13:48:06Z</time>
      </trkpt>
      <trkpt lat="44.186320379376411" lon="9.57679258659482">
        <ele>81.849999999999994</ele>
        <time>2014-04-13T13:48:14Z</time>
      </trkpt>
      <trkpt lat="44.186261789873242" lon="9.576927786692977">
        <ele>78.969999999999999</ele>
        <time>2014-04-13T13:48:30Z</time>
      </trkpt>
      <trkpt lat="44.186244774609804" lon="9.576923931017518">
        <ele>78.480000000000004</ele>
        <time>2014-04-13T13:48:50Z</time>
      </trkpt>
      <trkpt lat="44.186210408806801" lon="9.576837345957756">
        <ele>77.040000000000006</ele>
        <time>2014-04-13T13:49:09Z</time>
      </trkpt>
      <trkpt lat="44.186200015246868" lon="9.576790826395154">
        <ele>76.560000000000002</ele>
        <time>2014-04-13T13:49:12Z</time>
      </trkpt>
      <trkpt lat="44.186179647222161" lon="9.576668869704008">
        <ele>76.079999999999998</ele>
        <time>2014-04-13T13:49:17Z</time>
      </trkpt>
      <trkpt lat="44.186120973899961" lon="9.57660055719316">
        <ele>72.719999999999999</ele>
        <time>2014-04-13T13:49:28Z</time>
      </trkpt>
      <trkpt lat="44.186131116002798" lon="9.576707175001502">
        <ele>71.760000000000005</ele>
        <time>2014-04-13T13:49:33Z</time>
      </trkpt>
      <trkpt lat="44.186092223972082" lon="9.576940108090639">
        <ele>67.909999999999997</ele>
        <time>2014-04-13T13:49:45Z</time>
      </trkpt>
      <trkpt lat="44.186077890917659" lon="9.577101795002818">
        <ele>65.030000000000001</ele>
        <time>2014-04-13T13:49:54Z</time>
      </trkpt>
      <trkpt lat="44.186108484864235" lon="9.577224506065249">
        <ele>63.579999999999998</ele>
        <time>2014-04-13T13:50:07Z</time>
      </trkpt>
      <trkpt lat="44.186072694137692" lon="9.577344283461571">
        <ele>61.659999999999997</ele>
        <time>2014-04-13T13:50:15Z</time>
      </trkpt>
      <trkpt lat="44.186035059392452" lon="9.577415278181434">
        <ele>59.740000000000002</ele>
        <time>2014-04-13T13:50:19Z</time>
      </trkpt>
      <trkpt lat="44.185965741053224" lon="9.577584341168404">
        <ele>56.369999999999997</ele>
        <time>2014-04-13T13:50:28Z</time>
      </trkpt>
      <trkpt lat="44.185971608385444" lon="9.57776740193367">
        <ele>53.009999999999998</ele>
        <time>2014-04-13T13:50:39Z</time>
      </trkpt>
      <trkpt lat="44.185961131006479" lon="9.577924646437168">
        <ele>49.649999999999999</ele>
        <time>2014-04-13T13:50:48Z</time>
      </trkpt>
      <trkpt lat="44.185960963368416" lon="9.578256234526634">
        <ele>47.240000000000002</ele>
        <time>2014-04-13T13:51:04Z</time>
      </trkpt>
      <trkpt lat="44.185974290594459" lon="9.578340221196413">
        <ele>46.759999999999998</ele>
        <time>2014-04-13T13:51:10Z</time>
      </trkpt>
      <trkpt lat="44.185927016660571" lon="9.578448096290231">
        <ele>45.799999999999997</ele>
        <time>2014-04-13T13:51:16Z</time>
      </trkpt>
      <trkpt lat="44.185851663351059" lon="9.578612381592393">
        <ele>41.950000000000003</ele>
        <time>2014-04-13T13:51:27Z</time>
      </trkpt>
      <trkpt lat="44.185776058584452" lon="9.578756466507912">
        <ele>38.590000000000003</ele>
        <time>2014-04-13T13:51:36Z</time>
      </trkpt>
      <trkpt lat="44.185620239004493" lon="9.578772727400065">
        <ele>35.229999999999997</ele>
        <time>2014-04-13T13:51:45Z</time>
      </trkpt>
      <trkpt lat="44.185551507398486" lon="9.578866269439459">
        <ele>34.740000000000002</ele>
        <time>2014-04-13T13:51:51Z</time>
      </trkpt>
      <trkpt lat="44.185550585389137" lon="9.578885966911912">
        <ele>34.740000000000002</ele>
        <time>2014-04-13T13:51:52Z</time>
      </trkpt>
      <trkpt lat="44.185560811311007" lon="9.578956961631775">
        <ele>34.740000000000002</ele>
        <time>2014-04-13T13:51:57Z</time>
      </trkpt>
      <trkpt lat="44.18555754236877" lon="9.578977162018418">
        <ele>34.740000000000002</ele>
        <time>2014-04-13T13:51:58Z</time>
      </trkpt>
      <trkpt lat="44.185548238456249" lon="9.579001888632774">
        <ele>34.740000000000002</ele>
        <time>2014-04-13T13:51:59Z</time>
      </trkpt>
      <trkpt lat="44.1855214163661" lon="9.579155864194036">
        <ele>34.740000000000002</ele>
        <time>2014-04-13T13:52:06Z</time>
      </trkpt>
      <trkpt lat="44.18551747687161" lon="9.579191235825419">
        <ele>34.740000000000002</ele>
        <time>2014-04-13T13:52:08Z</time>
      </trkpt>
      <trkpt lat="44.185424605384469" lon="9.579426851123571">
        <ele>34.740000000000002</ele>
        <time>2014-04-13T13:52:25Z</time>
      </trkpt>
      <trkpt lat="44.185331230983138" lon="9.579660454764962">
        <ele>34.740000000000002</ele>
        <time>2014-04-13T13:52:43Z</time>
      </trkpt>
      <trkpt lat="44.185240287333727" lon="9.57987729460001">
        <ele>34.740000000000002</ele>
        <time>2014-04-13T13:53:01Z</time>
      </trkpt>
      <trkpt lat="44.185207011178136" lon="9.579910654574633">
        <ele>34.259999999999998</ele>
        <time>2014-04-13T13:53:15Z</time>
      </trkpt>
      <trkpt lat="44.18516518548131" lon="9.57991492934525">
        <ele>30.899999999999999</ele>
        <time>2014-04-13T13:53:26Z</time>
      </trkpt>
      <trkpt lat="44.185103410854936" lon="9.579802947118878">
        <ele>28.02</ele>
        <time>2014-04-13T13:53:38Z</time>
      </trkpt>
      <trkpt lat="44.18509041890502" lon="9.579802276566625">
        <ele>27.530000000000001</ele>
        <time>2014-04-13T13:53:39Z</time>
      </trkpt>
      <trkpt lat="44.185079019516706" lon="9.579810323193669">
        <ele>27.530000000000001</ele>
        <time>2014-04-13T13:53:40Z</time>
      </trkpt>
      <trkpt lat="44.185068961232901" lon="9.579824656248093">
        <ele>27.530000000000001</ele>
        <time>2014-04-13T13:53:41Z</time>
      </trkpt>
      <trkpt lat="44.185059573501348" lon="9.579839156940579">
        <ele>27.530000000000001</ele>
        <time>2014-04-13T13:53:42Z</time>
      </trkpt>
      <trkpt lat="44.184990003705025" lon="9.57991149276495">
        <ele>26.57</ele>
        <time>2014-04-13T13:53:54Z</time>
      </trkpt>
      <trkpt lat="44.184919847175479" lon="9.579895064234734">
        <ele>23.210000000000001</ele>
        <time>2014-04-13T13:54:04Z</time>
      </trkpt>
      <trkpt lat="44.184819683432579" lon="9.579859608784318">
        <ele>19.84</ele>
        <time>2014-04-13T13:54:19Z</time>
      </trkpt>
      <trkpt lat="44.184786323457956" lon="9.579874780029059">
        <ele>18.879999999999999</ele>
        <time>2014-04-13T13:54:23Z</time>
      </trkpt>
      <trkpt lat="44.184641819447279" lon="9.57986606284976">
        <ele>15.52</ele>
        <time>2014-04-13T13:54:39Z</time>
      </trkpt>
      <trkpt lat="44.184567555785179" lon="9.579848377034068">
        <ele>14.08</ele>
        <time>2014-04-13T13:54:47Z</time>
      </trkpt>
      <trkpt lat="44.18454660102725" lon="9.579833457246423">
        <ele>13.119999999999999</ele>
        <time>2014-04-13T13:54:49Z</time>
      </trkpt>
      <trkpt lat="44.184533189982176" lon="9.579819962382317">
        <ele>12.630000000000001</ele>
        <time>2014-04-13T13:54:50Z</time>
      </trkpt>
      <trkpt lat="44.18451969511807" lon="9.579803869128227">
        <ele>12.15</ele>
        <time>2014-04-13T13:54:51Z</time>
      </trkpt>
      <trkpt lat="44.184433864429593" lon="9.579704543575645">
        <ele>9.27</ele>
        <time>2014-04-13T13:55:03Z</time>
      </trkpt>
      <trkpt lat="44.184382651001215" lon="9.57968769595027">
        <ele>7.83</ele>
        <time>2014-04-13T13:55:09Z</time>
      </trkpt>
      <trkpt lat="44.184369826689363" lon="9.579691719263792">
        <ele>7.83</ele>
        <time>2014-04-13T13:55:10Z</time>
      </trkpt>
      <trkpt lat="44.184356667101383" lon="9.579753912985325">
        <ele>7.35</ele>
        <time>2014-04-13T13:55:13Z</time>
      </trkpt>
      <trkpt lat="44.184261197224259" lon="9.580024816095829">
        <ele>6.39</ele>
        <time>2014-04-13T13:55:28Z</time>
      </trkpt>
      <trkpt lat="44.184124991297722" lon="9.580214666202664">
        <ele>3.98</ele>
        <time>2014-04-13T13:55:42Z</time>
      </trkpt>
      <trkpt lat="44.184041591361165" lon="9.580271914601326">
        <ele>2.54</ele>
        <time>2014-04-13T13:55:50Z</time>
      </trkpt>
      <trkpt lat="44.184032203629613" lon="9.580282643437386">
        <ele>2.54</ele>
        <time>2014-04-13T13:55:51Z</time>
      </trkpt>
      <trkpt lat="44.184021893888712" lon="9.58029655739665">
        <ele>2.54</ele>
        <time>2014-04-13T13:55:52Z</time>
      </trkpt>
      <trkpt lat="44.18400764465332" lon="9.580308711156249">
        <ele>2.06</ele>
        <time>2014-04-13T13:55:53Z</time>
      </trkpt>
      <trkpt lat="44.183992054313421" lon="9.580319607630372">
        <ele>2.06</ele>
        <time>2014-04-13T13:55:54Z</time>
      </trkpt>
      <trkpt lat="44.183955425396562" lon="9.580389428883791">
        <ele>1.58</ele>
        <time>2014-04-13T13:56:01Z</time>
      </trkpt>
      <trkpt lat="44.183919131755829" lon="9.580583637580276">
        <ele>0.62</ele>
        <time>2014-04-13T13:56:13Z</time>
      </trkpt>
      <trkpt lat="44.183980654925108" lon="9.580663349479437">
        <ele>0.62</ele>
        <time>2014-04-13T13:56:16Z</time>
      </trkpt>
      <trkpt lat="44.184106383472681" lon="9.580817492678762">
        <ele>0.14</ele>
        <time>2014-04-13T13:56:28Z</time>
      </trkpt>
      <trkpt lat="44.184126332402229" lon="9.580881195142865">
        <ele>0.14</ele>
        <time>2014-04-13T13:56:33Z</time>
      </trkpt>
      <trkpt lat="44.184109149500728" lon="9.580924110487104">
        <ele>0.14</ele>
        <time>2014-04-13T13:56:37Z</time>
      </trkpt>
      <trkpt lat="44.184123147279024" lon="9.581001810729504">
        <ele>0.14</ele>
        <time>2014-04-13T13:56:48Z</time>
      </trkpt>
      <trkpt lat="44.184193387627602" lon="9.58108127117157">
        <ele>0.14</ele>
        <time>2014-04-13T13:57:00Z</time>
      </trkpt>
      <trkpt lat="44.184173690155149" lon="9.581118989735842">
        <ele>0.14</ele>
        <time>2014-04-13T13:57:14Z</time>
      </trkpt>
      <trkpt lat="44.184165056794882" lon="9.581130472943187">
        <ele>0.14</ele>
        <time>2014-04-13T13:57:15Z</time>
      </trkpt>
      <trkpt lat="44.184114681556821" lon="9.581195935606957">
        <ele>0.14</ele>
        <time>2014-04-13T13:57:32Z</time>
      </trkpt>
      <trkpt lat="44.184095403179526" lon="9.581206999719143">
        <ele>0.14</ele>
        <time>2014-04-13T13:57:51Z</time>
      </trkpt>
      <trkpt lat="44.184086602181196" lon="9.581224685534835">
        <ele>-0.34</ele>
        <time>2014-04-13T13:58:13Z</time>
      </trkpt>
      <trkpt lat="44.184082327410579" lon="9.581226445734501">
        <ele>1.1</ele>
        <time>2014-04-13T13:58:28Z</time>
      </trkpt>
      <trkpt lat="44.184110406786203" lon="9.581213118508458">
        <ele>1.1</ele>
        <time>2014-04-13T13:59:09Z</time>
      </trkpt>
      <trkpt lat="44.184093559160829" lon="9.581237006932497">
        <ele>1.1</ele>
        <time>2014-04-13T13:59:27Z</time>
      </trkpt>
      <trkpt lat="44.184084674343467" lon="9.581222925335169">
        <ele>1.1</ele>
        <time>2014-04-13T13:59:49Z</time>
      </trkpt>
      <trkpt lat="44.184091547504067" lon="9.581227032467723">
        <ele>1.1</ele>
        <time>2014-04-13T14:00:19Z</time>
      </trkpt>
      <trkpt lat="44.184094229713082" lon="9.581216052174568">
        <ele>1.1</ele>
        <time>2014-04-13T14:00:20Z</time>
      </trkpt>
      <trkpt lat="44.184104958549142" lon="9.581217980012298">
        <ele>1.58</ele>
        <time>2014-04-13T14:00:29Z</time>
      </trkpt>
      <trkpt lat="44.184116441756487" lon="9.581245891749859">
        <ele>1.58</ele>
        <time>2014-04-13T14:00:41Z</time>
      </trkpt>
      <trkpt lat="44.184125075116754" lon="9.58126743324101">
        <ele>1.58</ele>
        <time>2014-04-13T14:00:43Z</time>
      </trkpt>
      <trkpt lat="44.184127002954483" lon="9.581279000267386">
        <ele>1.58</ele>
        <time>2014-04-13T14:00:44Z</time>
      </trkpt>
      <trkpt lat="44.184135887771845" lon="9.581301715224981">
        <ele>1.58</ele>
        <time>2014-04-13T14:00:46Z</time>
      </trkpt>
      <trkpt lat="44.184141838923097" lon="9.581313617527485">
        <ele>1.58</ele>
        <time>2014-04-13T14:00:47Z</time>
      </trkpt>
      <trkpt lat="44.184145862236619" lon="9.581325687468052">
        <ele>1.58</ele>
        <time>2014-04-13T14:00:48Z</time>
      </trkpt>
      <trkpt lat="44.184148795902729" lon="9.581384863704443">
        <ele>1.58</ele>
        <time>2014-04-13T14:01:04Z</time>
      </trkpt>
      <trkpt lat="44.184128260239959" lon="9.581393832340837">
        <ele>1.58</ele>
        <time>2014-04-13T14:01:25Z</time>
      </trkpt>
      <trkpt lat="44.184087524190545" lon="9.581462815403938">
        <ele>2.06</ele>
        <time>2014-04-13T14:01:54Z</time>
      </trkpt>
      <trkpt lat="44.18410093523562" lon="9.581468431279063">
        <ele>2.06</ele>
        <time>2014-04-13T14:02:18Z</time>
      </trkpt>
      <trkpt lat="44.18408433906734" lon="9.581442615017295">
        <ele>2.06</ele>
        <time>2014-04-13T14:02:46Z</time>
      </trkpt>
      <trkpt lat="44.184101605787873" lon="9.581449823454022">
        <ele>2.06</ele>
        <time>2014-04-13T14:03:20Z</time>
      </trkpt>
      <trkpt lat="44.184109652414918" lon="9.581413781270385">
        <ele>2.54</ele>
        <time>2014-04-13T14:03:46Z</time>
      </trkpt>
      <trkpt lat="44.184133959934115" lon="9.581323675811291">
        <ele>2.54</ele>
        <time>2014-04-13T14:03:50Z</time>
      </trkpt>
      <trkpt lat="44.184122895821929" lon="9.581289812922478">
        <ele>2.54</ele>
        <time>2014-04-13T14:04:02Z</time>
      </trkpt>
      <trkpt lat="44.184089200571179" lon="9.581191996112466">
        <ele>2.54</ele>
        <time>2014-04-13T14:04:17Z</time>
      </trkpt>
      <trkpt lat="44.184087524190545" lon="9.581183027476072">
        <ele>2.54</ele>
        <time>2014-04-13T14:04:29Z</time>
      </trkpt>
      <trkpt lat="44.184086937457323" lon="9.581192331388593">
        <ele>2.54</ele>
        <time>2014-04-13T14:04:46Z</time>
      </trkpt>
      <trkpt lat="44.184084758162498" lon="9.581188643351197">
        <ele>2.54</ele>
        <time>2014-04-13T14:04:56Z</time>
      </trkpt>
      <trkpt lat="44.184067826718092" lon="9.581177495419979">
        <ele>2.54</ele>
        <time>2014-04-13T14:05:08Z</time>
      </trkpt>
      <trkpt lat="44.184100851416588" lon="9.581152014434338">
        <ele>2.54</ele>
        <time>2014-04-13T14:05:26Z</time>
      </trkpt>
      <trkpt lat="44.184089200571179" lon="9.581148577854037">
        <ele>2.54</ele>
        <time>2014-04-13T14:05:46Z</time>
      </trkpt>
      <trkpt lat="44.184082159772515" lon="9.581137681379914">
        <ele>2.54</ele>
        <time>2014-04-13T14:06:12Z</time>
      </trkpt>
      <trkpt lat="44.184078387916088" lon="9.58114430308342">
        <ele>2.06</ele>
        <time>2014-04-13T14:06:35Z</time>
      </trkpt>
      <trkpt lat="44.184094145894051" lon="9.581170873716474">
        <ele>2.06</ele>
        <time>2014-04-13T14:06:50Z</time>
      </trkpt>
      <trkpt lat="44.184090793132782" lon="9.581182189285755">
        <ele>2.06</ele>
        <time>2014-04-13T14:07:09Z</time>
      </trkpt>
      <trkpt lat="44.184086434543133" lon="9.581159222871065">
        <ele>2.06</ele>
        <time>2014-04-13T14:07:22Z</time>
      </trkpt>
      <trkpt lat="44.184104204177856" lon="9.581158887594938">
        <ele>2.06</ele>
        <time>2014-04-13T14:07:46Z</time>
      </trkpt>
      <trkpt lat="44.184094816446304" lon="9.581166682764888">
        <ele>2.06</ele>
        <time>2014-04-13T14:08:00Z</time>
      </trkpt>
      <trkpt lat="44.184089619666338" lon="9.581168107688427">
        <ele>2.06</ele>
        <time>2014-04-13T14:08:22Z</time>
      </trkpt>
      <trkpt lat="44.184105293825269" lon="9.581164503470063">
        <ele>2.06</ele>
        <time>2014-04-13T14:08:43Z</time>
      </trkpt>
      <trkpt lat="44.184105126187205" lon="9.581163581460714">
        <ele>2.06</ele>
        <time>2014-04-13T14:09:02Z</time>
      </trkpt>
      <trkpt lat="44.184097414836287" lon="9.581166347488761">
        <ele>2.06</ele>
        <time>2014-04-13T14:09:21Z</time>
      </trkpt>
      <trkpt lat="44.184102024883032" lon="9.581163330003619">
        <ele>2.06</ele>
        <time>2014-04-13T14:09:35Z</time>
      </trkpt>
      <trkpt lat="44.184062462300062" lon="9.581157881766558">
        <ele>2.06</ele>
        <time>2014-04-13T14:09:48Z</time>
      </trkpt>
      <trkpt lat="44.184006890282035" lon="9.58116383291781">
        <ele>2.06</ele>
        <time>2014-04-13T14:09:55Z</time>
      </trkpt>
      <trkpt lat="44.183997418731451" lon="9.581172382459045">
        <ele>2.06</ele>
        <time>2014-04-13T14:09:56Z</time>
      </trkpt>
      <trkpt lat="44.183871941640973" lon="9.581304984167218">
        <ele>2.06</ele>
        <time>2014-04-13T14:10:10Z</time>
      </trkpt>
      <trkpt lat="44.183845706284046" lon="9.581367848441005">
        <ele>2.06</ele>
        <time>2014-04-13T14:10:15Z</time>
      </trkpt>
      <trkpt lat="44.183841850608587" lon="9.581381846219301">
        <ele>2.06</ele>
        <time>2014-04-13T14:10:16Z</time>
      </trkpt>
      <trkpt lat="44.183822739869356" lon="9.581410763785243">
        <ele>2.06</ele>
        <time>2014-04-13T14:10:19Z</time>
      </trkpt>
      <trkpt lat="44.183812513947487" lon="9.581420235335827">
        <ele>2.06</ele>
        <time>2014-04-13T14:10:20Z</time>
      </trkpt>
      <trkpt lat="44.183672787621617" lon="9.581568175926805">
        <ele>2.06</ele>
        <time>2014-04-13T14:10:35Z</time>
      </trkpt>
      <trkpt lat="44.183600535616279" lon="9.581632968038321">
        <ele>2.06</ele>
        <time>2014-04-13T14:10:43Z</time>
      </trkpt>
      <trkpt lat="44.183586956933141" lon="9.581654844805598">
        <ele>2.06</ele>
        <time>2014-04-13T14:10:45Z</time>
      </trkpt>
      <trkpt lat="44.18351755477488" lon="9.581763306632638">
        <ele>2.54</ele>
        <time>2014-04-13T14:11:01Z</time>
      </trkpt>
      <trkpt lat="44.183518560603261" lon="9.581751907244325">
        <ele>2.54</ele>
        <time>2014-04-13T14:11:16Z</time>
      </trkpt>
      <trkpt lat="44.183504059910774" lon="9.581745369359851">
        <ele>2.54</ele>
        <time>2014-04-13T14:11:18Z</time>
      </trkpt>
      <trkpt lat="44.183495007455349" lon="9.581740172579885">
        <ele>2.54</ele>
        <time>2014-04-13T14:11:19Z</time>
      </trkpt>
      <trkpt lat="44.183331895619631" lon="9.581653671339154">
        <ele>2.54</ele>
        <time>2014-04-13T14:11:36Z</time>
      </trkpt>
      <trkpt lat="44.183251764625311" lon="9.581602793186903">
        <ele>2.06</ele>
        <time>2014-04-13T14:11:44Z</time>
      </trkpt>
      <trkpt lat="44.183190912008286" lon="9.581551076844335">
        <ele>2.06</ele>
        <time>2014-04-13T14:11:52Z</time>
      </trkpt>
      <trkpt lat="44.183180266991258" lon="9.58154889754951">
        <ele>2.06</ele>
        <time>2014-04-13T14:11:53Z</time>
      </trkpt>
      <trkpt lat="44.183064009994268" lon="9.581456612795591">
        <ele>2.06</ele>
        <time>2014-04-13T14:12:09Z</time>
      </trkpt>
      <trkpt lat="44.18303769081831" lon="9.581453343853355">
        <ele>2.06</ele>
        <time>2014-04-13T14:12:13Z</time>
      </trkpt>
      <trkpt lat="44.183001229539514" lon="9.581435993313789">
        <ele>1.1</ele>
        <time>2014-04-13T14:12:17Z</time>
      </trkpt>
      <trkpt lat="44.182935012504458" lon="9.581398526206613">
        <ele>0.62</ele>
        <time>2014-04-13T14:12:37Z</time>
      </trkpt>
      <trkpt lat="44.182935431599617" lon="9.581385031342506">
        <ele>0.62</ele>
        <time>2014-04-13T14:12:57Z</time>
      </trkpt>
      <trkpt lat="44.182931575924158" lon="9.581383019685745">
        <ele>0.14</ele>
        <time>2014-04-13T14:13:16Z</time>
      </trkpt>
      <trkpt lat="44.182933084666729" lon="9.581394167616963">
        <ele>0.14</ele>
        <time>2014-04-13T14:13:39Z</time>
      </trkpt>
      <trkpt lat="44.182971976697445" lon="9.581385366618633">
        <ele>0.14</ele>
        <time>2014-04-13T14:13:56Z</time>
      </trkpt>
      <trkpt lat="44.183036768808961" lon="9.581400705501437">
        <ele>0.14</ele>
        <time>2014-04-13T14:14:12Z</time>
      </trkpt>
      <trkpt lat="44.183079432696104" lon="9.5814199000597">
        <ele>0.14</ele>
        <time>2014-04-13T14:14:31Z</time>
      </trkpt>
      <trkpt lat="44.183079767972231" lon="9.581416128203273">
        <ele>1.58</ele>
        <time>2014-04-13T14:14:39Z</time>
      </trkpt>
      <trkpt lat="44.183089742437005" lon="9.58142040297389">
        <ele>1.58</ele>
        <time>2014-04-13T14:14:51Z</time>
      </trkpt>
      <trkpt lat="44.183123186230659" lon="9.581404812633991">
        <ele>1.58</ele>
        <time>2014-04-13T14:15:08Z</time>
      </trkpt>
      <trkpt lat="44.183131651952863" lon="9.58142627030611">
        <ele>1.58</ele>
        <time>2014-04-13T14:15:15Z</time>
      </trkpt>
      <trkpt lat="44.183104997500777" lon="9.58140766248107">
        <ele>1.58</ele>
        <time>2014-04-13T14:15:22Z</time>
      </trkpt>
      <trkpt lat="44.183096699416637" lon="9.581409757956862">
        <ele>1.58</ele>
        <time>2014-04-13T14:15:39Z</time>
      </trkpt>
      <trkpt lat="44.183080773800611" lon="9.581418810412288">
        <ele>1.58</ele>
        <time>2014-04-13T14:15:52Z</time>
      </trkpt>
      <trkpt lat="44.183084210380912" lon="9.581438424065709">
        <ele>1.58</ele>
        <time>2014-04-13T14:16:08Z</time>
      </trkpt>
      <trkpt lat="44.183105081319809" lon="9.581458456814289">
        <ele>1.58</ele>
        <time>2014-04-13T14:16:18Z</time>
      </trkpt>
      <trkpt lat="44.183122683316469" lon="9.581459546461701">
        <ele>1.58</ele>
        <time>2014-04-13T14:16:31Z</time>
      </trkpt>
      <trkpt lat="44.183184541761875" lon="9.5815166272223">
        <ele>2.06</ele>
        <time>2014-04-13T14:16:41Z</time>
      </trkpt>
      <trkpt lat="44.183304319158196" lon="9.581647552549839">
        <ele>2.06</ele>
        <time>2014-04-13T14:16:58Z</time>
      </trkpt>
      <trkpt lat="44.183470280840993" lon="9.581760792061687">
        <ele>2.06</ele>
        <time>2014-04-13T14:17:17Z</time>
      </trkpt>
      <trkpt lat="44.183479584753513" lon="9.581792810931802">
        <ele>2.06</ele>
        <time>2014-04-13T14:17:19Z</time>
      </trkpt>
      <trkpt lat="44.183501377701759" lon="9.581853160634637">
        <ele>2.54</ele>
        <time>2014-04-13T14:17:33Z</time>
      </trkpt>
      <trkpt lat="44.183512860909104" lon="9.581871936097741">
        <ele>2.54</ele>
        <time>2014-04-13T14:17:47Z</time>
      </trkpt>
      <trkpt lat="44.183514704927802" lon="9.581870846450329">
        <ele>2.54</ele>
        <time>2014-04-13T14:18:03Z</time>
      </trkpt>
      <trkpt lat="44.183502048254013" lon="9.581891046836972">
        <ele>2.54</ele>
        <time>2014-04-13T14:18:18Z</time>
      </trkpt>
      <trkpt lat="44.183496851474047" lon="9.581900183111429">
        <ele>2.54</ele>
        <time>2014-04-13T14:18:43Z</time>
      </trkpt>
      <trkpt lat="44.183514788746834" lon="9.581921808421612">
        <ele>2.54</ele>
        <time>2014-04-13T14:19:02Z</time>
      </trkpt>
      <trkpt lat="44.183507077395916" lon="9.581908397376537">
        <ele>2.54</ele>
        <time>2014-04-13T14:19:25Z</time>
      </trkpt>
      <trkpt lat="44.183500958606601" lon="9.581886436790228">
        <ele>2.54</ele>
        <time>2014-04-13T14:19:39Z</time>
      </trkpt>
      <trkpt lat="44.183491906151175" lon="9.581879312172532">
        <ele>2.54</ele>
        <time>2014-04-13T14:19:58Z</time>
      </trkpt>
      <trkpt lat="44.1834975220263" lon="9.581885263323784">
        <ele>2.54</ele>
        <time>2014-04-13T14:20:13Z</time>
      </trkpt>
      <trkpt lat="44.183501629158854" lon="9.581887777894735">
        <ele>2.54</ele>
        <time>2014-04-13T14:20:28Z</time>
      </trkpt>
      <trkpt lat="44.183495007455349" lon="9.581890208646655">
        <ele>2.54</ele>
        <time>2014-04-13T14:20:50Z</time>
      </trkpt>
      <trkpt lat="44.183508502319455" lon="9.581887274980545">
        <ele>1.58</ele>
        <time>2014-04-13T14:21:14Z</time>
      </trkpt>
      <trkpt lat="44.183510933071375" lon="9.581893142312765">
        <ele>1.1</ele>
        <time>2014-04-13T14:21:33Z</time>
      </trkpt>
      <trkpt lat="44.183507580310106" lon="9.581895070150495">
        <ele>1.1</ele>
        <time>2014-04-13T14:21:50Z</time>
      </trkpt>
      <trkpt lat="44.183515962213278" lon="9.581893896684051">
        <ele>1.1</ele>
        <time>2014-04-13T14:22:10Z</time>
      </trkpt>
      <trkpt lat="44.183516381308436" lon="9.58188652060926">
        <ele>1.1</ele>
        <time>2014-04-13T14:22:24Z</time>
      </trkpt>
      <trkpt lat="44.183527864515781" lon="9.581883167847991">
        <ele>1.1</ele>
        <time>2014-04-13T14:22:43Z</time>
      </trkpt>
      <trkpt lat="44.183511268347502" lon="9.58188408985734">
        <ele>1.1</ele>
        <time>2014-04-13T14:23:00Z</time>
      </trkpt>
      <trkpt lat="44.183504646643996" lon="9.581879731267691">
        <ele>0.62</ele>
        <time>2014-04-13T14:23:13Z</time>
      </trkpt>
      <trkpt lat="44.183521745726466" lon="9.581883000209928">
        <ele>0.62</ele>
        <time>2014-04-13T14:23:29Z</time>
      </trkpt>
      <trkpt lat="44.183521075174212" lon="9.581866655498743">
        <ele>0.62</ele>
        <time>2014-04-13T14:23:48Z</time>
      </trkpt>
      <trkpt lat="44.183516129851341" lon="9.581874869763851">
        <ele>0.62</ele>
        <time>2014-04-13T14:23:59Z</time>
      </trkpt>
      <trkpt lat="44.183514704927802" lon="9.581898003816605">
        <ele>0.62</ele>
        <time>2014-04-13T14:24:15Z</time>
      </trkpt>
      <trkpt lat="44.183474471792579" lon="9.582017194479704">
        <ele>0.62</ele>
        <time>2014-04-13T14:24:30Z</time>
      </trkpt>
      <trkpt lat="44.183353688567877" lon="9.582321122288704">
        <ele>0.14</ele>
        <time>2014-04-13T14:24:51Z</time>
      </trkpt>
      <trkpt lat="44.183297697454691" lon="9.582363702356815">
        <ele>0.14</ele>
        <time>2014-04-13T14:24:56Z</time>
      </trkpt>
      <trkpt lat="44.183270540088415" lon="9.582356410101056">
        <ele>1.58</ele>
        <time>2014-04-13T14:24:59Z</time>
      </trkpt>
      <trkpt lat="44.183290237560868" lon="9.582279548048973">
        <ele>4.94</ele>
        <time>2014-04-13T14:25:10Z</time>
      </trkpt>
      <trkpt lat="44.183280263096094" lon="9.582221377640963">
        <ele>6.87</ele>
        <time>2014-04-13T14:25:24Z</time>
      </trkpt>
      <trkpt lat="44.183270623907447" lon="9.582213666290045">
        <ele>6.87</ele>
        <time>2014-04-13T14:25:25Z</time>
      </trkpt>
      <trkpt lat="44.183202730491757" lon="9.582156501710415">
        <ele>6.87</ele>
        <time>2014-04-13T14:25:33Z</time>
      </trkpt>
      <trkpt lat="44.183182949200273" lon="9.582117861136794">
        <ele>6.87</ele>
        <time>2014-04-13T14:25:47Z</time>
      </trkpt>
      <trkpt lat="44.183190828189254" lon="9.58212205208838">
        <ele>6.87</ele>
        <time>2014-04-13T14:26:05Z</time>
      </trkpt>
      <trkpt lat="44.183188984170556" lon="9.5821279194206">
        <ele>6.87</ele>
        <time>2014-04-13T14:26:06Z</time>
      </trkpt>
      <trkpt lat="44.183148080483079" lon="9.582201344892383">
        <ele>6.87</ele>
        <time>2014-04-13T14:26:12Z</time>
      </trkpt>
      <trkpt lat="44.183063423261046" lon="9.582347273826599">
        <ele>6.87</ele>
        <time>2014-04-13T14:26:23Z</time>
      </trkpt>
      <trkpt lat="44.182988321408629" lon="9.582468643784523">
        <ele>6.87</ele>
        <time>2014-04-13T14:26:34Z</time>
      </trkpt>
      <trkpt lat="44.182813474908471" lon="9.582746084779501">
        <ele>6.39</ele>
        <time>2014-04-13T14:26:55Z</time>
      </trkpt>
      <trkpt lat="44.182619182392955" lon="9.583049174398184">
        <ele>6.39</ele>
        <time>2014-04-13T14:27:17Z</time>
      </trkpt>
      <trkpt lat="44.182424051687121" lon="9.58330700173974">
        <ele>6.39</ele>
        <time>2014-04-13T14:27:38Z</time>
      </trkpt>
      <trkpt lat="44.182156920433044" lon="9.583566673099995">
        <ele>6.39</ele>
        <time>2014-04-13T14:28:03Z</time>
      </trkpt>
      <trkpt lat="44.182115430012345" lon="9.583601457998157">
        <ele>6.39</ele>
        <time>2014-04-13T14:28:07Z</time>
      </trkpt>
      <trkpt lat="44.182023480534554" lon="9.583682594820857">
        <ele>6.39</ele>
        <time>2014-04-13T14:28:16Z</time>
      </trkpt>
      <trkpt lat="44.181811586022377" lon="9.583874456584454">
        <ele>6.87</ele>
        <time>2014-04-13T14:28:36Z</time>
      </trkpt>
      <trkpt lat="44.181614778935909" lon="9.58398032002151">
        <ele>6.87</ele>
        <time>2014-04-13T14:28:52Z</time>
      </trkpt>
      <trkpt lat="44.181508077308536" lon="9.584035556763411">
        <ele>6.87</ele>
        <time>2014-04-13T14:29:01Z</time>
      </trkpt>
      <trkpt lat="44.181445380672812" lon="9.5840809866786">
        <ele>6.87</ele>
        <time>2014-04-13T14:29:07Z</time>
      </trkpt>
      <trkpt lat="44.181348150596023" lon="9.584143599495292">
        <ele>6.87</ele>
        <time>2014-04-13T14:29:16Z</time>
      </trkpt>
      <trkpt lat="44.181291740387678" lon="9.584185089915991">
        <ele>6.87</ele>
        <time>2014-04-13T14:29:21Z</time>
      </trkpt>
      <trkpt lat="44.181185206398368" lon="9.584254994988442">
        <ele>6.87</ele>
        <time>2014-04-13T14:29:30Z</time>
      </trkpt>
      <trkpt lat="44.181077247485518" lon="9.584308471530676">
        <ele>6.87</ele>
        <time>2014-04-13T14:29:39Z</time>
      </trkpt>
      <trkpt lat="44.180842051282525" lon="9.58440788090229">
        <ele>6.87</ele>
        <time>2014-04-13T14:29:59Z</time>
      </trkpt>
      <trkpt lat="44.180839620530605" lon="9.584403606131673">
        <ele>6.87</ele>
        <time>2014-04-13T14:30:09Z</time>
      </trkpt>
      <trkpt lat="44.180793017148972" lon="9.584443755447865">
        <ele>6.87</ele>
        <time>2014-04-13T14:30:14Z</time>
      </trkpt>
      <trkpt lat="44.180536279454827" lon="9.584564035758376">
        <ele>6.87</ele>
        <time>2014-04-13T14:30:36Z</time>
      </trkpt>
      <trkpt lat="44.180306447669864" lon="9.584669563919306">
        <ele>6.87</ele>
        <time>2014-04-13T14:30:55Z</time>
      </trkpt>
      <trkpt lat="44.180105952546" lon="9.584796717390418">
        <ele>6.87</ele>
        <time>2014-04-13T14:31:13Z</time>
      </trkpt>
      <trkpt lat="44.179967399686575" lon="9.584880787879229">
        <ele>6.87</ele>
        <time>2014-04-13T14:31:28Z</time>
      </trkpt>
      <trkpt lat="44.179913587868214" lon="9.584894450381398">
        <ele>6.87</ele>
        <time>2014-04-13T14:31:38Z</time>
      </trkpt>
      <trkpt lat="44.179654000326991" lon="9.585037864744663">
        <ele>6.87</ele>
        <time>2014-04-13T14:32:00Z</time>
      </trkpt>
      <trkpt lat="44.179631872102618" lon="9.585057478398085">
        <ele>6.87</ele>
        <time>2014-04-13T14:32:02Z</time>
      </trkpt>
      <trkpt lat="44.179549142718315" lon="9.584975084289908">
        <ele>5.42</ele>
        <time>2014-04-13T14:32:10Z</time>
      </trkpt>
      <trkpt lat="44.179528439417481" lon="9.584882380440831">
        <ele>4.94</ele>
        <time>2014-04-13T14:32:16Z</time>
      </trkpt>
      <trkpt lat="44.179573450237513" lon="9.584904508665204">
        <ele>3.02</ele>
        <time>2014-04-13T14:32:21Z</time>
      </trkpt>
      <trkpt lat="44.179602116346359" lon="9.584928983822465">
        <ele>1.58</ele>
        <time>2014-04-13T14:32:26Z</time>
      </trkpt>
      <trkpt lat="44.179590465500951" lon="9.584847595542669">
        <ele>0.14</ele>
        <time>2014-04-13T14:32:37Z</time>
      </trkpt>
      <trkpt lat="44.179590297862887" lon="9.584855725988746">
        <ele>0.14</ele>
        <time>2014-04-13T14:33:12Z</time>
      </trkpt>
      <trkpt lat="44.179594740271568" lon="9.584893528372049">
        <ele>1.58</ele>
        <time>2014-04-13T14:33:15Z</time>
      </trkpt>
      <trkpt lat="44.179608402773738" lon="9.584910375997424">
        <ele>1.58</ele>
        <time>2014-04-13T14:33:18Z</time>
      </trkpt>
      <trkpt lat="44.179571270942688" lon="9.58489797078073">
        <ele>3.02</ele>
        <time>2014-04-13T14:33:28Z</time>
      </trkpt>
      <trkpt lat="44.179554004222155" lon="9.584972904995084">
        <ele>5.42</ele>
        <time>2014-04-13T14:33:41Z</time>
      </trkpt>
      <trkpt lat="44.179571522399783" lon="9.585061334073544">
        <ele>5.91</ele>
        <time>2014-04-13T14:33:48Z</time>
      </trkpt>
      <trkpt lat="44.1794721968472" lon="9.585105674341321">
        <ele>6.39</ele>
        <time>2014-04-13T14:34:02Z</time>
      </trkpt>
      <trkpt lat="44.179476723074913" lon="9.585063178092241">
        <ele>6.39</ele>
        <time>2014-04-13T14:34:22Z</time>
      </trkpt>
      <trkpt lat="44.175168257206678" lon="9.588689524680376">
        <ele>6.87</ele>
        <time>2014-04-13T14:39:57Z</time>
      </trkpt>
      <trkpt lat="44.175090305507183" lon="9.588911728933454">
        <ele>6.87</ele>
        <time>2014-04-13T14:40:09Z</time>
      </trkpt>
      <trkpt lat="44.174938593059778" lon="9.589247927069664">
        <ele>6.87</ele>
        <time>2014-04-13T14:40:29Z</time>
      </trkpt>
      <trkpt lat="44.174841362982988" lon="9.589370386675">
        <ele>6.87</ele>
        <time>2014-04-13T14:40:40Z</time>
      </trkpt>
      <trkpt lat="44.174868604168296" lon="9.589413972571492">
        <ele>6.87</ele>
        <time>2014-04-13T14:40:44Z</time>
      </trkpt>
      <trkpt lat="44.174846643581986" lon="9.589500306174159">
        <ele>6.87</ele>
        <time>2014-04-13T14:40:51Z</time>
      </trkpt>
      <trkpt lat="44.174808925017715" lon="9.589630644768477">
        <ele>6.87</ele>
        <time>2014-04-13T14:41:00Z</time>
      </trkpt>
      <trkpt lat="44.174701720476151" lon="9.590036328881979">
        <ele>6.87</ele>
        <time>2014-04-13T14:41:23Z</time>
      </trkpt>
      <trkpt lat="44.174665007740259" lon="9.590169182047248">
        <ele>6.87</ele>
        <time>2014-04-13T14:41:31Z</time>
      </trkpt>
      <trkpt lat="44.174624187871814" lon="9.590389374643564">
        <ele>6.87</ele>
        <time>2014-04-13T14:41:45Z</time>
      </trkpt>
      <trkpt lat="44.173371763899922" lon="9.596541859209538">
        <ele>4.94</ele>
        <time>2014-04-13T14:47:05Z</time>
      </trkpt>
      <trkpt lat="44.173379139974713" lon="9.596574464812875">
        <ele>4.94</ele>
        <time>2014-04-13T14:47:15Z</time>
      </trkpt>
      <trkpt lat="44.173352234065533" lon="9.596461057662964">
        <ele>4.94</ele>
        <time>2014-04-13T14:47:25Z</time>
      </trkpt>
      <trkpt lat="44.173014694824815" lon="9.597886819392443">
        <ele>4.94</ele>
        <time>2014-04-13T14:48:11Z</time>
      </trkpt>
      <trkpt lat="44.173035146668553" lon="9.597919844090939">
        <ele>4.94</ele>
        <time>2014-04-13T14:48:27Z</time>
      </trkpt>
      <trkpt lat="44.173018885776401" lon="9.598066443577409">
        <ele>4.94</ele>
        <time>2014-04-13T14:48:36Z</time>
      </trkpt>
      <trkpt lat="44.172973204404116" lon="9.598120423033834">
        <ele>4.94</ele>
        <time>2014-04-13T14:48:50Z</time>
      </trkpt>
      <trkpt lat="44.172966415062547" lon="9.598120506852865">
        <ele>4.94</ele>
        <time>2014-04-13T14:49:03Z</time>
      </trkpt>
      <trkpt lat="44.172995081171393" lon="9.59816811606288">
        <ele>4.94</ele>
        <time>2014-04-13T14:49:08Z</time>
      </trkpt>
      <trkpt lat="44.172990638762712" lon="9.59847011603415">
        <ele>4.94</ele>
        <time>2014-04-13T14:49:26Z</time>
      </trkpt>
      <trkpt lat="44.172985022887588" lon="9.598858868703246">
        <ele>4.94</ele>
        <time>2014-04-13T14:49:47Z</time>
      </trkpt>
      <trkpt lat="44.172979993745685" lon="9.599195988848805">
        <ele>4.94</ele>
        <time>2014-04-13T14:50:05Z</time>
      </trkpt>
      <trkpt lat="44.17298854328692" lon="9.599409978836775">
        <ele>4.94</ele>
        <time>2014-04-13T14:50:25Z</time>
      </trkpt>
      <trkpt lat="44.172975886613131" lon="9.599574850872159">
        <ele>4.94</ele>
        <time>2014-04-13T14:50:49Z</time>
      </trkpt>
      <trkpt lat="44.172965912148356" lon="9.599649114534259">
        <ele>4.94</ele>
        <time>2014-04-13T14:51:04Z</time>
      </trkpt>
      <trkpt lat="44.172957027330995" lon="9.599870145320892">
        <ele>4.94</ele>
        <time>2014-04-13T14:51:19Z</time>
      </trkpt>
      <trkpt lat="44.17295778170228" lon="9.600073406472802">
        <ele>4.94</ele>
        <time>2014-04-13T14:51:36Z</time>
      </trkpt>
      <trkpt lat="44.172956943511963" lon="9.600084386765957">
        <ele>4.94</ele>
        <time>2014-04-13T14:51:54Z</time>
      </trkpt>
      <trkpt lat="44.172956692054868" lon="9.600082039833069">
        <ele>4.94</ele>
        <time>2014-04-13T14:51:58Z</time>
      </trkpt>
      <trkpt lat="44.172964571043849" lon="9.600167199969292">
        <ele>4.94</ele>
        <time>2014-04-13T14:52:10Z</time>
      </trkpt>
      <trkpt lat="44.172967672348022" lon="9.600180108100176">
        <ele>4.94</ele>
        <time>2014-04-13T14:52:15Z</time>
      </trkpt>
      <trkpt lat="44.17296071536839" lon="9.600362163037062">
        <ele>4.94</ele>
        <time>2014-04-13T14:52:29Z</time>
      </trkpt>
      <trkpt lat="44.172995835542679" lon="9.600460063666105">
        <ele>4.94</ele>
        <time>2014-04-13T14:52:44Z</time>
      </trkpt>
      <trkpt lat="44.173015868291259" lon="9.60098996758461">
        <ele>4.94</ele>
        <time>2014-04-13T14:53:03Z</time>
      </trkpt>
      <trkpt lat="44.172933390364051" lon="9.601237569004297">
        <ele>4.94</ele>
        <time>2014-04-13T14:53:15Z</time>
      </trkpt>
      <trkpt lat="44.172927523031831" lon="9.601322561502457">
        <ele>4.94</ele>
        <time>2014-04-13T14:53:33Z</time>
      </trkpt>
      <trkpt lat="44.172876812517643" lon="9.601301103830338">
        <ele>5.91</ele>
        <time>2014-04-13T14:53:50Z</time>
      </trkpt>
      <trkpt lat="44.173037745058537" lon="9.602914871647954">
        <ele>5.91</ele>
        <time>2014-04-13T14:54:44Z</time>
      </trkpt>
      <trkpt lat="44.172922410070896" lon="9.602629886940122">
        <ele>5.91</ele>
        <time>2014-04-13T14:54:56Z</time>
      </trkpt>
      <trkpt lat="44.172908831387758" lon="9.602793166413903">
        <ele>5.91</ele>
        <time>2014-04-13T14:55:09Z</time>
      </trkpt>
      <trkpt lat="44.172902712598443" lon="9.602922331541777">
        <ele>5.91</ele>
        <time>2014-04-13T14:55:18Z</time>
      </trkpt>
      <trkpt lat="44.172898605465889" lon="9.603168424218893">
        <ele>5.91</ele>
        <time>2014-04-13T14:55:33Z</time>
      </trkpt>
      <trkpt lat="44.172890977934003" lon="9.603345030918717">
        <ele>5.91</ele>
        <time>2014-04-13T14:55:46Z</time>
      </trkpt>
      <trkpt lat="44.172867173328996" lon="9.603396831080318">
        <ele>6.39</ele>
        <time>2014-04-13T14:55:53Z</time>
      </trkpt>
      <trkpt lat="44.172830460593104" lon="9.603699585422874">
        <ele>6.39</ele>
        <time>2014-04-13T14:56:14Z</time>
      </trkpt>
      <trkpt lat="44.17279701679945" lon="9.603919275105">
        <ele>6.39</ele>
        <time>2014-04-13T14:56:30Z</time>
      </trkpt>
      <trkpt lat="44.172735912725329" lon="9.604039387777448">
        <ele>6.39</ele>
        <time>2014-04-13T14:56:44Z</time>
      </trkpt>
      <trkpt lat="44.172697523608804" lon="9.604263436049223">
        <ele>6.39</ele>
        <time>2014-04-13T14:57:02Z</time>
      </trkpt>
      <trkpt lat="44.17263918556273" lon="9.604492597281933">
        <ele>6.39</ele>
        <time>2014-04-13T14:57:19Z</time>
      </trkpt>
      <trkpt lat="44.172624265775084" lon="9.604571890085936">
        <ele>6.39</ele>
        <time>2014-04-13T14:57:25Z</time>
      </trkpt>
      <trkpt lat="44.172609513625503" lon="9.604638274759054">
        <ele>6.39</ele>
        <time>2014-04-13T14:57:29Z</time>
      </trkpt>
      <trkpt lat="44.172523012384772" lon="9.604903059080243">
        <ele>6.39</ele>
        <time>2014-04-13T14:57:48Z</time>
      </trkpt>
      <trkpt lat="44.172499291598797" lon="9.604978496208787">
        <ele>6.39</ele>
        <time>2014-04-13T14:58:03Z</time>
      </trkpt>
      <trkpt lat="44.172413796186447" lon="9.605213943868876">
        <ele>6.39</ele>
        <time>2014-04-13T14:58:21Z</time>
      </trkpt>
      <trkpt lat="44.172399882227182" lon="9.605286782607436">
        <ele>6.39</ele>
        <time>2014-04-13T14:58:38Z</time>
      </trkpt>
      <trkpt lat="44.172371551394463" lon="9.605340845882893">
        <ele>6.39</ele>
        <time>2014-04-13T14:59:00Z</time>
      </trkpt>
      <trkpt lat="44.172264095395803" lon="9.605593141168356">
        <ele>6.39</ele>
        <time>2014-04-13T14:59:19Z</time>
      </trkpt>
      <trkpt lat="44.172236099839211" lon="9.605652820318937">
        <ele>6.39</ele>
        <time>2014-04-13T14:59:24Z</time>
      </trkpt>
      <trkpt lat="44.172253031283617" lon="9.605732196941972">
        <ele>6.39</ele>
        <time>2014-04-13T14:59:30Z</time>
      </trkpt>
      <trkpt lat="44.172142976894975" lon="9.605992622673512">
        <ele>4.94</ele>
        <time>2014-04-13T14:59:50Z</time>
      </trkpt>
      <trkpt lat="44.172092182561755" lon="9.606057917699218">
        <ele>4.94</ele>
        <time>2014-04-13T14:59:56Z</time>
      </trkpt>
      <trkpt lat="44.172060415148735" lon="9.606104269623756">
        <ele>4.94</ele>
        <time>2014-04-13T15:00:00Z</time>
      </trkpt>
      <trkpt lat="44.171975506469607" lon="9.606266040354967">
        <ele>4.94</ele>
        <time>2014-04-13T15:00:12Z</time>
      </trkpt>
      <trkpt lat="44.171833349391818" lon="9.606475671753287">
        <ele>4.94</ele>
        <time>2014-04-13T15:00:30Z</time>
      </trkpt>
      <trkpt lat="44.171727737411857" lon="9.606631407514215">
        <ele>4.94</ele>
        <time>2014-04-13T15:00:43Z</time>
      </trkpt>
      <trkpt lat="44.171524727717042" lon="9.60688672028482">
        <ele>4.94</ele>
        <time>2014-04-13T15:01:05Z</time>
      </trkpt>
      <trkpt lat="44.171308893710375" lon="9.607127448543906">
        <ele>4.94</ele>
        <time>2014-04-13T15:01:26Z</time>
      </trkpt>
      <trkpt lat="44.171098256483674" lon="9.607344623655081">
        <ele>4.94</ele>
        <time>2014-04-13T15:01:46Z</time>
      </trkpt>
      <trkpt lat="44.170857863500714" lon="9.607586273923516">
        <ele>4.94</ele>
        <time>2014-04-13T15:02:09Z</time>
      </trkpt>
      <trkpt lat="44.170641610398889" lon="9.607812585309148">
        <ele>4.94</ele>
        <time>2014-04-13T15:02:30Z</time>
      </trkpt>
      <trkpt lat="44.170508338138461" lon="9.607984162867069">
        <ele>4.46</ele>
        <time>2014-04-13T15:02:44Z</time>
      </trkpt>
      <trkpt lat="44.170402977615595" lon="9.608145765960217">
        <ele>4.46</ele>
        <time>2014-04-13T15:02:56Z</time>
      </trkpt>
      <trkpt lat="44.170304238796234" lon="9.608233775943518">
        <ele>4.46</ele>
        <time>2014-04-13T15:03:14Z</time>
      </trkpt>
      <trkpt lat="44.17030013166368" lon="9.608242493122816">
        <ele>4.46</ele>
        <time>2014-04-13T15:03:18Z</time>
      </trkpt>
      <trkpt lat="44.170229891315103" lon="9.608324049040675">
        <ele>4.46</ele>
        <time>2014-04-13T15:03:28Z</time>
      </trkpt>
      <trkpt lat="44.170190999284387" lon="9.608350032940507">
        <ele>4.46</ele>
        <time>2014-04-13T15:03:32Z</time>
      </trkpt>
      <trkpt lat="44.169887825846672" lon="9.608663097023964">
        <ele>4.94</ele>
        <time>2014-04-13T15:04:01Z</time>
      </trkpt>
      <trkpt lat="44.169645085930824" lon="9.608923690393567">
        <ele>4.94</ele>
        <time>2014-04-13T15:04:23Z</time>
      </trkpt>
      <trkpt lat="44.169383570551872" lon="9.609200209379196">
        <ele>4.94</ele>
        <time>2014-04-13T15:04:46Z</time>
      </trkpt>
      <trkpt lat="44.169244514778256" lon="9.609348149970174">
        <ele>4.94</ele>
        <time>2014-04-13T15:04:59Z</time>
      </trkpt>
      <trkpt lat="44.169214423745871" lon="9.609401961788535">
        <ele>4.94</ele>
        <time>2014-04-13T15:05:03Z</time>
      </trkpt>
      <trkpt lat="44.169014766812325" lon="9.609611677005887">
        <ele>4.94</ele>
        <time>2014-04-13T15:05:21Z</time>
      </trkpt>
      <trkpt lat="44.168845117092133" lon="9.609857937321067">
        <ele>4.94</ele>
        <time>2014-04-13T15:05:40Z</time>
      </trkpt>
      <trkpt lat="44.168729279190302" lon="9.610064970329404">
        <ele>4.94</ele>
        <time>2014-04-13T15:05:55Z</time>
      </trkpt>
      <trkpt lat="44.168545631691813" lon="9.610369903966785">
        <ele>4.94</ele>
        <time>2014-04-13T15:06:16Z</time>
      </trkpt>
      <trkpt lat="44.168349411338568" lon="9.610658241435885">
        <ele>4.94</ele>
        <time>2014-04-13T15:06:38Z</time>
      </trkpt>
      <trkpt lat="44.168190993368626" lon="9.610956637188792">
        <ele>5.91</ele>
        <time>2014-04-13T15:06:58Z</time>
      </trkpt>
      <trkpt lat="44.16803291067481" lon="9.611272048205137">
        <ele>5.91</ele>
        <time>2014-04-13T15:07:19Z</time>
      </trkpt>
      <trkpt lat="44.1678745765239" lon="9.61160003207624">
        <ele>5.91</ele>
        <time>2014-04-13T15:07:40Z</time>
      </trkpt>
      <trkpt lat="44.167781202122569" lon="9.611827684566379">
        <ele>2.54</ele>
        <time>2014-04-13T15:07:54Z</time>
      </trkpt>
      <trkpt lat="44.167759576812387" lon="9.611893398687244">
        <ele>2.06</ele>
        <time>2014-04-13T15:07:58Z</time>
      </trkpt>
      <trkpt lat="44.167670561000705" lon="9.611976044252515">
        <ele>2.06</ele>
        <time>2014-04-13T15:08:07Z</time>
      </trkpt>
      <trkpt lat="44.167615156620741" lon="9.612128511071205">
        <ele>1.58</ele>
        <time>2014-04-13T15:08:25Z</time>
      </trkpt>
      <trkpt lat="44.167589759454131" lon="9.612136641517282">
        <ele>1.1</ele>
        <time>2014-04-13T15:08:37Z</time>
      </trkpt>
      <trkpt lat="44.167594537138939" lon="9.612133875489235">
        <ele>1.1</ele>
        <time>2014-04-13T15:09:03Z</time>
      </trkpt>
      <trkpt lat="44.16757995262742" lon="9.612137144431472">
        <ele>2.54</ele>
        <time>2014-04-13T15:09:25Z</time>
      </trkpt>
      <trkpt lat="44.167566122487187" lon="9.612169666215777">
        <ele>2.54</ele>
        <time>2014-04-13T15:09:42Z</time>
      </trkpt>
      <trkpt lat="44.167577186599374" lon="9.612143514677882">
        <ele>2.54</ele>
        <time>2014-04-13T15:10:12Z</time>
      </trkpt>
      <trkpt lat="44.167548771947622" lon="9.612178467214108">
        <ele>2.54</ele>
        <time>2014-04-13T15:10:41Z</time>
      </trkpt>
      <trkpt lat="44.167531505227089" lon="9.612167319282889">
        <ele>2.54</ele>
        <time>2014-04-13T15:11:13Z</time>
      </trkpt>
      <trkpt lat="44.167560003697872" lon="9.61217905394733">
        <ele>3.02</ele>
        <time>2014-04-13T15:11:29Z</time>
      </trkpt>
      <trkpt lat="44.167567966505885" lon="9.61217176169157">
        <ele>3.02</ele>
        <time>2014-04-13T15:11:49Z</time>
      </trkpt>
      <trkpt lat="44.16756235063076" lon="9.612182155251503">
        <ele>3.02</ele>
        <time>2014-04-13T15:12:08Z</time>
      </trkpt>
      <trkpt lat="44.167618928477168" lon="9.612194057554007">
        <ele>3.02</ele>
        <time>2014-04-13T15:12:22Z</time>
      </trkpt>
      <trkpt lat="44.1677260491997" lon="9.612208725884557">
        <ele>3.02</ele>
        <time>2014-04-13T15:12:36Z</time>
      </trkpt>
      <trkpt lat="44.167804671451449" lon="9.612217443063855">
        <ele>3.02</ele>
        <time>2014-04-13T15:12:48Z</time>
      </trkpt>
      <trkpt lat="44.167847335338593" lon="9.612221969291568">
        <ele>3.02</ele>
        <time>2014-04-13T15:12:53Z</time>
      </trkpt>
      <trkpt lat="44.168001478537917" lon="9.612255580723286">
        <ele>3.02</ele>
        <time>2014-04-13T15:13:07Z</time>
      </trkpt>
      <trkpt lat="44.168158387765288" lon="9.612309392541647">
        <ele>3.98</ele>
        <time>2014-04-13T15:13:22Z</time>
      </trkpt>
      <trkpt lat="44.168296353891492" lon="9.612248037010431">
        <ele>4.94</ele>
        <time>2014-04-13T15:13:35Z</time>
      </trkpt>
      <trkpt lat="44.168341364711523" lon="9.612233703956008">
        <ele>4.94</ele>
        <time>2014-04-13T15:13:39Z</time>
      </trkpt>
      <trkpt lat="44.168370198458433" lon="9.61223378777504">
        <ele>5.42</ele>
        <time>2014-04-13T15:13:42Z</time>
      </trkpt>
      <trkpt lat="44.168599359691143" lon="9.612233201041818">
        <ele>6.87</ele>
        <time>2014-04-13T15:14:00Z</time>
      </trkpt>
      <trkpt lat="44.168638167902827" lon="9.61224066093564">
        <ele>6.87</ele>
        <time>2014-04-13T15:14:03Z</time>
      </trkpt>
      <trkpt lat="44.16866322979331" lon="9.612238062545657">
        <ele>7.83</ele>
        <time>2014-04-13T15:14:05Z</time>
      </trkpt>
      <trkpt lat="44.168737661093473" lon="9.612271087244153">
        <ele>8.789999999999999</ele>
        <time>2014-04-13T15:14:15Z</time>
      </trkpt>
      <trkpt lat="44.168756939470768" lon="9.612325904890895">
        <ele>8.789999999999999</ele>
        <time>2014-04-13T15:14:19Z</time>
      </trkpt>
      <trkpt lat="44.16883229278028" lon="9.612580379471183">
        <ele>8.789999999999999</ele>
        <time>2014-04-13T15:14:35Z</time>
      </trkpt>
      <trkpt lat="44.168843692168593" lon="9.612594209611416">
        <ele>8.789999999999999</ele>
        <time>2014-04-13T15:14:36Z</time>
      </trkpt>
      <trkpt lat="44.168909573927522" lon="9.612807529047132">
        <ele>7.83</ele>
        <time>2014-04-13T15:14:50Z</time>
      </trkpt>
      <trkpt lat="44.168926170095801" lon="9.613071391358972">
        <ele>4.94</ele>
        <time>2014-04-13T15:15:05Z</time>
      </trkpt>
      <trkpt lat="44.168930277228355" lon="9.613103913143277">
        <ele>4.94</ele>
        <time>2014-04-13T15:15:07Z</time>
      </trkpt>
      <trkpt lat="44.169040750712156" lon="9.613271886482835">
        <ele>3.02</ele>
        <time>2014-04-13T15:15:19Z</time>
      </trkpt>
      <trkpt lat="44.169070087373257" lon="9.613353358581662">
        <ele>2.54</ele>
        <time>2014-04-13T15:15:24Z</time>
      </trkpt>
      <trkpt lat="44.169213166460395" lon="9.613615041598678">
        <ele>2.06</ele>
        <time>2014-04-13T15:15:41Z</time>
      </trkpt>
      <trkpt lat="44.169373512268066" lon="9.613726520910859">
        <ele>2.06</ele>
        <time>2014-04-13T15:15:56Z</time>
      </trkpt>
      <trkpt lat="44.16950955055654" lon="9.61371143348515">
        <ele>2.06</ele>
        <time>2014-04-13T15:16:10Z</time>
      </trkpt>
      <trkpt lat="44.169635865837336" lon="9.613705482333899">
        <ele>2.06</ele>
        <time>2014-04-13T15:16:23Z</time>
      </trkpt>
      <trkpt lat="44.169818758964539" lon="9.613671535626054">
        <ele>2.54</ele>
        <time>2014-04-13T15:16:38Z</time>
      </trkpt>
      <trkpt lat="44.170019840821624" lon="9.613611521199346">
        <ele>2.54</ele>
        <time>2014-04-13T15:16:55Z</time>
      </trkpt>
      <trkpt lat="44.170059487223625" lon="9.613595763221383">
        <ele>2.54</ele>
        <time>2014-04-13T15:16:59Z</time>
      </trkpt>
      <trkpt lat="44.170079939067364" lon="9.613581513985992">
        <ele>2.54</ele>
        <time>2014-04-13T15:17:01Z</time>
      </trkpt>
      <trkpt lat="44.1703025624156" lon="9.613539939746261">
        <ele>2.54</ele>
        <time>2014-04-13T15:17:20Z</time>
      </trkpt>
      <trkpt lat="44.170642867684364" lon="9.613461066037417">
        <ele>2.54</ele>
        <time>2014-04-13T15:17:42Z</time>
      </trkpt>
      <trkpt lat="44.170855181291699" lon="9.613439189270139">
        <ele>2.54</ele>
        <time>2014-04-13T15:18:00Z</time>
      </trkpt>
      <trkpt lat="44.171041427180171" lon="9.613463748246431">
        <ele>3.02</ele>
        <time>2014-04-13T15:18:14Z</time>
      </trkpt>
      <trkpt lat="44.171067494899035" lon="9.613463077694178">
        <ele>3.02</ele>
        <time>2014-04-13T15:18:16Z</time>
      </trkpt>
      <trkpt lat="44.171228678897023" lon="9.61348713375628">
        <ele>3.02</ele>
        <time>2014-04-13T15:18:31Z</time>
      </trkpt>
      <trkpt lat="44.171381397172809" lon="9.61344949901104">
        <ele>3.02</ele>
        <time>2014-04-13T15:18:45Z</time>
      </trkpt>
      <trkpt lat="44.171463204547763" lon="9.613430220633745">
        <ele>3.02</ele>
        <time>2014-04-13T15:18:51Z</time>
      </trkpt>
      <trkpt lat="44.171569319441915" lon="9.613361405208707">
        <ele>3.02</ele>
        <time>2014-04-13T15:18:59Z</time>
      </trkpt>
      <trkpt lat="44.171692868694663" lon="9.61350129917264">
        <ele>4.46</ele>
        <time>2014-04-13T15:19:13Z</time>
      </trkpt>
      <trkpt lat="44.171733101829886" lon="9.613631051033735">
        <ele>4.46</ele>
        <time>2014-04-13T15:19:21Z</time>
      </trkpt>
      <trkpt lat="44.171778447926044" lon="9.613828780129552">
        <ele>4.46</ele>
        <time>2014-04-13T15:19:32Z</time>
      </trkpt>
      <trkpt lat="44.171856986358762" lon="9.614051822572947">
        <ele>4.46</ele>
        <time>2014-04-13T15:19:46Z</time>
      </trkpt>
      <trkpt lat="44.171866374090314" lon="9.614103622734547">
        <ele>4.46</ele>
        <time>2014-04-13T15:19:49Z</time>
      </trkpt>
      <trkpt lat="44.171891352161765" lon="9.614274278283119">
        <ele>4.46</ele>
        <time>2014-04-13T15:19:59Z</time>
      </trkpt>
      <trkpt lat="44.171929489821196" lon="9.614382488653064">
        <ele>4.46</ele>
        <time>2014-04-13T15:20:09Z</time>
      </trkpt>
      <trkpt lat="44.17206259444356" lon="9.614443173632026">
        <ele>4.94</ele>
        <time>2014-04-13T15:20:21Z</time>
      </trkpt>
      <trkpt lat="44.172224197536707" lon="9.614681219682097">
        <ele>6.39</ele>
        <time>2014-04-13T15:20:42Z</time>
      </trkpt>
      <trkpt lat="44.172452939674258" lon="9.614889593794942">
        <ele>8.310000000000001</ele>
        <time>2014-04-13T15:21:02Z</time>
      </trkpt>
      <trkpt lat="44.17267095297575" lon="9.614934185519815">
        <ele>10.23</ele>
        <time>2014-04-13T15:21:20Z</time>
      </trkpt>
      <trkpt lat="44.172827107831836" lon="9.614925384521484">
        <ele>10.710000000000001</ele>
        <time>2014-04-13T15:21:32Z</time>
      </trkpt>
      <trkpt lat="44.172956524416804" lon="9.614875596016645">
        <ele>10.710000000000001</ele>
        <time>2014-04-13T15:21:44Z</time>
      </trkpt>
      <trkpt lat="44.173135980963707" lon="9.614863023161888">
        <ele>10.23</ele>
        <time>2014-04-13T15:21:57Z</time>
      </trkpt>
      <trkpt lat="44.173159617930651" lon="9.614888587966561">
        <ele>10.23</ele>
        <time>2014-04-13T15:22:01Z</time>
      </trkpt>
      <trkpt lat="44.173171017318964" lon="9.614901747554541">
        <ele>10.23</ele>
        <time>2014-04-13T15:22:02Z</time>
      </trkpt>
      <trkpt lat="44.173182249069214" lon="9.614917756989598">
        <ele>10.23</ele>
        <time>2014-04-13T15:22:03Z</time>
      </trkpt>
      <trkpt lat="44.173193816095591" lon="9.614937035366893">
        <ele>10.23</ele>
        <time>2014-04-13T15:22:04Z</time>
      </trkpt>
      <trkpt lat="44.173201443627477" lon="9.614961091428995">
        <ele>10.23</ele>
        <time>2014-04-13T15:22:05Z</time>
      </trkpt>
      <trkpt lat="44.173208065330982" lon="9.614988332614303">
        <ele>10.23</ele>
        <time>2014-04-13T15:22:06Z</time>
      </trkpt>
      <trkpt lat="44.173217704519629" lon="9.615019010379911">
        <ele>10.23</ele>
        <time>2014-04-13T15:22:07Z</time>
      </trkpt>
      <trkpt lat="44.173287777230144" lon="9.615166028961539">
        <ele>10.23</ele>
        <time>2014-04-13T15:22:19Z</time>
      </trkpt>
      <trkpt lat="44.17337260209024" lon="9.615373313426971">
        <ele>10.23</ele>
        <time>2014-04-13T15:22:31Z</time>
      </trkpt>
      <trkpt lat="44.17339120991528" lon="9.615366272628307">
        <ele>10.23</ele>
        <time>2014-04-13T15:22:33Z</time>
      </trkpt>
      <trkpt lat="44.173403698951006" lon="9.615364763885737">
        <ele>10.23</ele>
        <time>2014-04-13T15:22:34Z</time>
      </trkpt>
      <trkpt lat="44.173449464142323" lon="9.615405332297087">
        <ele>10.23</ele>
        <time>2014-04-13T15:22:43Z</time>
      </trkpt>
      <trkpt lat="44.173456253483891" lon="9.615424443036318">
        <ele>10.23</ele>
        <time>2014-04-13T15:22:44Z</time>
      </trkpt>
      <trkpt lat="44.173466730862856" lon="9.615444978699088">
        <ele>10.23</ele>
        <time>2014-04-13T15:22:45Z</time>
      </trkpt>
      <trkpt lat="44.17347720824182" lon="9.615461407229304">
        <ele>10.23</ele>
        <time>2014-04-13T15:22:46Z</time>
      </trkpt>
      <trkpt lat="44.17348743416369" lon="9.615475488826633">
        <ele>10.23</ele>
        <time>2014-04-13T15:22:47Z</time>
      </trkpt>
      <trkpt lat="44.173512998968363" lon="9.615524858236313">
        <ele>10.710000000000001</ele>
        <time>2014-04-13T15:22:50Z</time>
      </trkpt>
      <trkpt lat="44.173531103879213" lon="9.61554229259491">
        <ele>10.710000000000001</ele>
        <time>2014-04-13T15:22:51Z</time>
      </trkpt>
      <trkpt lat="44.173548119142652" lon="9.615557631477714">
        <ele>10.710000000000001</ele>
        <time>2014-04-13T15:22:52Z</time>
      </trkpt>
      <trkpt lat="44.173555662855506" lon="9.615590907633305">
        <ele>10.710000000000001</ele>
        <time>2014-04-13T15:22:57Z</time>
      </trkpt>
      <trkpt lat="44.173553232103586" lon="9.615603564307094">
        <ele>10.710000000000001</ele>
        <time>2014-04-13T15:22:58Z</time>
      </trkpt>
      <trkpt lat="44.173559686169028" lon="9.615669781342149">
        <ele>10.710000000000001</ele>
        <time>2014-04-13T15:23:14Z</time>
      </trkpt>
      <trkpt lat="44.173571169376373" lon="9.615750163793564">
        <ele>10.710000000000001</ele>
        <time>2014-04-13T15:23:26Z</time>
      </trkpt>
      <trkpt lat="44.173586675897241" lon="9.615801544860005">
        <ele>10.710000000000001</ele>
        <time>2014-04-13T15:23:38Z</time>
      </trkpt>
      <trkpt lat="44.17358273640275" lon="9.615779919549823">
        <ele>10.23</ele>
        <time>2014-04-13T15:23:53Z</time>
      </trkpt>
      <trkpt lat="44.17360570281744" lon="9.615810513496399">
        <ele>10.710000000000001</ele>
        <time>2014-04-13T15:24:07Z</time>
      </trkpt>
      <trkpt lat="44.173598578199744" lon="9.615763323381543">
        <ele>10.710000000000001</ele>
        <time>2014-04-13T15:24:32Z</time>
      </trkpt>
      <trkpt lat="44.173591285943985" lon="9.615740776062012">
        <ele>10.710000000000001</ele>
        <time>2014-04-13T15:24:46Z</time>
      </trkpt>
      <trkpt lat="44.173589944839478" lon="9.615736166015267">
        <ele>9.27</ele>
        <time>2014-04-13T15:24:48Z</time>
      </trkpt>
      <trkpt lat="44.173571085557342" lon="9.615719402208924">
        <ele>8.310000000000001</ele>
        <time>2014-04-13T15:25:01Z</time>
      </trkpt>
      <trkpt lat="44.173526242375374" lon="9.615703141316772">
        <ele>9.75</ele>
        <time>2014-04-13T15:25:30Z</time>
      </trkpt>
      <trkpt lat="44.173543425276875" lon="9.615726191550493">
        <ele>10.23</ele>
        <time>2014-04-13T15:25:39Z</time>
      </trkpt>
      <trkpt lat="44.173550717532635" lon="9.615721665322781">
        <ele>10.23</ele>
        <time>2014-04-13T15:25:54Z</time>
      </trkpt>
      <trkpt lat="44.173546945676208" lon="9.615682018920779">
        <ele>10.23</ele>
        <time>2014-04-13T15:25:57Z</time>
      </trkpt>
      <trkpt lat="44.173511322587729" lon="9.615564420819283">
        <ele>10.23</ele>
        <time>2014-04-13T15:26:07Z</time>
      </trkpt>
      <trkpt lat="44.173539150506258" lon="9.615723676979542">
        <ele>10.23</ele>
        <time>2014-04-13T15:26:22Z</time>
      </trkpt>
      <trkpt lat="44.173571085557342" lon="9.615804478526115">
        <ele>10.23</ele>
        <time>2014-04-13T15:26:28Z</time>
      </trkpt>
      <trkpt lat="44.173636715859175" lon="9.616010170429945">
        <ele>10.23</ele>
        <time>2014-04-13T15:26:45Z</time>
      </trkpt>
      <trkpt lat="44.173649456351995" lon="9.616133719682694">
        <ele>10.23</ele>
        <time>2014-04-13T15:26:59Z</time>
      </trkpt>
      <trkpt lat="44.173648869618773" lon="9.6161799877882">
        <ele>10.23</ele>
        <time>2014-04-13T15:27:13Z</time>
      </trkpt>
      <trkpt lat="44.173670494928956" lon="9.616275541484356">
        <ele>10.23</ele>
        <time>2014-04-13T15:27:31Z</time>
      </trkpt>
      <trkpt lat="44.173682816326618" lon="9.616272440180183">
        <ele>10.23</ele>
        <time>2014-04-13T15:27:46Z</time>
      </trkpt>
      <trkpt lat="44.173675356432796" lon="9.616222819313407">
        <ele>10.23</ele>
        <time>2014-04-13T15:27:57Z</time>
      </trkpt>
      <trkpt lat="44.173686839640141" lon="9.616237822920084">
        <ele>10.23</ele>
        <time>2014-04-13T15:28:09Z</time>
      </trkpt>
      <trkpt lat="44.173686001449823" lon="9.61631921119988">
        <ele>10.23</ele>
        <time>2014-04-13T15:28:15Z</time>
      </trkpt>
      <trkpt lat="44.173690862953663" lon="9.616382326930761">
        <ele>10.23</ele>
        <time>2014-04-13T15:28:20Z</time>
      </trkpt>
      <trkpt lat="44.173737550154328" lon="9.616728331893683">
        <ele>10.23</ele>
        <time>2014-04-13T15:28:39Z</time>
      </trkpt>
      <trkpt lat="44.173741741105914" lon="9.616782898083329">
        <ele>10.23</ele>
        <time>2014-04-13T15:28:42Z</time>
      </trkpt>
      <trkpt lat="44.173750206828117" lon="9.616920109838247">
        <ele>10.23</ele>
        <time>2014-04-13T15:28:56Z</time>
      </trkpt>
      <trkpt lat="44.173813993111253" lon="9.617106858640909">
        <ele>10.23</ele>
        <time>2014-04-13T15:29:04Z</time>
      </trkpt>
      <trkpt lat="44.173860177397728" lon="9.617149354889989">
        <ele>10.23</ele>
        <time>2014-04-13T15:29:07Z</time>
      </trkpt>
      <trkpt lat="44.17394676245749" lon="9.61727206595242">
        <ele>10.23</ele>
        <time>2014-04-13T15:29:13Z</time>
      </trkpt>
      <trkpt lat="44.174221018329263" lon="9.617279442027211">
        <ele>11.19</ele>
        <time>2014-04-13T15:29:33Z</time>
      </trkpt>
      <trkpt lat="44.174443641677499" lon="9.61723443120718">
        <ele>11.67</ele>
        <time>2014-04-13T15:29:51Z</time>
      </trkpt>
      <trkpt lat="44.174513882026076" lon="9.617227222770453">
        <ele>12.15</ele>
        <time>2014-04-13T15:29:58Z</time>
      </trkpt>
      <trkpt lat="44.174535423517227" lon="9.617281537503004">
        <ele>11.67</ele>
        <time>2014-04-13T15:30:09Z</time>
      </trkpt>
      <trkpt lat="44.174578422680497" lon="9.617276675999165">
        <ele>11.67</ele>
        <time>2014-04-13T15:30:16Z</time>
      </trkpt>
      <trkpt lat="44.174588229507208" lon="9.617384467273951">
        <ele>11.67</ele>
        <time>2014-04-13T15:30:29Z</time>
      </trkpt>
      <trkpt lat="44.174597030505538" lon="9.617380695417523">
        <ele>11.67</ele>
        <time>2014-04-13T15:30:30Z</time>
      </trkpt>
      <trkpt lat="44.17462402023375" lon="9.617334343492985">
        <ele>11.67</ele>
        <time>2014-04-13T15:30:36Z</time>
      </trkpt>
      <trkpt lat="44.174580685794353" lon="9.617328643798828">
        <ele>11.67</ele>
        <time>2014-04-13T15:30:51Z</time>
      </trkpt>
      <trkpt lat="44.174610776826739" lon="9.61727986112237">
        <ele>11.67</ele>
        <time>2014-04-13T15:31:02Z</time>
      </trkpt>
      <trkpt lat="44.174585044384003" lon="9.617267707362771">
        <ele>11.67</ele>
        <time>2014-04-13T15:31:14Z</time>
      </trkpt>
      <trkpt lat="44.174610441550612" lon="9.617279777303338">
        <ele>11.67</ele>
        <time>2014-04-13T15:31:34Z</time>
      </trkpt>
      <trkpt lat="44.174613039940596" lon="9.617388239130378">
        <ele>10.710000000000001</ele>
        <time>2014-04-13T15:31:47Z</time>
      </trkpt>
      <trkpt lat="44.174630306661129" lon="9.617386059835553">
        <ele>10.710000000000001</ele>
        <time>2014-04-13T15:32:13Z</time>
      </trkpt>
      <trkpt lat="44.174618739634752" lon="9.617424616590142">
        <ele>10.710000000000001</ele>
        <time>2014-04-13T15:32:40Z</time>
      </trkpt>
      <trkpt lat="44.174616392701864" lon="9.617443224415183">
        <ele>10.710000000000001</ele>
        <time>2014-04-13T15:33:09Z</time>
      </trkpt>
      <trkpt lat="44.17462888173759" lon="9.617410618811846">
        <ele>10.710000000000001</ele>
        <time>2014-04-13T15:33:33Z</time>
      </trkpt>
      <trkpt lat="44.174649668857455" lon="9.617382204160094">
        <ele>10.710000000000001</ele>
        <time>2014-04-13T15:34:02Z</time>
      </trkpt>
      <trkpt lat="44.174614548683167" lon="9.617395112290978">
        <ele>10.710000000000001</ele>
        <time>2014-04-13T15:34:31Z</time>
      </trkpt>
      <trkpt lat="44.174610525369644" lon="9.617413468658924">
        <ele>10.710000000000001</ele>
        <time>2014-04-13T15:34:57Z</time>
      </trkpt>
      <trkpt lat="44.174622260034084" lon="9.617381617426872">
        <ele>10.710000000000001</ele>
        <time>2014-04-13T15:35:27Z</time>
      </trkpt>
      <trkpt lat="44.174602646380663" lon="9.61739125661552">
        <ele>10.710000000000001</ele>
        <time>2014-04-13T15:35:55Z</time>
      </trkpt>
      <trkpt lat="44.174602814018726" lon="9.61739175952971">
        <ele>10.710000000000001</ele>
        <time>2014-04-13T15:36:18Z</time>
      </trkpt>
      <trkpt lat="44.174609100446105" lon="9.617390166968107">
        <ele>10.710000000000001</ele>
        <time>2014-04-13T15:36:47Z</time>
      </trkpt>
      <trkpt lat="44.174594935029745" lon="9.617370301857591">
        <ele>10.710000000000001</ele>
        <time>2014-04-13T15:37:11Z</time>
      </trkpt>
      <trkpt lat="44.174588145688176" lon="9.617379941046238">
        <ele>10.23</ele>
        <time>2014-04-13T15:37:34Z</time>
      </trkpt>
      <trkpt lat="44.174589235335588" lon="9.617406260222197">
        <ele>10.23</ele>
        <time>2014-04-13T15:37:47Z</time>
      </trkpt>
      <trkpt lat="44.174610860645771" lon="9.617401314899325">
        <ele>10.23</ele>
        <time>2014-04-13T15:38:20Z</time>
      </trkpt>
      <trkpt lat="44.174627121537924" lon="9.617415061220527">
        <ele>10.23</ele>
        <time>2014-04-13T15:38:41Z</time>
      </trkpt>
      <trkpt lat="44.174623349681497" lon="9.617414055392146">
        <ele>12.630000000000001</ele>
        <time>2014-04-13T15:38:46Z</time>
      </trkpt>
    </trkseg>
  </trk>

</gpx>